[[{"header":{"parameterUnit":"m.s-1","parameterCategory":1,"la1":30.6,"la2":28.766,"lo1":-90.7593,"lo2":-88.6598,"dy":0.0162,"dx":0.0183,"nx":116,"ny":114,"refTime":"2023-09-20T00:00:00:Z","depth":0,"parameterNumber":2,"parameterNumberName":"U-component_of_WINDS"},"data":[0.0,0.0,0.0,0.0,0.0,0.0,0.0,0.0,0.0,0.0,0.0,0.0,0.0,0.0,0.0,0.0,0.0,0.0,0.0,0.0,0.0,0.0,0.0,0.0,0.0,0.0,0.0,0.0,0.0,0.0,0.0,0.0,0.0,0.0,0.0,0.0,0.0,0.0,0.0,0.0,0.0,0.0,0.0,0.0,0.0,0.0,0.0,0.0,0.0,0.0,0.0,0.0,0.0,0.0,0.0,0.0,0.0,0.0,0.0,0.0,0.0,0.0,0.0,0.0,0.0,0.0,0.0,0.0,0.0,0.0,0.0,0.0,0.0,0.0,0.0,0.0,0.0,0.0,0.0,0.0,0.0,0.0,0.0,0.0,0.0,0.0,0.0,0.0,0.0,0.0,0.0,0.0,0.0,0.0,0.0,0.0,0.0,0.0,0.0,0.0,0.0,0.0,0.0,0.0,0.0,0.0,0.0,0.0,0.0,0.0,0.0,0.0,0.0,0.0,0.0,0.0,0.0,0.0,0.0,0.0,0.0,0.0,0.0,0.0,0.0,0.0,0.0,0.0,0.0,0.0,0.0,0.0,0.0,0.0,0.0,0.0,0.0,0.0,0.0,0.0,0.0,0.0,0.0,0.0,0.0,0.0,0.0,0.0,0.0,0.0,0.0,0.0,0.0,0.0,0.0,0.0,0.0,0.0,0.0,0.0,0.0,0.0,0.0,0.0,0.0,0.0,0.0,0.0,0.0,0.0,0.0,0.0,0.0,0.0,0.0,0.0,0.0,0.0,0.0,0.0,0.0,0.0,0.0,0.0,0.0,0.0,0.0,0.0,0.0,0.0,0.0,0.0,0.0,0.0,0.0,0.0,0.0,0.0,0.0,0.0,0.0,0.0,0.0,0.0,0.0,0.0,0.0,0.0,0.0,0.0,0.0,0.0,0.0,0.0,0.0,0.0,0.0,0.0,0.0,0.0,0.0,0.0,0.0,0.0,0.0,0.0,0.0,0.0,0.0,0.0,0.0,0.0,0.0,0.0,0.0,0.0,0.0,0.0,0.0,0.0,0.0,0.0,0.0,0.0,0.0,0.0,0.0,0.0,0.0,0.0,0.0,0.0,0.0,0.0,0.0,0.0,0.0,0.0,0.0,0.0,0.0,0.0,0.0,0.0,0.0,0.0,0.0,0.0,0.0,0.0,0.0,0.0,0.0,0.0,0.0,0.0,0.0,0.0,0.0,0.0,0.0,0.0,0.0,0.0,0.0,0.0,0.0,0.0,0.0,0.0,0.0,0.0,0.0,0.0,0.0,0.0,0.0,0.0,0.0,0.0,0.0,0.0,0.0,0.0,0.0,0.0,0.0,0.0,0.0,0.0,0.0,0.0,0.0,0.0,0.0,0.0,0.0,0.0,0.0,0.0,0.0,0.0,0.0,0.0,0.0,0.0,0.0,0.0,0.0,0.0,0.0,0.0,0.0,0.0,0.0,0.0,0.0,0.0,0.0,0.0,0.0,0.0,0.0,0.0,0.0,0.0,0.0,0.0,0.0,0.0,0.0,0.0,0.0,0.0,0.0,0.0,0.0,0.0,0.0,0.0,0.0,0.0,0.0,0.0,0.0,0.0,0.0,0.0,0.0,0.0,0.0,0.0,0.0,0.0,0.0,0.0,0.0,0.0,0.0,0.0,0.0,0.0,0.0,0.0,0.0,0.0,0.0,0.0,0.0,0.0,0.0,0.0,0.0,0.0,0.0,0.0,0.0,0.0,0.0,0.0,0.0,0.0,0.0,0.0,0.0,0.0,0.0,0.0,0.0,0.0,0.0,0.0,0.0,0.0,0.0,0.0,0.0,0.0,0.0,0.0,0.0,0.0,0.0,0.0,0.0,0.0,0.0,0.0,0.0,0.0,0.0,0.0,0.0,0.0,0.0,0.0,0.0,0.0,0.0,0.0,0.0,0.0,0.0,0.0,0.0,0.0,0.0,0.0,0.0,0.0,0.0,0.0,0.0,0.0,0.0,0.0,0.0,0.0,0.0,0.0,0.0,0.0,0.0,0.0,0.0,0.0,0.0,0.0,0.0,0.0,0.0,0.0,0.0,0.0,0.0,0.0,0.0,0.0,0.0,0.0,0.0,0.0,0.0,0.0,0.0,0.0,0.0,0.0,0.0,0.0,0.0,0.0,0.0,0.0,0.0,0.0,0.0,0.0,0.0,0.0,0.0,0.0,0.0,0.0,0.0,0.0,0.0,0.0,0.0,0.0,0.0,0.0,0.0,0.0,0.0,0.0,0.0,0.0,0.0,0.0,0.0,0.0,0.0,0.0,0.0,0.0,0.0,0.0,0.0,0.0,0.0,0.0,0.0,0.0,0.0,0.0,0.0,0.0,0.0,0.0,0.0,0.0,0.0,0.0,0.0,0.0,0.0,0.0,0.0,0.0,0.0,0.0,0.0,0.0,0.0,0.0,0.0,0.0,0.0,0.0,0.0,0.0,0.0,0.0,0.0,0.0,0.0,0.0,0.0,0.0,0.0,0.0,0.0,0.0,0.0,0.0,0.0,0.0,0.0,0.0,0.0,0.0,0.0,0.0,0.0,0.0,0.0,0.0,0.0,0.0,0.0,0.0,0.0,0.0,0.0,0.0,0.0,0.0,0.0,0.0,0.0,0.0,0.0,0.0,0.0,0.0,0.0,0.0,0.0,0.0,0.0,0.0,0.0,0.0,0.0,0.0,0.0,0.0,0.0,0.0,0.0,0.0,0.0,0.0,0.0,0.0,0.0,0.0,0.0,0.0,0.0,0.0,0.0,0.0,0.0,0.0,0.0,0.0,0.0,0.0,0.0,0.0,0.0,0.0,0.0,0.0,0.0,0.0,0.0,0.0,0.0,0.0,0.0,0.0,0.0,0.0,0.0,0.0,0.0,0.0,0.0,0.0,0.0,0.0,0.0,0.0,0.0,0.0,0.0,0.0,0.0,0.0,0.0,0.0,0.0,0.0,0.0,0.0,0.0,0.0,0.0,0.0,0.0,0.0,0.0,0.0,0.0,0.0,0.0,0.0,0.0,0.0,0.0,0.0,0.0,0.0,0.0,0.0,0.0,0.0,0.0,0.0,0.0,0.0,0.0,0.0,0.0,0.0,0.0,0.0,0.0,0.0,0.0,0.0,0.0,0.0,0.0,0.0,0.0,0.0,0.0,0.0,0.0,0.0,0.0,0.0,0.0,0.0,0.0,0.0,0.0,0.0,0.0,0.0,0.0,0.0,0.0,0.0,0.0,0.0,0.0,0.0,0.0,0.0,0.0,0.0,0.0,0.0,0.0,0.0,0.0,0.0,0.0,0.0,0.0,0.0,0.0,0.0,0.0,0.0,0.0,0.0,0.0,0.0,0.0,0.0,0.0,0.0,0.0,0.0,0.0,0.0,0.0,0.0,0.0,0.0,0.0,0.0,0.0,0.0,0.0,0.0,0.0,0.0,0.0,0.0,0.0,0.0,0.0,0.0,0.0,0.0,0.0,0.0,0.0,0.0,0.0,0.0,0.0,0.0,0.0,0.0,0.0,0.0,0.0,0.0,0.0,0.0,0.0,0.0,0.0,0.0,0.0,0.0,0.0,0.0,0.0,0.0,0.0,0.0,0.0,0.0,0.0,0.0,0.0,0.0,0.0,0.0,0.0,0.0,0.0,0.0,0.0,0.0,0.0,0.0,0.0,0.0,0.0,0.0,0.0,0.0,0.0,0.0,0.0,0.0,0.0,0.0,0.0,0.0,0.0,0.0,0.0,0.0,0.0,0.0,0.0,0.0,0.0,0.0,0.0,0.0,0.0,0.0,0.0,0.0,0.0,0.0,0.0,0.0,0.0,0.0,0.0,0.0,0.0,0.0,0.0,0.0,0.0,0.0,0.0,0.0,0.0,0.0,0.0,0.0,0.0,0.0,0.0,0.0,0.0,0.0,0.0,0.0,0.0,0.0,0.0,0.0,0.0,0.0,0.0,0.0,0.0,0.0,0.0,0.0,0.0,0.0,0.0,0.0,0.0,0.0,0.0,0.0,0.0,0.0,0.0,0.0,0.0,0.0,0.0,0.0,0.0,0.0,0.0,0.0,0.0,0.0,0.0,0.0,0.0,0.0,0.0,0.0,0.0,0.0,0.0,0.0,0.0,0.0,0.0,0.0,0.0,0.0,0.0,0.0,0.0,0.0,0.0,0.0,0.0,0.0,0.0,0.0,0.0,0.0,0.0,0.0,0.0,0.0,0.0,0.0,0.0,0.0,0.0,0.0,0.0,0.0,0.0,0.0,0.0,0.0,0.0,0.0,0.0,0.0,0.0,0.0,0.0,0.0,0.0,0.0,0.0,0.0,0.0,0.0,0.0,0.0,0.0,0.0,0.0,0.0,0.0,0.0,0.0,0.0,0.0,0.0,0.0,0.0,0.0,0.0,0.0,0.0,0.0,0.0,0.0,0.0,0.0,0.0,0.0,0.0,0.0,0.0,0.0,0.0,0.0,0.0,0.0,0.0,0.0,0.0,0.0,0.0,0.0,0.0,0.0,0.0,0.0,0.0,0.0,0.0,0.0,0.0,0.0,0.0,0.0,0.0,0.0,0.0,0.0,0.0,0.0,0.0,0.0,0.0,0.0,0.0,0.0,0.0,0.0,0.0,0.0,0.0,0.0,0.0,0.0,0.0,0.0,0.0,0.0,0.0,0.0,0.0,0.0,0.0,0.0,0.0,0.0,0.0,0.0,0.0,0.0,0.0,0.0,0.0,0.0,0.0,0.0,0.0,0.0,0.0,0.0,0.0,0.0,0.0,0.0,0.0,0.0,0.0,0.0,0.0,0.0,0.0,0.0,0.0,0.0,0.0,0.0,0.0,0.0,0.0,0.0,0.0,0.0,0.0,0.0,0.0,0.0,0.0,0.0,0.0,0.0,0.0,0.0,0.0,0.0,0.0,0.0,0.0,0.0,0.0,0.0,0.0,0.0,0.0,0.0,0.0,0.0,0.0,0.0,0.0,0.0,0.0,0.0,0.0,0.0,0.0,0.0,0.0,0.0,0.0,0.0,0.0,0.0,0.0,0.0,0.0,0.0,0.0,0.0,0.0,0.0,0.0,0.0,0.0,0.0,0.0,0.0,0.0,0.0,0.0,0.0,0.0,0.0,0.0,0.0,0.0,0.0,0.0,0.0,0.0,0.0,0.0,0.0,0.0,0.0,0.0,0.0,0.0,0.0,0.0,0.0,0.0,0.0,0.0,0.0,0.0,0.0,0.0,0.0,0.0,0.0,0.0,0.0,0.0,0.0,0.0,0.0,0.0,0.0,0.0,0.0,0.0,0.0,0.0,0.0,0.0,0.0,0.0,0.0,0.0,0.0,0.0,0.0,0.0,0.0,0.0,0.0,0.0,0.0,0.0,0.0,0.0,0.0,0.0,0.0,0.0,0.0,0.0,0.0,0.0,0.0,0.0,0.0,0.0,0.0,0.0,0.0,0.0,0.0,0.0,0.0,0.0,0.0,0.0,0.0,0.0,0.0,0.0,0.0,0.0,0.0,0.0,0.0,0.0,0.0,0.0,0.0,0.0,0.0,0.0,0.0,0.0,0.0,0.0,0.0,0.0,0.0,0.0,0.0,0.0,0.0,0.0,0.0,0.0,0.0,0.0,0.0,0.0,0.0,0.0,0.0,0.0,0.0,0.0,0.0,0.0,0.0,0.0,0.0,0.0,0.0,0.0,0.0,0.0,0.0,0.0,0.0,0.0,0.0,0.0,0.0,0.0,0.0,0.0,0.0,0.0,0.0,0.0,0.0,0.0,0.0,0.0,0.0,0.0,0.0,0.0,0.0,0.0,0.0,0.0,0.0,0.0,0.0,0.0,0.0,0.0,0.0,0.0,0.0,0.0,0.0,0.0,0.0,0.0,0.0,0.0,0.0,0.0,0.0,0.0,0.0,0.0,0.0,0.0,0.0,0.0,0.0,0.0,0.0,0.0,0.0,0.0,0.0,0.0,0.0,0.0,0.0,0.0,0.0,0.0,0.0,0.0,0.0,0.0,0.0,0.0,0.0,0.0,0.0,0.0,0.0,0.0,0.0,0.0,0.0,0.0,0.0,0.0,-3.4488,0.0,0.0,0.0,0.0,0.0,0.0,0.0,0.0,0.0,0.0,0.0,0.0,0.0,0.0,0.0,0.0,0.0,0.0,0.0,0.0,0.0,0.0,0.0,0.0,0.0,0.0,0.0,0.0,0.0,0.0,0.0,0.0,0.0,0.0,0.0,0.0,0.0,0.0,0.0,-3.3121,-3.327,-3.3584,-3.4392,-3.494,-3.5238,0.0,0.0,0.0,0.0,0.0,0.0,0.0,0.0,0.0,0.0,0.0,0.0,0.0,0.0,0.0,0.0,0.0,0.0,0.0,0.0,0.0,0.0,0.0,0.0,0.0,0.0,0.0,0.0,0.0,0.0,0.0,0.0,0.0,0.0,0.0,0.0,0.0,0.0,0.0,0.0,0.0,0.0,0.0,0.0,0.0,0.0,0.0,0.0,0.0,0.0,0.0,0.0,0.0,0.0,0.0,0.0,0.0,0.0,0.0,0.0,0.0,0.0,0.0,0.0,0.0,0.0,0.0,0.0,0.0,0.0,0.0,-3.4341,0.0,0.0,0.0,0.0,0.0,0.0,0.0,0.0,0.0,0.0,0.0,0.0,0.0,0.0,0.0,0.0,0.0,0.0,0.0,0.0,0.0,0.0,0.0,0.0,0.0,0.0,0.0,0.0,0.0,0.0,0.0,0.0,0.0,0.0,0.0,-3.2682,-3.267,-3.2745,-3.2786,-3.3212,-3.3935,-3.474,-3.519,-3.5395,-3.6909,0.0,0.0,0.0,0.0,0.0,0.0,0.0,0.0,0.0,0.0,0.0,0.0,0.0,0.0,0.0,0.0,0.0,0.0,0.0,0.0,0.0,0.0,0.0,0.0,0.0,0.0,0.0,0.0,0.0,0.0,0.0,0.0,0.0,0.0,0.0,0.0,0.0,0.0,0.0,0.0,0.0,0.0,0.0,0.0,0.0,0.0,0.0,0.0,0.0,0.0,0.0,0.0,0.0,0.0,0.0,0.0,0.0,0.0,0.0,0.0,0.0,0.0,0.0,-3.4699,-3.4382,-3.3949,-3.3949,-3.372,-3.3293,-3.3529,-3.3984,-3.4545,-3.4991,0.0,0.0,0.0,0.0,0.0,0.0,0.0,0.0,0.0,0.0,0.0,0.0,0.0,0.0,0.0,0.0,0.0,0.0,0.0,0.0,0.0,-3.0948,-3.0747,-3.0747,-3.0677,-3.064,0.0,0.0,0.0,0.0,0.0,0.0,-3.202,-3.202,-3.219,-3.2534,-3.3073,-3.395,-3.5155,-3.4585,-3.4755,-3.5524,-3.6969,-3.7592,-3.7717,0.0,0.0,0.0,0.0,0.0,0.0,0.0,0.0,0.0,0.0,0.0,0.0,0.0,0.0,0.0,0.0,0.0,0.0,0.0,0.0,0.0,0.0,0.0,0.0,0.0,0.0,0.0,0.0,0.0,0.0,0.0,0.0,0.0,0.0,0.0,0.0,0.0,0.0,0.0,0.0,0.0,-3.4752,-3.5038,0.0,0.0,0.0,0.0,0.0,0.0,0.0,0.0,0.0,0.0,0.0,0.0,0.0,-3.4382,-3.3862,-3.3761,-3.3624,-3.3485,-3.3459,-3.3413,-3.3398,-3.3398,-3.3388,-3.3309,-3.3319,0.0,-3.4159,-3.4234,0.0,0.0,0.0,0.0,0.0,0.0,0.0,0.0,0.0,0.0,0.0,0.0,0.0,0.0,0.0,0.0,0.0,0.0,0.0,0.0,0.0,-3.0369,-3.0063,-2.9935,-2.9708,-2.9648,-2.988,0.0,0.0,0.0,0.0,-3.1901,-3.2001,-3.2001,-3.2026,-3.205,-3.265,-3.327,-3.3884,-3.4319,-3.4774,-3.527,-3.6426,-3.7098,-3.7461,-3.882,0.0,0.0,0.0,0.0,0.0,0.0,0.0,0.0,0.0,0.0,0.0,0.0,0.0,0.0,0.0,0.0,0.0,0.0,0.0,0.0,0.0,0.0,0.0,0.0,0.0,0.0,0.0,0.0,0.0,0.0,0.0,0.0,0.0,0.0,0.0,0.0,0.0,0.0,0.0,-3.4631,-3.4423,-3.4448,-3.4374,-3.4399,0.0,0.0,0.0,0.0,0.0,0.0,0.0,0.0,0.0,-3.3947,-3.3964,-3.3871,-3.3582,-3.3365,-3.3537,-3.4027,-3.3459,-3.3371,-3.3761,-3.3761,-3.3684,-3.3529,-3.3529,-3.3581,-3.3658,-3.3797,-3.4109,-3.444,0.0,0.0,0.0,0.0,-3.4826,-3.5031,0.0,0.0,0.0,0.0,0.0,0.0,0.0,0.0,0.0,0.0,0.0,0.0,-3.0123,-2.951,-2.9044,-2.8916,-2.8482,-2.8426,-2.8967,-2.9588,0.0,0.0,-3.1512,-3.1857,-3.199,-3.2012,-3.1967,-3.1887,-3.2421,-3.2748,-3.2955,-3.4039,-3.4688,-3.4981,-3.5671,-3.6365,-3.7065,-3.8249,-3.9058,-3.961,0.0,0.0,0.0,0.0,0.0,0.0,0.0,0.0,0.0,0.0,0.0,0.0,0.0,0.0,0.0,0.0,0.0,0.0,0.0,0.0,0.0,0.0,0.0,0.0,0.0,0.0,0.0,0.0,0.0,0.0,0.0,0.0,0.0,0.0,0.0,0.0,0.0,-3.4301,-3.4068,-3.405,-3.4,-3.405,0.0,0.0,0.0,0.0,0.0,0.0,-3.3738,-3.3411,-3.3193,-3.3109,-3.3166,-3.3156,-3.3061,-3.2772,-3.3039,-3.386,-3.3355,-3.3319,-3.3713,-3.3949,-3.3873,-3.3607,-3.3529,-3.3372,-3.3203,-3.3398,-3.3581,-3.3694,-3.3758,-3.3885,-3.4011,-3.4011,-3.4202,-3.4554,0.0,0.0,0.0,0.0,0.0,0.0,0.0,0.0,0.0,0.0,0.0,-2.9368,-2.9005,-2.7942,-2.7242,-2.7217,-2.6686,-2.671,-2.7627,-2.8154,-2.9014,-3.0376,-3.0842,-3.1277,-3.1709,-3.1779,-3.2041,-3.246,-3.2688,-3.3056,-3.356,-3.3744,-3.4186,-3.4807,-3.4864,-3.5459,-3.6533,-3.7799,-3.8349,-3.8501,-3.9635,0.0,0.0,0.0,0.0,0.0,0.0,0.0,0.0,0.0,0.0,0.0,0.0,0.0,0.0,0.0,0.0,0.0,0.0,0.0,0.0,0.0,0.0,0.0,0.0,0.0,0.0,0.0,0.0,0.0,0.0,0.0,0.0,0.0,0.0,0.0,0.0,0.0,0.0,-3.4423,-3.425,0.0,0.0,0.0,0.0,-3.3005,-3.3011,-3.2819,-3.2342,-3.2287,-3.2219,-3.2094,-3.2066,-3.1938,-3.1623,-3.1595,-3.1595,-3.1665,-3.2461,-3.2776,-3.2695,-3.3523,-3.3694,-3.3309,-3.3058,-3.2924,-3.2924,-3.2924,-3.3229,-3.3668,-3.3371,-3.3563,-3.4011,-3.4011,-3.4202,-3.4521,0.0,0.0,0.0,0.0,0.0,0.0,0.0,0.0,0.0,-2.9789,-2.921,-2.8622,-2.8061,-2.7373,-2.6969,-2.6975,-2.6538,-2.6581,-2.7356,-2.801,-2.8699,-2.9473,-3.0253,-3.0758,-3.0923,-3.0655,-3.0802,-3.1414,-3.1344,-3.1692,-3.2437,-3.2841,-3.3182,-3.3531,-3.3962,-3.4503,-3.5186,-3.6521,-3.7417,-3.798,-3.872,-3.9201,0.0,0.0,0.0,0.0,0.0,0.0,0.0,0.0,0.0,0.0,0.0,0.0,0.0,0.0,0.0,0.0,0.0,0.0,0.0,0.0,0.0,0.0,0.0,0.0,0.0,0.0,0.0,0.0,0.0,0.0,0.0,0.0,0.0,0.0,0.0,0.0,0.0,-3.2902,-3.2783,0.0,-3.306,-3.3145,-3.3112,-3.2897,-3.2715,-3.248,-3.2219,-3.2122,-3.2025,-3.187,-3.2122,-3.2104,-3.1764,-3.165,-3.1722,-3.1875,-3.1721,-3.1975,-3.2629,-3.2926,-3.3065,-3.3032,-3.2924,-3.2773,-3.2578,-3.2484,-3.2551,-3.2726,-3.2711,-3.2695,-3.2722,-3.2911,-3.3097,-3.3361,0.0,0.0,0.0,0.0,0.0,0.0,0.0,0.0,0.0,-2.9164,-2.8417,-2.7685,-2.6972,-2.6504,-2.6162,-2.5881,-2.5859,-2.6116,-2.6653,-2.767,-2.8399,-2.878,-2.9752,-3.0238,-3.0178,-2.9858,-2.9919,-3.0359,-3.0238,-3.045,-3.1029,-3.1694,-3.2158,-3.2431,-3.314,-3.37,-3.4178,-3.5078,-3.6118,-3.7237,-3.7931,-3.8334,-3.8526,0.0,0.0,0.0,0.0,0.0,0.0,0.0,0.0,0.0,0.0,0.0,0.0,0.0,0.0,0.0,0.0,0.0,0.0,0.0,0.0,0.0,0.0,0.0,0.0,0.0,0.0,0.0,0.0,0.0,0.0,0.0,0.0,0.0,0.0,-3.2096,-3.1834,-3.2015,-3.1847,-3.1862,-3.2158,-3.2132,-3.2191,-3.2401,-3.212,-3.1964,-3.2066,-3.1968,-3.1855,-3.1698,-3.1953,-3.1964,-3.1707,-3.1551,-3.1478,-3.1477,-3.1261,-3.1392,-3.1821,-3.2241,-3.2465,-3.2499,-3.2554,-3.2484,-3.2315,-3.1936,-3.1781,-3.1752,-3.212,-3.215,-3.2025,-3.2247,-3.2453,-3.2722,0.0,0.0,0.0,0.0,0.0,0.0,0.0,-2.9635,-2.9148,-2.8559,-2.754,-2.6573,-2.5793,-2.5282,-2.4697,-2.3935,-2.4557,-2.5176,-2.5482,-2.6961,-2.8007,-2.8327,-2.9195,-2.9597,-2.9411,-2.938,-2.9411,-2.9442,-2.9442,-2.9442,-2.9504,-3.0359,-3.1013,-3.1545,-3.2333,-3.2997,-3.3531,-3.3531,-3.4526,-3.6218,-3.7291,-3.7572,-3.743,0.0,0.0,0.0,0.0,0.0,0.0,0.0,0.0,0.0,0.0,0.0,0.0,0.0,0.0,0.0,0.0,0.0,0.0,0.0,0.0,0.0,0.0,0.0,0.0,0.0,0.0,0.0,0.0,0.0,0.0,0.0,0.0,0.0,-3.1924,-3.1957,-3.1819,-3.1834,-3.1534,-3.1362,-3.1333,-3.0822,-3.0763,-3.1422,-3.116,-3.1219,-3.1727,-3.1756,-3.167,-3.1511,-3.1511,-3.1409,-3.1278,-3.1087,-3.0762,-3.0282,-3.1014,-3.0984,-3.0342,-3.1534,-3.1918,-3.171,-3.1868,-3.2038,-3.2079,-3.1276,-3.0911,-3.0866,-3.1653,-3.1968,-3.1981,-3.215,-3.237,-3.2722,0.0,0.0,0.0,0.0,0.0,0.0,0.0,-2.8966,-2.8288,-2.7824,-2.6934,-2.6119,-2.5619,-2.5223,-2.4995,-2.5026,-2.5214,-2.5486,-2.5763,-2.6197,-2.662,-2.695,-2.6963,-2.7064,-2.7252,-2.6997,-2.7332,-2.8206,-2.8044,-2.8446,-2.9345,-2.9608,-2.978,-2.9966,-3.0436,-3.1144,-3.1982,-3.1697,-3.2574,-3.4268,-3.5455,-3.5698,-3.5493,0.0,0.0,0.0,0.0,0.0,0.0,0.0,0.0,0.0,0.0,0.0,0.0,0.0,0.0,0.0,0.0,0.0,0.0,0.0,0.0,0.0,0.0,0.0,0.0,0.0,0.0,0.0,0.0,0.0,0.0,0.0,-2.8492,-2.8848,-3.0256,-3.0405,-3.0329,-3.0222,-3.0434,-3.0494,-3.0269,-3.0404,-3.0494,-3.0419,-3.0315,-3.051,-3.1058,-3.094,-3.0999,-3.1351,-3.1249,-3.1073,-3.0791,-3.0747,-3.0507,-3.0158,-3.0357,-3.0477,-3.0538,-3.0866,-3.1073,-3.1175,-3.0984,-3.094,-3.0925,-3.0375,-3.0103,-3.0163,-3.1087,-3.1291,-3.1219,-3.2048,-3.2551,-3.2854,0.0,0.0,0.0,0.0,0.0,0.0,0.0,-2.8487,-2.788,-2.7502,-2.6525,-2.5738,-2.5423,-2.504,-2.4768,-2.4628,-2.503,-2.5263,-2.5182,-2.5252,-2.5487,-2.5916,-2.558,-2.5498,-2.5695,-2.551,-2.573,-2.6451,-2.6327,-2.6655,-2.7392,-2.7965,-2.8096,-2.7827,-2.8975,-2.9541,-2.9704,-2.9929,-3.0587,-3.1526,-3.2619,-3.3487,-3.4177,-3.5071,-3.5121,-3.4767,-3.4958,-3.4891,-3.4813,-3.529,0.0,0.0,0.0,0.0,0.0,0.0,0.0,0.0,0.0,0.0,0.0,0.0,0.0,0.0,0.0,0.0,0.0,0.0,0.0,0.0,0.0,0.0,0.0,0.0,-2.7743,-2.7874,-2.862,-2.903,-2.9328,-2.9571,-2.9713,-2.9699,-2.9526,-2.9498,-2.9515,-2.9608,-2.947,-2.9594,-3.0131,-3.0313,-3.0539,-3.0748,-3.0969,-3.0984,-3.0702,-3.0642,-3.0431,-3.008,-3.0005,-3.0066,-3.0189,-3.0341,-3.0507,0.0,-3.0598,-3.0494,-3.0389,-2.9917,-2.9639,0.0,0.0,0.0,0.0,0.0,-3.2468,-3.2676,0.0,0.0,0.0,0.0,0.0,0.0,0.0,-2.8266,-2.7844,-2.7501,-2.6361,-2.5445,-2.5179,-2.48,-2.4268,-2.3558,-2.4377,-2.4707,-2.4164,-2.419,-2.448,-2.5016,-2.4708,-2.4529,-2.4529,-2.4529,-2.4529,-2.4589,-2.4601,-2.4601,-2.4696,-2.5958,-2.6174,-2.5632,-2.7631,-2.7944,-2.7155,-2.8055,-2.8424,-2.8461,-2.9226,-3.0894,-3.3029,-3.3659,-3.3711,-3.3478,-3.3852,-3.3738,-3.3478,-3.3762,0.0,0.0,0.0,0.0,0.0,0.0,0.0,0.0,0.0,0.0,0.0,0.0,0.0,0.0,0.0,0.0,0.0,0.0,0.0,0.0,0.0,0.0,0.0,0.0,-2.7324,-2.7204,-2.709,-2.7729,-2.8473,-2.9198,-2.9085,-2.8926,-2.8894,-2.8392,-2.8341,-2.8876,-2.856,-2.861,-2.9139,0.0,0.0,0.0,0.0,-3.0762,-3.0672,-3.0507,-3.0296,-3.0019,-2.9822,-2.9637,-2.9509,-2.982,-3.0066,-3.0235,-3.0357,-3.0312,-3.0056,-2.962,-2.9257,-2.9067,-2.9701,-3.0269,-3.0866,-3.1737,-3.2148,-3.2259,0.0,0.0,0.0,0.0,0.0,0.0,0.0,-2.8955,-2.8187,-2.7924,-2.6739,-2.5671,-2.5041,-2.4541,-2.4208,-2.4051,-2.424,-2.4177,-2.374,-2.3446,-2.3324,-2.3423,-2.3386,-2.3313,-2.3313,-2.3313,-2.3548,-2.3952,-2.3852,-2.4034,-2.448,-2.4743,-2.4779,-2.466,-2.5098,-2.547,-2.5733,-2.5249,-2.5652,-2.656,-2.6194,-2.7675,-3.0151,-3.0734,-3.0529,-2.999,-3.0067,-3.0037,-3.0021,-3.0529,-3.0703,-3.0732,-3.0962,-3.1117,0.0,0.0,0.0,0.0,0.0,0.0,0.0,0.0,0.0,0.0,0.0,0.0,0.0,0.0,0.0,0.0,0.0,0.0,0.0,-2.6092,-2.5756,-2.5756,-2.6252,-2.6343,-2.6591,-2.7319,-2.7756,-2.7881,-2.7584,-2.7901,-2.8013,-2.7822,-2.7623,-2.7809,-2.8449,-2.8352,-2.85,-2.9012,-2.9016,-2.9282,-2.9839,-2.9654,-2.9529,-2.9435,0.0,0.0,-2.8962,-2.9026,-2.9293,-2.9727,-2.9509,-2.9212,-2.8894,-2.8554,-2.8341,-2.836,-2.9153,-2.9917,-3.0614,-3.1072,-3.1262,-3.1364,0.0,0.0,0.0,0.0,0.0,0.0,0.0,-2.9412,-2.8963,-2.8438,-2.6974,-2.5955,-2.5912,-2.4885,-2.42,-2.42,-2.3824,-2.3287,-2.2558,-2.2107,-2.1842,-2.1745,-2.1565,-2.1451,-2.1451,-2.1451,-2.1745,-2.2339,-2.2295,-2.2285,-2.2307,-2.2717,-2.2643,-2.2146,-2.2519,-2.2746,-2.2941,-2.2635,-2.2816,-2.3334,-2.3184,-2.3976,-2.547,-2.736,-2.7881,-2.7544,-2.7413,-2.7394,-2.7492,-2.7986,-2.8197,-2.8311,-2.8768,-2.8941,-2.9018,0.0,0.0,0.0,0.0,0.0,0.0,0.0,0.0,0.0,0.0,0.0,0.0,0.0,0.0,-2.6812,-2.6346,0.0,-2.5965,-2.543,-2.5218,-2.5147,-2.5276,-2.5194,-2.5592,-2.6748,-2.6997,-2.6989,-2.6833,-2.7175,-2.7255,-2.6973,-2.7154,-2.7369,-2.751,-2.7676,-2.7908,-2.8143,-2.8376,-2.8634,-2.8903,-2.8807,-2.8666,-2.8492,-2.8414,-2.8266,-2.8176,-2.8487,-2.8807,-2.9044,-2.8853,-2.861,-2.8254,-2.7941,-2.7842,-2.7941,-2.8495,-2.9184,-2.9995,-3.0733,-3.0881,-3.0837,0.0,0.0,0.0,0.0,0.0,0.0,0.0,0.0,-2.9822,-2.8729,-2.7235,-2.6284,-2.6472,-2.5146,-2.4236,-2.42,-2.3372,-2.2531,-2.1631,-2.1029,-2.0605,-2.043,-2.009,-1.9904,-1.9904,-1.9904,-2.0138,-2.0702,-2.0624,-2.0421,-2.0041,-2.0594,-2.044,-1.9689,-2.0188,-2.0236,-2.0012,-2.0217,-2.0168,-2.0062,-2.0312,-2.0466,-2.0789,-2.3394,-2.4647,-2.5019,-2.5055,-2.5033,-2.508,-2.5615,-2.579,-2.5871,-2.6319,-2.6481,-2.6481,-2.6493,-2.6438,0.0,0.0,0.0,0.0,0.0,0.0,0.0,0.0,-2.5382,-2.5793,-2.5571,-2.5676,-2.5723,-2.5535,-2.55,-2.5394,-2.5087,-2.5016,-2.4873,-2.4562,-2.4454,-2.4921,-2.6214,-2.6227,-2.6136,-2.6136,-2.6299,-2.6427,-2.638,-2.6735,-2.6884,-2.6714,-2.7255,-2.7477,-2.7317,-2.7835,-2.8084,-2.8019,-2.7986,-2.7808,-2.7485,-2.7465,-2.7378,-2.7317,-2.7855,-2.8168,-2.8298,-2.8247,-2.8051,-2.7723,-2.7404,-2.7351,-2.7438,-2.7756,-2.8235,-2.8903,-3.0162,-3.0509,-3.0388,0.0,0.0,0.0,0.0,0.0,0.0,0.0,0.0,0.0,-2.8502,-2.7558,-2.6553,-2.5182,-2.4706,-2.4381,-2.4236,-2.315,-2.244,-2.2279,-2.1011,-2.0274,-2.0235,-2.0021,-1.9904,-1.9904,-1.9904,-1.9943,-2.0021,-1.9659,-1.9453,-1.9374,-1.9079,-1.8833,-1.8762,-1.8634,-1.8475,-1.8275,-1.8115,-1.8035,-1.7994,-1.7825,-1.7874,-1.8106,-1.8231,-1.9481,-2.1309,-2.2083,-2.2232,-2.2184,-2.3011,-2.3301,-2.3264,-2.3176,-2.315,-2.3297,-2.41,-2.4123,-2.411,-2.5074,-2.4886,-2.4397,-2.4325,-2.3988,-2.3661,0.0,-2.4036,-2.4552,-2.4337,-2.4862,-2.5312,-2.5182,-2.5159,-2.5087,-2.4861,-2.4682,-2.4562,-2.449,-2.4345,-2.4298,-2.4467,-2.4874,-2.5146,-2.5146,-2.5346,-2.5732,-2.6346,-2.6022,-2.6057,-2.6679,-2.6658,-2.6624,-2.6624,-2.6692,-2.6905,-2.7317,-2.7196,-2.7002,-2.6727,-2.6595,-2.6552,-2.6517,-2.6607,-2.6981,-2.7604,-2.7284,-2.7048,-2.6833,-2.6607,-2.6449,-2.6427,-2.6939,-2.696,-2.6947,-2.8675,-2.9477,-2.9806,0.0,0.0,0.0,0.0,0.0,0.0,0.0,0.0,0.0,0.0,-2.8369,-2.6909,-2.6102,-2.5028,-2.3922,-2.2905,-2.2344,-2.1586,-2.0508,-1.9736,-1.9271,-1.9143,-1.8935,-1.8776,-1.8776,-1.8776,-1.8847,-1.8957,-1.8807,-1.847,-1.7963,-1.7762,-1.7398,-1.6911,-1.6306,-1.6183,-1.6454,-1.5985,-1.5959,-1.6173,-1.6057,-1.6098,-1.6173,-1.5876,-1.6275,-1.7186,-1.8682,-1.9164,0.0,-2.0507,-2.0901,-2.1064,-2.1876,-2.2038,-2.1989,-2.2382,-2.2296,-2.2296,-2.325,-2.2792,-2.2226,-2.2947,-2.2973,-2.2798,-2.2633,-2.3169,-2.3599,-2.3294,-2.3478,-2.3672,-2.3489,-2.3463,-2.339,-2.3217,-2.3106,-2.3032,-2.2931,-2.325,-2.3409,-2.3187,-2.3765,-2.4202,-2.4202,-2.4348,-2.4516,-2.4755,-2.485,-2.4981,-2.5193,-2.5016,-2.4921,-2.4921,-2.4803,-2.5016,-2.5568,-2.551,-2.5615,-2.5836,-2.5779,-2.5756,-2.5756,-2.6208,-2.6586,-2.6845,-2.6722,-2.6311,-2.5791,-2.6013,-2.6117,-2.6173,-2.6517,-2.6824,-2.7183,-2.8325,-2.8725,-2.8821,0.0,0.0,0.0,0.0,0.0,0.0,0.0,0.0,0.0,0.0,0.0,-2.7043,-2.6399,-2.504,-2.3629,-2.2258,-2.1918,-2.1106,-1.945,-1.8922,-1.8612,-1.8402,-1.8161,-1.787,-1.7578,-1.7749,-1.774,-1.7594,-1.7521,-1.7139,-1.647,-1.6224,-1.5737,-1.5039,-1.4252,-1.4161,-1.4525,-1.4041,-1.3971,-1.4181,-1.4489,-1.458,-1.4524,-1.4531,-1.4405,-1.4433,-1.6157,-1.6731,-1.6879,-1.8098,-1.8704,-1.907,-1.9925,-2.0411,-2.0634,-2.0488,-2.0604,-2.0874,-2.1334,-2.0827,-2.0343,-2.1076,-2.1229,-2.1201,-2.1318,-2.1897,-2.243,-2.2339,-2.244,-2.2515,-2.2253,-2.2215,-2.214,-2.1962,-2.1924,-2.1897,-2.1794,-2.222,-2.2456,-2.2155,-2.2483,-2.282,-2.299,-2.3254,-2.3486,-2.3593,-2.3863,-2.4059,-2.4108,-2.3963,-2.3891,-2.3891,-2.3697,-2.3781,-2.4156,-2.4108,-2.4264,-2.4683,-2.4683,-2.4683,-2.4683,-2.5205,-2.5557,-2.5767,-2.5767,-2.5511,-2.5123,-2.5324,-2.5581,-2.5814,-2.5767,-2.6217,-2.6968,-2.769,-2.8005,-2.8247,0.0,0.0,0.0,0.0,0.0,0.0,0.0,0.0,0.0,0.0,0.0,0.0,0.0,-2.4454,-2.3861,-2.3038,-2.2268,-2.1326,-2.0236,-1.9222,-1.8612,-1.8402,-1.8161,-1.7489,-1.6478,-1.709,-1.6886,-1.5786,-1.5594,-1.5387,-1.5137,-1.423,-1.3688,-1.3434,-1.2984,-1.2638,-1.2394,-1.2351,-1.2132,-1.1906,-1.2997,-1.3294,-1.3148,-1.3857,-1.3955,-1.3857,-1.5019,-1.5296,-1.5164,-1.5887,-1.6715,-1.731,-1.6462,-1.7383,-1.8683,-1.8261,-1.896,-1.9855,-1.9492,-1.9225,-1.8957,-1.8541,-1.827,-1.8359,-1.9173,-2.0012,-2.0768,-2.1413,-2.2113,-2.2478,-2.2065,-2.2027,-2.1962,-2.1832,-2.1794,-2.1794,-2.1794,-2.1593,-2.1441,-2.1431,-2.0932,-2.0855,-2.1499,-2.209,-2.2767,-2.3519,-2.3261,-2.335,-2.4047,-2.4072,-2.4084,-2.4084,-2.3891,-2.3708,-2.3514,-2.3331,-2.3195,-2.3069,-2.3069,-2.3069,-2.3069,-2.3095,-2.35,-2.4192,-2.4192,-2.4528,-2.504,-2.442,-2.454,-2.5076,-2.442,-2.4671,-2.5453,-2.6208,-2.7324,-2.8492,0.0,0.0,0.0,0.0,0.0,0.0,0.0,0.0,0.0,0.0,0.0,0.0,0.0,0.0,0.0,0.0,-2.2258,-2.1413,-2.045,-1.935,-1.866,-1.8612,-1.8201,-1.7489,-1.6437,-1.6739,-1.6255,-1.4845,-1.4768,-1.4524,-1.4146,-1.373,-1.3222,-1.2747,-1.2571,-1.2351,-1.21,-1.2272,-1.2266,-1.2132,-1.2528,-1.282,-1.3014,-1.313,-1.3392,-1.3646,0.0,-1.3499,-1.4055,-1.4866,-1.5357,-1.5606,-1.5756,-1.6134,-1.6437,-1.5928,-1.6421,-1.7155,-1.7277,-1.7617,-1.7957,-1.8069,-1.8037,-1.8078,-1.8367,-1.863,-1.8811,-1.8731,-1.8912,-1.914,-1.9307,-1.9356,-1.9522,-2.006,-2.0148,-2.0148,-2.0148,-2.0537,-2.0682,-2.043,-2.0731,-2.0885,-2.0663,-2.1088,0.0,-2.2365,-2.2289,-2.2317,-2.2569,-2.2456,-2.2381,-2.2381,-2.2193,-2.2306,-2.2756,-2.2708,-2.2868,-2.3202,-2.3202,-2.3202,-2.3202,-2.3202,-2.3313,-2.357,-2.3438,-2.35,-2.3694,-2.3463,-2.35,-2.3694,-2.3475,-2.3537,-2.3866,-2.4612,-2.5133,-2.5748,0.0,0.0,0.0,0.0,0.0,0.0,0.0,0.0,0.0,0.0,0.0,0.0,0.0,0.0,0.0,0.0,0.0,-2.1413,-2.045,-1.939,-1.8603,-1.8112,-1.7781,-1.6952,-1.5489,-1.5745,-1.5171,-1.3802,-1.3802,-1.3597,-1.3222,-1.293,-1.2412,-1.1757,-1.1757,-1.1585,-1.1327,-1.1628,-1.1542,-1.1284,-1.1757,-1.1918,-1.1955,-1.24,-1.279,0.0,-1.2186,-1.2229,-1.2741,-1.3317,-1.3902,-1.4448,-1.4518,-1.4601,-1.4699,-1.4699,-1.4991,-1.5365,-1.544,-1.5812,-1.6273,-1.665,-1.6642,-1.6764,-1.7383,-1.7432,-1.7302,-1.7302,-1.7253,-1.7253,-1.7504,-1.7553,-1.7715,-1.8278,-1.8367,-1.8487,-1.8807,-1.9204,-1.952,-1.9587,-2.001,-2.0196,-1.9932,-2.0157,-2.0547,-2.1088,-2.1328,-2.1492,-2.1492,-2.1578,-2.1617,-2.1617,-2.1397,-2.1512,-2.1959,-2.1959,-2.2187,-2.2553,-2.2553,-2.2553,-2.2553,-2.2478,-2.259,-2.2852,-2.267,-2.2734,-2.2995,-2.2697,-2.2734,-2.2957,-2.2697,-2.2734,-2.3069,-2.3537,-2.3697,-2.3906,0.0,0.0,0.0,0.0,0.0,0.0,0.0,0.0,0.0,0.0,0.0,0.0,0.0,0.0,0.0,0.0,0.0,0.0,-2.0353,-1.9529,-1.8465,-1.7164,-1.7041,-1.5992,-1.3789,-1.4132,-1.3802,-1.2662,-1.2662,-1.2534,-1.2363,-1.1909,-1.13,-1.0636,-1.0636,-1.0424,-1.0081,-1.0419,-1.012,-0.9388,-1.0679,-1.0722,-1.0159,-1.1714,-1.2235,-1.2015,-1.1757,-1.1542,-1.1365,-1.1327,-1.2473,-1.3711,-1.2699,-1.2778,-1.3451,-1.4287,-1.4538,-1.4496,-1.4041,-1.3957,-1.4006,-1.4265,-1.4181,-1.4468,-1.6075,-1.6157,-1.6116,-1.6927,-1.6968,-1.6805,-1.665,-1.6617,-1.6657,-1.6698,-1.6698,-1.6984,-1.7836,-1.7764,-1.7983,-1.8834,-1.8772,-1.8803,-1.9183,-1.9262,-1.9411,-1.9737,0.0,-2.0867,-2.0867,-2.1367,-2.1683,-2.1683,-2.154,-2.1397,-2.1205,-2.1205,-2.1205,-2.1167,-2.1205,-2.1205,-2.1167,-2.0984,-2.1359,-2.2025,-2.1852,-2.2172,-2.2809,-2.2059,-2.2172,-2.2809,-2.2021,-2.2209,-2.2883,-2.292,-2.292,-2.3047,0.0,0.0,0.0,0.0,0.0,0.0,0.0,0.0,0.0,0.0,0.0,0.0,0.0,0.0,0.0,0.0,0.0,0.0,-2.1451,-2.044,-1.9402,-1.8322,-1.7448,-1.6198,-1.4496,-1.4084,-1.3252,-1.1952,-1.1952,-1.1909,-1.1866,-1.157,-1.1305,-1.1127,-1.1127,-1.0862,-1.0463,-1.0549,-1.012,-0.9345,-0.9694,-1.025,-1.0977,-1.1241,-1.2057,-1.2833,-1.1225,-1.1402,-1.2229,-1.1542,-1.1843,-1.246,-1.1995,-1.186,-1.1897,-1.2106,-1.2571,-1.2948,-1.2826,-1.3173,-1.3512,-1.319,-1.3105,-1.3099,-1.3171,-1.3643,-1.407,-1.4099,-1.4615,-1.5213,-1.5636,-1.5718,-1.5925,-1.6576,-1.6698,-1.678,-1.6984,-1.6984,-1.7269,-1.8167,-1.8215,-1.8175,-1.8095,-1.8563,-1.8634,0.0,-1.9344,-2.0138,-2.0138,-2.0294,-2.0372,-2.0372,-2.0818,-2.1031,-2.0992,-2.1272,-2.1195,-2.076,-2.1195,-2.1195,-2.077,-2.1156,-2.1397,-2.1436,-2.1233,-2.1146,-2.1203,-2.0972,-2.1021,-2.1203,-2.0972,-2.1011,-2.127,-2.1869,-2.1728,-2.1308,0.0,0.0,0.0,0.0,0.0,0.0,0.0,0.0,0.0,0.0,0.0,0.0,0.0,0.0,0.0,0.0,0.0,0.0,0.0,-2.1058,-1.9816,-1.8718,-1.7723,-1.6281,-1.4413,-1.3873,-1.3052,-1.2029,-1.1662,-1.1576,-1.168,-1.1446,-1.1176,-1.0992,-1.0992,-1.0733,-1.0337,-1.0337,-0.9951,0.0,0.0,-1.0207,-1.0722,-1.1241,-1.2015,-1.2613,-1.123,-1.1316,-1.1972,-1.1241,-1.1424,-1.2,-1.1871,-1.1613,-1.1305,-1.1305,-1.1602,-1.1903,-1.1903,-1.2198,-1.2454,-1.2308,-1.2174,-1.2083,-1.2029,-1.2248,-1.2467,-1.2462,-1.3069,-1.376,-1.4132,-1.4559,-1.4985,-1.5477,-1.556,-1.5677,-1.609,-1.6124,-1.6453,-1.735,-1.7423,-1.7359,-1.7164,-1.7465,-1.7456,-1.687,-1.8479,-1.9529,-1.9638,-1.9786,-1.9904,-1.9904,-2.0265,-2.0586,-2.0905,-2.075,-2.0673,-2.076,-2.1069,-2.0905,-2.0313,-2.0876,-2.1041,-2.0886,0.0,-2.001,-2.0118,-1.9638,-1.9441,-1.9441,-1.9441,-1.9441,-1.9559,-2.0411,-2.0343,-1.9962,0.0,0.0,0.0,0.0,0.0,0.0,0.0,0.0,0.0,0.0,0.0,0.0,0.0,0.0,0.0,0.0,0.0,0.0,0.0,0.0,-2.0275,-1.9034,-1.8043,-1.6593,-1.4566,-1.3902,-1.323,-1.2484,-1.1837,-1.1581,-1.165,-1.1402,-1.1084,-1.0684,-1.0636,-1.0376,-0.9994,-0.9951,-0.9689,-0.9432,-1.0207,-1.0419,-1.0419,0.0,-1.21,-1.21,-1.1671,-1.1413,-1.1278,-1.0977,-1.1419,-1.2037,-1.1957,-1.1656,-1.1354,-1.1311,-1.1305,-1.1305,-1.1305,-1.1262,-1.1257,-1.1505,-1.1327,-1.1235,-1.1563,-1.1402,-1.1278,-1.1434,-1.2132,-1.2705,-1.2705,-1.3355,-1.3955,-1.4088,-1.4004,-1.4201,-1.511,-1.5235,-1.556,-1.6412,-1.6535,-1.646,-1.6263,-1.6353,-1.6312,-1.6015,-1.7651,-1.8754,-1.8975,-1.9402,-1.9668,-1.9786,-1.9786,-2.0109,-2.0741,-2.0031,-2.0001,-2.0634,-2.0741,-2.043,-1.9786,-2.0274,-2.0479,-2.0401,-1.9253,0.0,-1.9402,-1.8399,-1.7997,-1.7997,-1.7997,-1.7997,-1.8078,-1.8816,-1.8966,-1.8877,0.0,0.0,0.0,0.0,0.0,0.0,0.0,0.0,0.0,0.0,-3.405,-3.2174,0.0,0.0,0.0,0.0,0.0,0.0,0.0,0.0,0.0,-2.0951,-1.9289,-1.804,-1.726,-1.5591,-1.4097,-1.2918,-1.279,-1.2246,-1.137,-1.1327,-1.1262,-1.117,-1.0771,-1.0376,-0.9994,-0.9607,-0.9559,-0.9816,-0.9946,-1.089,-1.2186,-1.2057,0.0,0.0,-1.2619,-1.1972,-1.1413,-1.21,-1.232,-1.224,-1.1607,-1.1527,-1.157,-1.1348,-1.1305,-1.1305,-1.1305,-1.1041,-1.0727,-1.0766,-1.0511,-1.0164,-0.982,-1.0246,-1.0636,-1.0289,-1.1537,-1.2705,-1.2705,-1.2833,-1.3179,-1.3962,-1.344,-1.3264,-1.4208,-1.4334,-1.4664,-1.5519,-1.5643,-1.5602,-1.556,-1.6057,-1.6147,0.0,-1.6173,-1.6878,-1.7456,-1.8023,-1.8585,-1.9152,-1.9152,-1.945,-2.006,-1.9943,-1.9678,-1.935,-1.9835,-1.9756,-1.9192,-1.9766,-1.9913,-1.9717,-1.9204,0.0,-1.8816,-1.8238,-1.7997,-1.7997,-1.7997,-1.7997,-1.7997,-1.7989,-1.7948,-1.79,0.0,0.0,0.0,0.0,0.0,0.0,0.0,-3.7199,-3.6604,-3.5949,-3.4892,-3.3269,-3.0824,-2.9821,0.0,0.0,0.0,0.0,0.0,0.0,0.0,0.0,0.0,0.0,-1.8112,-1.7033,-1.5658,-1.3877,0.0,-1.3187,-1.2563,-1.2433,-1.2375,-1.2375,-1.188,-1.1488,-1.1154,-1.0717,-1.0587,-1.0679,-1.1154,-1.1886,-1.2705,0.0,0.0,0.0,-1.2833,-1.24,-1.21,-1.2448,-1.2534,-1.2491,-1.2026,-1.1693,-1.1483,-1.1483,-1.1397,-1.1305,-1.1305,-1.1127,-1.0906,-1.0679,-1.0463,-1.012,-0.9476,-0.9602,-0.9777,-0.9301,-1.0289,-1.1241,-1.1241,-1.1623,-1.2272,-1.3222,-1.3009,-1.3052,-1.3962,-1.4088,-1.425,-1.4664,-1.4699,-1.4699,-1.4699,-1.4992,-1.5075,-1.4741,-1.5242,-1.5858,-1.6501,-1.6591,-1.7041,-1.7934,-1.7853,-1.8327,-1.9411,-1.9094,-1.8944,-1.9002,-1.8838,-1.8678,-1.8474,-1.8678,-1.8957,-1.9222,-1.7868,0.0,-1.8376,-1.6772,-1.6494,-1.7009,-1.6755,-1.6632,-1.6673,-1.7066,-1.7058,-1.6813,0.0,0.0,0.0,0.0,0.0,0.0,0.0,-3.7074,-3.6447,-3.6322,-3.5629,-3.4343,-3.2214,-3.1135,-2.9738,0.0,0.0,0.0,0.0,0.0,0.0,0.0,0.0,0.0,0.0,0.0,0.0,-1.5475,-1.5098,0.0,0.0,0.0,0.0,0.0,-1.3184,-1.2838,-1.2388,-1.2279,-1.2151,0.0,0.0,-1.3082,0.0,0.0,0.0,0.0,0.0,-1.2705,-1.2662,-1.2534,-1.2534,-1.2619,-1.2491,-1.1983,-1.1483,-1.1656,-1.1527,-1.1305,-1.1305,-1.1219,-1.1084,-1.0814,-1.0679,-1.0419,-0.9602,-0.9432,-0.9301,-0.87,-0.9301,-0.9903,-0.9903,-1.0506,-1.137,-1.2528,-1.2534,-1.279,-1.3955,-1.4088,-1.4088,-1.4088,-1.4088,-1.4088,-1.4088,-1.4088,-1.4088,-1.4088,-1.4545,-1.5159,-1.5959,-1.5677,-1.5842,-1.6706,-1.6535,-1.7107,-1.8505,-1.7781,-1.7781,-1.8505,-1.7626,-1.7269,-1.7456,-1.7269,-1.7594,-1.8144,-1.6281,0.0,0.0,-1.522,-1.4817,-1.5707,-1.5333,-1.5173,-1.5291,-1.6057,-1.609,-1.5628,0.0,0.0,0.0,0.0,0.0,0.0,0.0,-3.7106,-3.7167,-3.7261,-3.6476,-3.5576,-3.464,-3.2506,-3.0855,0.0,0.0,0.0,0.0,0.0,0.0,0.0,0.0,0.0,0.0,0.0,0.0,-1.798,-1.7914,0.0,0.0,0.0,0.0,0.0,0.0,-1.3772,-1.2711,-1.3661,0.0,0.0,0.0,0.0,0.0,0.0,0.0,0.0,0.0,-1.2705,-1.2705,-1.2662,-1.2577,-1.2448,-1.2619,-1.2326,-1.1914,-1.1742,-1.1527,-1.1305,-1.1305,-1.0992,-1.0771,-1.1127,-1.0906,-1.0463,-1.0038,-0.9951,-0.9694,-0.8784,-0.9301,-0.9903,-0.9903,-0.999,-1.0593,-1.24,-1.1972,-1.2057,-1.387,-1.4088,-1.4088,-1.4088,-1.4088,-1.4088,-1.4088,-1.4088,-1.4088,-1.4088,-1.3948,-1.4482,-1.6008,-1.5835,-1.5703,-1.5827,-1.5636,-1.5966,-1.6903,-1.609,-1.609,-1.6903,-1.6049,-1.5643,-1.5643,-1.5643,-1.5677,-1.5684,-1.5061,0.0,0.0,-1.4272,-1.4068,-1.4566,-1.4524,-1.4482,-1.4566,-1.5082,-1.4817,-1.4174,0.0,0.0,0.0,0.0,0.0,0.0,-3.7501,-3.7284,-3.7285,-3.7866,-3.7101,-3.6305,-3.5623,-3.408,-3.2472,0.0,0.0,0.0,0.0,0.0,0.0,0.0,0.0,0.0,0.0,0.0,-2.0759,-1.9258,-1.9031,0.0,0.0,0.0,0.0,0.0,0.0,-1.6431,-1.5741,-1.6178,0.0,0.0,0.0,0.0,0.0,0.0,0.0,0.0,0.0,0.0,-1.362,-1.313,-1.279,-1.2577,-1.2662,-1.2491,-1.2203,-1.1957,-1.1699,-1.1527,-1.1354,-1.117,-1.1084,-1.1262,-1.117,-1.0824,-1.0168,-1.0207,-1.012,-0.9218,-0.9519,-0.9859,-0.9607,-0.9559,-0.9859,-1.0852,-1.1198,-1.1757,-1.3088,-1.3737,-1.4088,-1.4088,-1.4088,-1.4088,-1.4088,-1.4088,-1.4088,-1.4088,-1.3997,-1.4201,-1.4866,-1.4391,-1.4426,-1.5095,-1.4761,-1.5012,-1.5925,-1.556,-1.556,-1.5925,-1.5005,-1.4845,-1.5394,-1.4803,-1.4887,-1.5352,-1.4342,0.0,0.0,-1.3591,-1.3512,-1.4356,-1.3977,-1.3815,-1.3808,-1.4026,-1.3815,-1.3336,0.0,0.0,0.0,0.0,0.0,-3.6974,-3.7787,-3.7394,-3.7317,-3.8184,-3.7501,-3.6723,-3.6068,-3.5041,-3.3786,-3.225,0.0,0.0,0.0,0.0,0.0,0.0,0.0,0.0,0.0,0.0,-2.2027,-2.0893,-2.0304,-1.9728,0.0,0.0,-1.885,-1.8341,0.0,0.0,0.0,0.0,0.0,0.0,0.0,0.0,0.0,0.0,0.0,0.0,0.0,0.0,0.0,0.0,0.0,-1.3082,-1.3082,-1.2826,-1.2406,-1.208,-1.1871,-1.1656,-1.1348,-1.1305,-1.1305,-1.1305,-1.1305,-1.1089,-1.0342,-1.0381,-1.0376,-0.9646,-0.9781,-0.9864,-0.9393,-0.9305,-0.9519,-1.0207,-1.0947,-1.1863,-1.304,-1.3818,-1.4215,-1.4215,-1.4135,-1.4088,-1.4088,-1.4088,-1.4088,-1.4088,-1.4088,-1.4088,-1.4088,-1.3568,-1.3603,-1.4272,-1.3971,-1.4216,-1.497,-1.481,-1.481,-1.497,-1.4048,-1.3964,-1.4594,-1.3922,-1.3964,-1.4552,-1.3584,0.0,0.0,-1.2997,-1.2918,-1.3844,-1.3307,-1.3094,-1.3137,-1.3307,-1.3137,-1.2656,0.0,0.0,0.0,0.0,0.0,0.0,-3.774,-3.7394,-3.7317,-3.8184,-3.7589,-3.6814,-3.6085,-3.5139,-3.4528,-3.4298,0.0,0.0,0.0,0.0,0.0,0.0,0.0,0.0,0.0,0.0,-2.3599,-2.3184,-2.222,-2.1242,-2.0197,-2.0469,-1.9756,-1.8381,0.0,0.0,0.0,0.0,0.0,0.0,0.0,0.0,0.0,0.0,0.0,0.0,0.0,0.0,0.0,0.0,0.0,0.0,0.0,-1.3372,-1.2619,-1.2123,-1.1871,-1.1656,-1.1348,-1.1305,-1.1305,-1.1305,-1.1305,-1.1176,-1.0684,-1.0593,-1.0463,-1.0081,-0.9994,-0.9864,-0.9393,-0.9305,-0.9733,-1.1068,-1.1565,-1.243,-1.4248,-1.4472,-1.4516,-1.4516,-1.4262,-1.4088,-1.4088,-1.4088,-1.4088,-1.4088,-1.4088,0.0,-1.4088,-1.3822,-1.361,-1.3434,-1.3398,-1.3597,-1.3999,-1.3428,-1.3428,-1.3999,-1.3124,-1.2705,-1.2747,-1.2705,-1.2705,0.0,0.0,0.0,0.0,-1.2381,-1.2289,-1.2705,-1.2491,-1.2406,-1.2491,-1.3179,-1.2966,-1.2186,0.0,0.0,0.0,0.0,0.0,0.0,0.0,-3.7195,-3.7085,-3.7858,-3.7249,-3.6508,-3.5879,-3.5444,-3.5198,-3.5133,0.0,0.0,0.0,0.0,0.0,0.0,0.0,0.0,0.0,0.0,-2.4696,-2.4409,-2.3877,-2.3342,-2.2877,-2.2861,-2.2226,-2.1143,-2.2065,-2.1469,0.0,0.0,0.0,0.0,0.0,0.0,0.0,0.0,0.0,0.0,0.0,0.0,0.0,0.0,0.0,0.0,0.0,0.0,0.0,-1.2534,-1.2118,-1.1871,-1.1613,-1.144,-1.1305,-1.1305,-1.1305,-1.1176,-1.0722,-1.0857,-1.0954,-1.0511,-1.0689,-1.0651,-0.9864,-1.0246,-1.0686,-1.0661,-1.1805,-1.2981,-1.3753,-1.4461,-1.475,-1.4543,-1.4262,-1.4088,-1.4088,0.0,-1.4088,-1.4088,-1.3913,-1.3828,-1.3828,-1.3737,-1.361,-1.3398,-1.3264,-1.3179,-1.3124,-1.2918,-1.2918,-1.3124,-1.2833,-1.2705,-1.2705,-1.2705,-1.2705,0.0,0.0,0.0,0.0,-1.116,-1.103,-1.1241,-1.0852,-1.0679,-1.0722,-1.0939,-1.0458,-0.9671,0.0,0.0,0.0,0.0,0.0,0.0,0.0,-3.7403,-3.73,-3.7817,-3.7189,-3.6446,-3.5769,-3.5621,-3.5554,-3.5504,0.0,0.0,0.0,0.0,0.0,0.0,0.0,0.0,0.0,-2.6039,-2.5545,-2.5429,-2.4743,-2.4337,-2.4228,-2.3975,-2.3537,-2.2936,-2.3342,-2.2787,0.0,0.0,0.0,0.0,0.0,0.0,-2.0294,0.0,0.0,0.0,0.0,0.0,0.0,0.0,0.0,0.0,0.0,0.0,0.0,0.0,-1.2833,-1.2497,-1.1866,-1.157,-1.144,-1.1348,-1.1305,-1.1219,-1.0949,-1.1084,-1.1219,-1.0906,-1.1084,-1.1127,-1.0684,-1.0982,-1.1359,-1.1545,-1.2549,-1.3517,-1.4203,-1.4799,-1.4977,-1.4569,-1.4262,-1.4088,0.0,-1.4088,-1.4088,-1.4088,-1.3955,-1.3822,-1.3695,-1.3695,-1.3392,-1.279,-1.3137,-1.3137,-1.2705,-1.279,-1.279,-1.2705,-1.2705,-1.2705,-1.2705,-1.2705,-1.2705,0.0,0.0,0.0,0.0,-1.0241,-1.0115,-1.0419,-0.968,-0.9598,-0.9859,-0.9506,-0.8982,-0.8456,0.0,0.0,0.0,0.0,0.0,0.0,0.0,0.0,-3.7834,-3.7963,-3.7338,-3.6554,-3.5784,-3.5688,-3.5653,-3.5504,0.0,0.0,0.0,0.0,0.0,0.0,0.0,0.0,-2.8578,-2.7165,-2.638,-2.6321,-2.5216,-2.4648,-2.4624,-2.4181,-2.3927,-2.3891,-2.3734,-2.3514,-2.3257,-2.3095,-2.2894,-2.2692,-2.2483,-2.2285,0.0,0.0,0.0,0.0,0.0,0.0,0.0,0.0,0.0,0.0,0.0,0.0,0.0,0.0,0.0,0.0,0.0,-1.1828,-1.1656,-1.1397,-1.1348,-1.1305,-1.1305,-1.1305,0.0,-1.1305,-1.1305,-1.1392,-1.1634,-1.1553,-1.1901,-1.328,-1.3607,-1.4124,-1.5292,-1.5391,-1.5164,-1.4616,-1.4275,-1.4088,-1.4088,-1.4088,-1.4088,-1.4088,-1.4046,0.0,-1.3652,-1.3652,-1.3052,-1.1714,-1.2918,-1.3264,-1.2619,-1.2924,-1.2924,-1.2619,-1.2619,-1.2619,-1.2619,-1.2528,-1.2528,0.0,0.0,0.0,0.0,-0.9536,-0.9501,-0.9985,-0.8846,-0.8938,-0.9598,-0.8627,-0.8277,-0.8057,0.0,0.0,0.0,0.0,0.0,0.0,0.0,0.0,0.0,0.0,-3.71,-3.6368,-3.5636,-3.5554,-3.5522,0.0,0.0,0.0,0.0,0.0,0.0,0.0,0.0,0.0,-3.0012,-2.9651,-2.9167,-2.8538,-2.7597,-2.7064,-2.6909,-2.6035,-2.5312,-2.4755,-2.5158,-2.4898,-2.4072,-2.3316,-2.2835,-2.2601,-2.2462,-2.2237,0.0,0.0,0.0,0.0,-1.9982,-1.952,0.0,0.0,0.0,0.0,0.0,0.0,0.0,0.0,-1.5054,-1.4887,-1.4378,0.0,-1.1871,-1.1656,-1.1613,-1.157,0.0,-1.1305,-1.1305,-1.1305,-1.1305,-1.13,-1.137,-1.2082,-1.2865,-1.3491,-1.4358,-1.516,-1.5638,-1.5344,-1.5062,-1.4921,-1.4402,-1.4088,-1.4088,-1.4088,-1.3997,-1.3822,-1.3652,-1.3483,-1.3264,-1.3222,-1.2662,-1.1413,-1.1886,-1.2015,-1.1628,-1.2406,-1.2406,-1.1628,-1.1628,-1.1628,-1.158,-1.088,-1.0966,0.0,0.0,0.0,-0.879,-0.8185,-0.8013,-0.8101,-0.7621,-0.7577,-0.7665,-0.6681,-0.5888,-0.5139,0.0,0.0,0.0,0.0,0.0,0.0,0.0,0.0,0.0,0.0,0.0,0.0,0.0,0.0,0.0,0.0,0.0,0.0,0.0,0.0,0.0,0.0,0.0,-3.2084,-3.1401,-3.1105,-3.059,-2.9859,-2.9302,-2.8763,-2.8266,-2.7317,-2.6778,-2.6591,-2.6436,-2.6022,-2.5345,-2.4445,-2.3938,-2.3756,-2.3658,0.0,0.0,0.0,0.0,0.0,-2.0981,-2.0207,0.0,-1.8975,-1.8425,-1.791,0.0,0.0,0.0,0.0,-1.6008,-1.5884,-1.5338,-1.4294,-1.3336,-1.3124,-1.3082,-1.2997,-1.2613,-1.2314,-1.202,-1.1854,-1.1559,-1.1348,-1.1456,-1.2182,-1.2966,-1.3634,-1.4453,-1.502,-1.4982,-1.421,-1.3763,-1.4097,-1.3349,-1.3137,0.0,-1.3695,-1.3525,-1.3695,-1.361,-1.3222,-1.2491,-1.2448,-1.1714,-1.0062,-1.0582,-1.1015,-1.1284,-1.1359,-1.1359,-1.1278,-1.0842,-1.0669,-1.0621,-1.0139,-1.0183,0.0,0.0,0.0,-0.8137,-0.7445,-0.7316,-0.7445,-0.6874,-0.6561,-0.6334,-0.5403,-0.4472,-0.3583,0.0,0.0,0.0,0.0,0.0,0.0,0.0,0.0,0.0,0.0,0.0,0.0,0.0,0.0,0.0,0.0,0.0,0.0,0.0,0.0,0.0,0.0,0.0,-3.3467,-3.2753,-3.2193,-3.1535,-3.0782,-3.0463,-2.9917,-2.9097,-2.8247,-2.8084,-2.8427,-2.7511,-2.6909,-2.6557,-2.5802,-2.5382,-2.5111,-2.5111,0.0,0.0,0.0,0.0,0.0,0.0,0.0,0.0,-1.9756,-1.8984,-1.8112,-1.8031,0.0,0.0,0.0,0.0,0.0,-1.6008,-1.5545,-1.5164,-1.4824,-1.474,-1.4622,-1.4203,-1.3613,-1.3063,-1.2699,-1.2112,-1.1688,-1.1849,-1.2232,-1.2756,-1.3588,-1.4034,-1.4195,-1.3973,-1.29,-1.2434,-1.3209,-1.2256,0.0,-1.3743,-1.3045,-1.2747,-1.3392,0.0,-1.2747,-1.1714,-1.1494,-1.0539,-0.854,-0.9274,-1.0058,-1.0847,-1.0231,-1.0231,-1.0847,-1.0058,-0.9705,-0.9662,-0.9531,-0.9531,-0.9623,0.0,0.0,-0.7921,-0.7098,-0.6966,-0.7224,-0.6302,-0.5808,-0.5442,-0.4338,-0.3403,-0.2732,0.0,0.0,0.0,0.0,0.0,0.0,0.0,0.0,0.0,0.0,0.0,0.0,0.0,0.0,0.0,0.0,0.0,0.0,0.0,0.0,0.0,-3.5311,-3.5237,-3.4862,-3.4186,-3.3925,-3.321,-3.2031,-3.1248,-3.048,-2.967,-2.8949,-2.8487,-2.8247,-2.8084,-2.7478,-2.6591,-2.6467,-2.5963,-2.5276,-2.5147,0.0,0.0,0.0,0.0,0.0,0.0,0.0,0.0,-2.0099,-1.9253,-1.8763,-1.8201,0.0,0.0,0.0,0.0,0.0,-1.7627,-1.7033,-1.6198,-1.5206,-1.4956,-1.4873,-1.4664,-1.4203,-1.3831,-1.3753,-1.3379,-1.3009,-1.2833,-1.2792,-1.2788,-1.287,-1.2829,-1.3007,-1.3586,-1.3231,-1.3271,-1.4167,0.0,-1.2619,-1.2875,-1.2057,-1.1714,0.0,0.0,-1.1154,-1.137,-1.0626,-0.9666,-0.8544,-0.8627,-0.8803,-0.8934,-0.9579,-0.9579,-0.8934,-0.8803,-0.8715,-0.8671,-0.7881,-0.7969,-0.8671,0.0,-0.7058,-0.6966,-0.6609,-0.652,-0.6473,-0.5544,-0.5142,-0.4872,-0.2907,-0.2103,-0.1925,0.0,0.0,0.0,0.0,0.0,0.0,0.0,0.0,0.0,0.0,0.0,0.0,0.0,0.0,0.0,0.0,0.0,0.0,0.0,0.0,0.0,-3.5504,-3.5504,-3.529,-3.4897,-3.4414,-3.3711,-3.2669,-3.1902,-3.1147,-3.0312,-2.9931,-2.9484,-2.8935,-2.873,-2.8349,-2.7848,-2.7311,-2.6629,-2.5896,0.0,0.0,0.0,0.0,0.0,0.0,0.0,0.0,0.0,0.0,-1.9629,-1.8603,-1.8161,0.0,0.0,0.0,0.0,0.0,-1.7959,-1.7375,-1.655,-1.591,-1.5372,-1.4921,-1.4594,-1.3993,-1.3487,-1.3633,-1.3258,-1.2747,-1.2363,-1.2345,-1.2288,-1.2035,-1.1698,-1.1728,-1.2507,-1.1563,-1.1269,0.0,0.0,-1.0852,-1.1843,-1.1111,-1.0722,0.0,0.0,0.0,-0.9802,-0.9366,-0.8711,-0.7753,-0.7753,-0.7753,-0.7753,-0.8185,-0.8404,-0.85,-0.7973,-0.7753,-0.7709,-0.7316,-0.7316,-0.7709,0.0,-0.6656,-0.621,-0.6074,-0.563,-0.5006,-0.4563,-0.4026,-0.3266,-0.1746,-0.094,-0.0537,0.0,0.0,0.0,0.0,0.0,0.0,0.0,0.0,0.0,0.0,0.0,0.0,0.0,0.0,0.0,0.0,0.0,0.0,0.0,0.0,-3.534,-3.5489,-3.5439,-3.5359,-3.5261,-3.456,-3.3765,-3.3004,-3.2295,-3.1557,-3.0791,-3.0672,-3.0282,-2.9747,-2.9425,-2.9174,-2.8921,-2.813,-2.7317,-2.6517,0.0,0.0,0.0,0.0,0.0,0.0,0.0,0.0,0.0,0.0,0.0,0.0,0.0,0.0,0.0,-1.8,-1.7716,-1.7473,-1.7797,-1.7221,-1.6517,-1.6247,-1.5662,-1.5039,-1.4594,-1.3831,-1.3275,-1.3512,-1.3173,-1.2656,-1.1972,-1.169,-1.1402,-1.0849,-1.0452,-1.0455,-1.123,-1.0049,-0.9633,-1.1127,-0.9864,-0.9428,-1.0852,-1.0072,0.0,0.0,0.0,0.0,-0.8632,-0.8324,-0.7841,-0.7139,-0.7095,-0.7095,-0.7095,-0.7095,-0.7445,-0.8149,-0.7448,-0.7095,-0.7095,-0.7095,-0.7095,-0.7095,-0.6874,-0.6387,-0.5675,-0.5453,-0.4828,-0.3981,-0.3758,-0.291,-0.1747,-0.0852,-0.009,0.0627,0.0,0.0,0.0,0.0,0.0,0.0,0.0,0.0,0.0,0.0,0.0,0.0,0.0,0.0,0.0,0.0,0.0,0.0,0.0,0.0,-3.4863,-3.5474,-3.5326,-3.5294,-3.5472,-3.451,-3.3669,-3.2991,-3.2203,-3.1481,-3.0791,-3.0672,-3.0477,-3.0251,-3.0221,-2.9685,-2.8821,-2.8739,-2.8045,-2.6892,-2.6333,0.0,0.0,0.0,0.0,0.0,0.0,0.0,0.0,0.0,0.0,0.0,0.0,0.0,-1.8,-1.8,-1.7716,-1.74,-1.7432,-1.6804,-1.6057,-1.5602,-1.5545,-1.5489,-1.4824,-1.4287,-1.3915,-1.3957,-1.4132,-1.3886,-1.2577,-1.1219,-0.9987,-0.8979,-0.8869,-0.9176,-0.9954,0.0,-1.0178,-1.1198,-1.0419,-0.9859,-0.9985,0.0,0.0,0.0,0.0,0.0,-0.8846,-0.7797,-0.7183,-0.7095,-0.7095,-0.7095,-0.7095,-0.7095,-0.7139,-0.7183,-0.7139,-0.7095,-0.7095,-0.7095,-0.7095,-0.7051,-0.6163,-0.5764,-0.563,-0.4781,-0.4334,-0.42,-0.3312,-0.224,-0.1076,-0.0314,0.0403,0.1164,0.0,0.0,0.0,0.0,0.0,0.0,0.0,0.0,0.0,0.0,0.0,0.0,0.0,0.0,0.0,0.0,0.0,0.0,0.0,-3.3858,-3.4158,-3.4846,-3.4686,-3.4607,-3.4686,-3.3743,-3.3079,-3.2689,-3.1607,-3.0935,-3.0672,-3.0507,-3.0387,-3.0282,-3.0068,-2.9654,-2.9121,-2.9008,-2.8157,-2.6778,-2.6573,-2.5931,0.0,0.0,0.0,0.0,0.0,0.0,0.0,0.0,-2.0971,-1.9933,-1.8944,-1.8362,-1.8,-1.8,-1.7505,-1.7025,-1.731,-1.6533,-1.553,-1.5015,-1.476,-1.4482,-1.4141,-1.3506,-1.3068,-1.3316,-1.3593,-1.3421,-1.2339,-1.1006,-0.9737,-0.8752,-0.8621,-0.8943,-0.9781,-0.9428,-0.9432,-1.0332,-0.9646,-0.9087,0.0,0.0,0.0,0.0,0.0,0.0,-0.7797,-0.7356,-0.7095,-0.7095,-0.7095,-0.7095,-0.7095,-0.6517,-0.6207,-0.6251,-0.683,-0.6786,-0.6251,-0.683,-0.6786,-0.6207,-0.5852,-0.505,-0.3937,-0.358,-0.3042,-0.2462,-0.2106,-0.1435,-0.0628,-0.0359,0.0984,0.2723,0.0,0.0,0.0,0.0,0.0,0.0,0.0,0.0,0.0,0.0,0.0,0.0,0.0,0.0,0.0,0.0,0.0,0.0,-3.314,-3.3185,-3.3484,-3.4174,-3.3969,-3.3828,-3.3828,-3.2876,-3.2334,-3.2271,-3.1135,-3.0598,-3.0598,-3.0387,-3.0296,-3.0205,-2.9946,-2.9591,-2.923,-2.9149,-2.8333,-2.7129,-2.6947,-2.6173,0.0,0.0,0.0,0.0,0.0,0.0,0.0,0.0,-2.1009,-2.008,-1.8944,-1.8322,-1.8,-1.8,-1.7383,-1.6779,-1.7106,-1.6237,-1.517,-1.4545,-1.4136,-1.3763,-1.343,-1.275,-1.2153,-1.221,-1.2349,-1.2234,-1.166,-1.058,-0.9519,-0.874,-0.8612,-0.8828,-0.9384,-0.8955,-0.8828,-0.9432,-0.8955,-0.8612,0.0,0.0,0.0,0.0,0.0,0.0,0.0,-0.7007,-0.6962,-0.6653,-0.665,-0.665,-0.665,-0.5716,-0.5095,-0.4828,-0.5761,-0.5891,-0.5272,-0.6251,-0.616,-0.5228,-0.4961,-0.4071,-0.2867,-0.2553,-0.1883,-0.1076,-0.0807,-0.0448,0.0,0.0537,0.2055,0.3926,0.0,0.0,0.0,0.0,0.0,0.0,0.0,0.0,0.0,0.0,0.0,0.0,0.0,0.0,0.0,0.0,0.0,0.0,-3.2467,-3.2497,-3.2796,-3.3455,-3.3176,-3.2989,-3.2989,-3.2001,-3.1573,-3.1772,-3.0978,-3.0598,-3.0598,-3.0387,-3.0205,-3.008,-2.9884,-2.9543,-2.9099,-2.9099,-2.8716,-2.8046,-2.7443,-2.6676,-2.5826,0.0,0.0,0.0,0.0,0.0,0.0,0.0,-2.1659,-2.0836,-1.945,-1.8563,-1.8,-1.8,-1.7383,-1.6689,-1.6689,-1.5899,-1.4941,-1.4185,-1.3852,-1.3514,-1.2842,-1.2068,-1.1312,-1.0713,-1.045,-1.0349,-1.058,-0.9885,-0.9174,-0.87,-0.8612,-0.8612,-0.8612,-0.8612,-0.8612,-0.8612,-0.8612,0.0,0.0,0.0,0.0,0.0,0.0,0.0,0.0,-0.6738,-0.665,-0.5719,-0.5675,-0.5675,-0.5675,-0.4736,-0.3801,-0.2911,-0.3846,-0.4287,-0.4334,-0.5272,-0.5184,-0.4245,-0.3312,-0.2911,-0.2823,-0.1793,-0.0987,-0.0314,0.0403,0.0718,0.0941,0.2594,0.3705,0.459,0.0,0.0,0.0,0.0,0.0,0.0,0.0,0.0,0.0,0.0,0.0,0.0,0.0,0.0,0.0,0.0,0.0,0.0,-3.241,-3.1939,-3.1975,-3.2615,-3.2326,-3.2172,-3.2172,-3.1314,-3.0828,-3.0752,-3.0504,-3.0326,-3.0233,-3.0038,-2.9946,-2.9884,-2.9713,-2.9306,-2.8748,-2.8748,-2.8118,-2.71,-2.6918,-2.6208,-2.5264,0.0,0.0,0.0,0.0,0.0,0.0,0.0,0.0,0.0,-1.9015,-1.8313,-1.8,-1.8,-1.7635,-1.7017,-1.6214,-1.5545,-1.4759,-1.33,-1.2894,-1.2606,-1.1603,-1.1519,-1.1588,-1.1427,-1.0924,-1.0537,-1.0596,-1.0142,-0.9519,-0.874,-0.8612,-0.8612,-0.8612,-0.8612,-0.8612,-0.8612,-0.8612,0.0,0.0,0.0,0.0,0.0,0.0,0.0,0.0,-0.5628,-0.5672,-0.4736,-0.5361,-0.5361,-0.4734,-0.3801,-0.3178,-0.2911,-0.3178,-0.3312,-0.3357,-0.4289,-0.4202,-0.3312,-0.3001,-0.251,-0.1793,-0.1031,-0.0269,0.0403,0.0628,0.1433,0.255,0.3217,0.4858,0.6854,0.0,0.0,0.0,0.0,0.0,0.0,0.0,0.0,0.0,0.0,-3.4899,-3.478,0.0,0.0,0.0,0.0,0.0,0.0,0.0,-3.1567,-3.1471,-3.1886,-3.1588,-3.1376,-3.1331,-3.0861,-3.0492,-3.0219,-3.0266,-3.0235,-3.008,-2.9884,-2.9808,-2.9777,-2.9651,-2.9226,-2.8587,-2.8587,-2.7987,-2.7019,-2.7019,-2.6346,-2.5358,0.0,0.0,0.0,0.0,0.0,0.0,0.0,0.0,0.0,-1.8736,-1.8112,-1.8,-1.8,-1.7465,-1.6722,-1.591,-1.4956,-1.3824,-1.2512,-1.1976,-1.1526,-1.0627,-1.0709,-1.1037,-1.1101,-1.0729,-1.0295,-1.022,-1.0104,-0.9694,-0.874,-0.874,-0.8828,-0.8612,-0.8612,-0.8612,-0.8612,-0.8612,0.0,0.0,0.0,0.0,0.0,0.0,0.0,0.0,-0.4736,-0.4781,-0.4067,-0.4559,-0.4694,-0.4293,-0.3358,-0.2688,-0.2286,-0.2286,-0.2106,-0.1792,-0.3132,-0.3223,-0.2286,-0.2016,-0.1569,-0.0942,0.0045,0.0718,0.1211,0.1881,0.273,0.3757,0.4641,0.6192,0.7878,0.0,0.0,0.0,0.0,0.0,0.0,0.0,0.0,0.0,0.0,-3.4899,-3.4899,0.0,0.0,0.0,0.0,0.0,0.0,0.0,0.0,-3.1336,-3.1336,-3.0969,-3.0732,-3.0598,-3.0568,-3.0431,-3.008,-3.0219,-3.0205,-3.005,-2.9867,-2.9777,-2.9792,-2.9651,-2.9226,-2.8587,-2.8587,-2.8164,-2.749,-2.749,-2.6905,-2.5965,-2.5931,0.0,0.0,0.0,0.0,0.0,0.0,0.0,0.0,-1.8536,-1.8,-1.8,-1.8,-1.7131,-1.609,-1.5703,-1.4203,-1.2578,-1.1828,-1.1123,-1.0479,-1.0045,-0.9948,-1.0046,-1.025,-1.0133,-0.9916,-0.9695,-0.99,-0.9733,-0.8828,-0.8999,-0.913,-0.8608,-0.852,-0.852,-0.8524,0.0,0.0,0.0,0.0,0.0,0.0,0.0,0.0,0.0,-0.4024,-0.4067,-0.3534,-0.3623,-0.3805,-0.403,-0.3181,-0.2376,-0.166,-0.1391,-0.0807,-0.0045,-0.1792,-0.2106,-0.1166,-0.0583,-0.0269,-0.009,0.1256,0.1884,0.2198,0.3717,0.4389,0.4788,0.6517,0.7489,0.8053,0.0,0.0,0.0,0.0,0.0,0.0,0.0,0.0,0.0,0.0,0.0,0.0,0.0,0.0,0.0,0.0,0.0,0.0,0.0,0.0,-3.1736,-3.1608,-3.0999,-3.0642,-3.0598,-3.0447,-3.028,-3.008,-3.0142,-2.9974,-2.971,-2.9665,-2.9634,-2.9634,-2.9602,-2.9226,-2.8587,-2.8587,-2.8164,-2.749,-2.749,-2.7121,-2.6461,-2.607,-2.5252,0.0,0.0,0.0,0.0,0.0,0.0,0.0,-1.8425,-1.8,-1.8,-1.8,-1.7326,-1.6329,-1.5206,-1.4119,-1.291,-1.1513,-1.089,-1.0571,-1.0463,-1.0442,-1.041,-1.032,-1.0541,-1.0632,-1.0223,-1.0323,-1.0164,-0.9305,-0.9218,-0.8999,-0.8116,-0.7848,-0.7804,-0.794,0.0,0.0,0.0,0.0,0.0,0.0,0.0,0.0,-0.309,-0.3849,-0.3894,-0.309,-0.376,-0.3448,-0.2017,-0.1838,-0.2378,0.0,-0.1391,-0.009,0.0314,-0.0134,-0.009,0.0269,0.0403,0.0807,0.1345,0.166,0.2555,0.3807,0.4164,0.5186,0.6561,0.718,0.8061,0.9034,0.0,0.0,0.0,0.0,0.0,0.0,0.0,0.0,0.0,0.0,0.0,0.0,0.0,0.0,0.0,0.0,0.0,0.0,0.0,0.0,-3.1664,-3.1175,-3.0703,-3.0447,-3.0447,-3.0296,-3.0127,-2.9974,-2.9974,-2.9837,-2.9602,-2.9602,-2.9602,-2.9571,-2.9415,-2.9067,-2.8587,-2.8438,-2.8033,-2.749,-2.7436,-2.7134,-2.6645,-2.622,-2.5358,-2.4348,-2.3801,0.0,0.0,0.0,0.0,0.0,0.0,0.0,-1.8,-1.8,-1.7082,-1.5876,-1.4956,-1.3747,-1.2468,-1.1293,-1.081,-1.0597,-1.0597,-1.0683,-1.0767,-1.0649,-1.0816,-1.0894,-1.0491,-1.0694,-1.0646,-0.9781,-0.9428,-0.8942,-0.8113,-0.7533,-0.7136,-0.7139,0.0,0.0,0.0,0.0,0.0,0.0,0.0,-0.3626,-0.3272,-0.3047,-0.2822,-0.2552,-0.2552,-0.2194,-0.1389,-0.1389,-0.1704,-0.2243,-0.0718,0.0359,0.1076,0.0718,0.0583,0.0762,0.1567,0.2104,0.2552,0.3357,0.416,0.501,0.5453,0.6251,0.7183,0.7804,0.8468,0.913,0.0,0.0,0.0,0.0,0.0,0.0,0.0,0.0,0.0,0.0,0.0,0.0,0.0,0.0,0.0,0.0,0.0,0.0,0.0,0.0,0.0,-3.0628,-3.0417,-3.0282,-3.0282,-3.0127,-2.9974,-2.9808,-2.9777,-2.9713,-2.9602,-2.9602,-2.9571,-2.9509,-2.9226,-2.8876,-2.8503,-2.821,-2.7868,-2.749,-2.7369,-2.7134,-2.6782,-2.6405,-2.5604,-2.46,-2.3875,-2.3139,-2.2381,-2.128,0.0,0.0,0.0,0.0,-1.8161,-1.8031,-1.6878,-1.5511,-1.4914,-1.3372,-1.1815,-1.118,-1.0902,-1.0715,-1.0715,-1.0907,-1.1005,-1.0831,-1.0921,-1.0932,-1.0557,-1.0819,-1.0738,-0.9772,-0.924,-0.8711,-0.7977,-0.7136,-0.6561,-0.6387,0.0,0.0,0.0,0.0,0.0,0.0,0.0,-0.3315,-0.3721,-0.242,-0.1882,-0.2329,-0.1344,-0.0941,-0.1164,-0.1164,-0.0672,0.0224,0.0269,0.0852,0.1839,0.1256,0.1031,0.1076,0.2506,0.3221,0.3487,0.4872,0.563,0.603,0.6786,0.7187,0.7452,0.83,0.874,0.8911,0.0,0.0,0.0,0.0,0.0,0.0,0.0,0.0,0.0,0.0,-3.4899,-3.4899,0.0,0.0,0.0,0.0,0.0,0.0,-3.4358,0.0,0.0,-3.0657,-3.0417,-3.0282,-3.0282,-3.0007,-2.9822,-2.9808,-2.9682,-2.9634,-2.9602,-2.9602,-2.9446,-2.9162,-2.9131,-2.8748,-2.8145,-2.8112,-2.7868,-2.749,-2.7503,-2.7423,-2.7323,-2.662,-2.6161,-2.5662,-2.4154,-2.3375,-2.2861,-2.1385,-2.0828,0.0,0.0,0.0,-1.8754,-1.8152,-1.7286,-1.6288,-1.5247,-1.3372,-1.165,-1.1354,-1.1236,-1.1214,-1.1214,-1.1236,-1.1042,-1.0207,-1.0692,-1.1004,-1.0159,-1.0033,-0.9637,-0.8317,-0.8049,-0.7658,-0.6782,-0.6163,-0.5899,-0.6127,0.0,0.0,0.0,0.0,0.0,0.0,-0.4253,-0.4119,-0.421,-0.327,-0.2732,-0.2822,-0.1836,-0.094,-0.0179,-0.0179,0.0269,0.1211,0.1436,0.1749,0.2154,0.2243,0.2243,0.2289,0.2738,0.3408,0.4164,0.4387,0.5453,0.6918,0.7051,0.7632,0.8432,0.8568,0.874,0.8999,0.0,0.0,0.0,0.0,0.0,0.0,0.0,0.0,0.0,0.0,0.0,-3.4899,0.0,0.0,0.0,-3.4787,-3.4804,-3.4391,-3.3459,-3.2799,-3.1905,-3.0657,-3.0341,-3.0189,-3.0189,-2.9867,-2.9682,-2.9682,-2.9634,-2.9401,-2.898,-2.9212,-2.9226,-2.9067,-2.8716,-2.8535,-2.8545,-2.8344,-2.8176,-2.8007,-2.7871,-2.7722,-2.7423,-2.6918,-2.638,-2.5755,-2.4492,-2.3632,-2.2931,-2.1787,-2.1175,-2.075,-1.9805,0.0,0.0,0.0,-1.7367,-1.6322,-1.458,-1.2912,-1.1656,-1.1348,-1.1305,-1.1176,-1.0646,-1.0516,-1.0255,-0.9288,-0.9462,-0.9593,-0.92,-0.9113,-0.8894,-0.8277,-0.7749,-0.7221,-0.6691,-0.5988,-0.5458,-0.5327,0.0,0.0,0.0,0.0,0.0,0.0,-0.3807,-0.3494,-0.3494,-0.2105,-0.1254,-0.1254,-0.0358,0.0358,0.0762,0.0762,0.0987,0.1391,0.1525,0.1705,0.1974,0.2243,0.2469,0.2739,0.3408,0.421,0.5142,0.563,0.6697,0.7944,0.7944,0.8208,0.8652,0.9126,0.9388,0.9598,0.0,0.0,0.0,0.0,0.0,0.0,0.0,0.0,0.0,0.0,0.0,0.0,0.0,0.0,0.0,0.0,-3.4691,-3.4127,-3.2821,-3.2567,-3.1975,-3.0896,-3.0341,-3.008,-3.008,-2.9772,-2.9602,-2.9602,-2.9401,-2.9044,-2.8492,-2.8663,-2.8823,-2.8901,-2.8477,-2.8578,-2.8974,-2.8746,-2.8643,-2.8608,-2.8295,-2.8071,-2.7887,-2.7267,-2.6813,-2.6288,-2.5028,-2.4059,-2.3265,-2.2289,-2.1606,-2.1021,-2.0343,-1.9726,0.0,0.0,0.0,-1.5992,-1.4287,-1.2826,-1.1699,-1.144,-1.1176,-1.0781,-1.0077,-0.9728,-0.9288,-0.8324,-0.8149,-0.8061,-0.7841,-0.7973,-0.8061,-0.7841,-0.7183,-0.67,-0.6564,-0.5858,-0.5282,-0.4928,0.0,0.0,0.0,0.0,0.0,0.0,-0.291,-0.2508,-0.2508,-0.0896,0.0,0.0,0.0897,0.1391,0.1391,0.1391,0.1391,0.1391,0.1391,0.1704,0.2286,0.2466,0.2959,0.3631,0.4121,0.4832,0.5764,0.6697,0.7676,0.8612,0.8612,0.8612,0.8696,0.9559,0.9941,1.0197,0.0,0.0,0.0,0.0,0.0,0.0,0.0,0.0,0.0,0.0,0.0,0.0,-3.4899,-3.4899,-3.4851,-3.4715,-3.4691,-3.4317,-3.3417,-3.2761,-3.2104,-3.148,-3.0568,0.0,-3.008,-2.9772,-2.9602,-2.9602,-2.8903,-2.8524,-2.8505,-2.8007,-2.8019,-2.8436,-2.873,-2.9006,-2.9271,-2.9271,-2.9235,-2.92,-2.8567,-2.8662,-2.9047,-2.769,-2.7627,-2.798,-2.5752,-2.4803,-2.4385,-2.2868,-2.2101,-2.1645,-2.1059,-2.0382,-1.9708,0.0,0.0,0.0,-1.5005,-1.3464,-1.1957,-1.1742,-1.0824,-0.9946,-0.9903,-0.92,-0.8324,-0.736,-0.7183,-0.6922,-0.5997,-0.6567,-0.6877,-0.5997,-0.5822,-0.5777,-0.5777,-0.5552,-0.5371,-0.5371,0.0,0.0,0.0,0.0,0.0,0.0,-0.1522,-0.1477,-0.1477,-0.0537,0.0,0.0,0.0897,0.1391,0.1391,0.1391,0.1391,0.1391,0.1391,0.2151,0.3489,0.3534,0.4247,0.5497,0.4654,0.4832,0.5764,0.6697,0.7676,0.8612,0.8612,0.8612,0.8696,0.9559,1.0067,1.0524,0.0,0.0,0.0,0.0,0.0,0.0,0.0,0.0,0.0,0.0,0.0,0.0,0.0,-3.4643,-3.4594,-3.4448,-3.4374,-3.4018,-3.3313,-3.3039,-3.2489,-3.1537,-3.0984,-3.0493,-3.0111,-2.9772,-2.9602,-2.9602,-2.9219,-2.8792,-2.8358,-2.8119,-2.8272,-2.8786,-2.8724,-2.9106,-2.9823,-2.9823,-2.9823,-2.9751,-2.8784,-2.8692,-2.8977,-2.7737,-2.7521,-2.7631,-2.5781,-2.4941,-2.448,-2.2905,-2.2289,-2.2101,-2.1471,-2.0644,-1.9708,-1.8665,-1.696,-1.5345,-1.5088,-1.3542,-1.1823,-1.0992,-1.0342,-0.9593,-0.8368,-0.7841,-0.7316,-0.6393,-0.6216,-0.5905,-0.4968,-0.5549,-0.6086,-0.5733,-0.5196,-0.479,-0.479,-0.4208,-0.3715,-0.3582,0.0,0.0,0.0,0.0,0.0,0.0,0.0,-0.0672,-0.0493,0.0403,0.0897,0.0897,0.1211,0.1391,0.1391,0.1391,0.1391,0.1391,0.2062,0.2688,0.3358,0.4156,0.4868,0.5539,0.5941,0.6299,0.6609,0.6962,0.7676,0.8612,0.8612,0.8612,0.874,0.9777,1.0202,1.0582,0.0,0.0,0.0,0.0,0.0,0.0,0.0,0.0,0.0,-3.4715,0.0,0.0,0.0,0.0,-3.4448,-3.4325,-3.4176,-3.3882,-3.3413,-3.3108,-3.2501,-3.1623,-3.0999,-3.0478,-3.0005,-2.9727,-2.9715,-2.9912,-2.9271,-2.8815,-2.8495,-2.8108,-2.8164,-2.8561,-2.8787,-2.9446,-3.0388,-3.0388,-3.0388,-3.0301,-2.8999,-2.8913,-2.94,-2.7953,-2.7742,-2.8012,-2.6153,-2.5211,-2.4616,-2.2959,-2.2327,-2.2138,-2.1749,-2.0808,-1.9708,-1.8625,-1.7164,-1.5718,-1.5255,-1.388,-1.232,-1.1289,-1.0289,-0.9244,-0.7973,-0.7139,-0.6438,-0.5822,-0.5688,-0.5419,-0.4478,-0.479,-0.5104,-0.479,-0.4253,-0.3851,-0.3851,-0.3314,-0.2822,-0.2643,0.0,0.0,0.0,0.0,0.0,0.0,0.0,0.0,0.0359,0.0942,0.1345,0.1391,0.1391,0.1391,0.1391,0.1391,0.1569,0.1928,0.2598,0.3358,0.4204,0.5087,0.5797,0.6378,0.7228,0.7408,0.7139,0.7452,0.7988,0.8612,0.8612,0.8612,0.8784,1.0246,1.0804,1.1187,0.0,0.0,0.0,0.0,0.0,0.0,0.0,0.0,-3.4851,-3.4707,0.0,0.0,0.0,0.0,0.0,-3.43,-3.4176,-3.4,-3.372,-3.2915,-3.2216,-3.1722,-3.0673,-3.0036,-2.9837,-2.971,-2.994,-3.0526,-2.9067,-2.8569,-2.8915,-2.791,-2.7523,-2.7755,-2.886,-2.996,-3.0949,-3.0986,-3.0986,-3.0823,-2.9108,-2.9316,-3.0482,-2.8376,-2.8397,-2.9171,-2.6895,-2.5692,-2.4897,-2.3068,-2.2138,-2.1807,-2.1769,-2.0934,-1.9786,-1.9192,-1.7934,-1.6535,0.0,0.0,0.0,-1.2571,-1.0626,-0.8934,-0.889,-0.7224,-0.5733,-0.5688,-0.5688,-0.5419,-0.4478,-0.4297,-0.3941,-0.3001,-0.2867,-0.2867,-0.2867,-0.2822,-0.2823,-0.2823,0.0,0.0,0.0,0.0,0.0,0.0,0.0718,0.0807,0.1076,0.1121,0.1211,0.1391,0.1391,0.1391,0.1391,0.1391,0.1883,0.2911,0.2913,0.4069,0.6113,0.6328,0.7082,0.8201,0.8472,0.8028,0.7228,0.8208,0.8612,0.8612,0.8612,0.8656,0.8867,1.0966,1.1815,1.2285,0.0,0.0,0.0,0.0,0.0,0.0,-3.4756,-3.4667,-3.4546,0.0,0.0,0.0,-3.4226,-3.4226,-3.4201,-3.4151,-3.4126,-3.4,-3.372,-3.3166,-3.2473,-3.1736,-3.0955,-3.0529,-3.0534,-3.0326,-3.0586,-3.1218,-3.0389,-2.981,-2.9473,-2.8588,-2.8242,-2.8282,-2.8466,-2.8949,-2.9678,-3.0621,-3.0621,-2.9986,-2.9238,-2.9457,-3.0088,-2.84,-2.8062,-2.8248,-2.6455,-2.538,-2.4679,-2.3626,-2.2815,-2.2101,-2.1367,-2.0905,-2.043,-1.9311,-1.8247,-1.7139,-1.576,0.0,0.0,0.0,0.0,0.0,-0.8189,-0.7268,-0.6523,-0.5822,-0.5688,-0.5419,-0.4478,-0.3762,-0.2956,-0.1973,-0.1793,-0.1793,-0.1793,-0.1211,-0.0808,-0.0808,0.0,0.0,0.0,0.0,0.0,0.0,0.0628,0.0807,0.1076,0.1256,0.1345,0.1391,0.1391,0.1391,0.1391,0.1391,0.1883,0.2911,0.3578,0.469,0.6113,0.6874,0.7496,0.7984,0.8204,0.8157,0.7933,0.8388,0.8612,0.8652,0.9301,0.9559,0.9728,1.1322,1.1966,1.2217,0.0,0.0,0.0,0.0,0.0,-3.4691,-3.4691,-3.4594,-3.4448,0.0,0.0,0.0,-3.3949,-3.3924,-3.3873,-3.3787,-3.3873,-3.3771,-3.3398,-3.2911,-3.2361,-3.1795,-3.1128,-3.0833,-3.1086,-3.097,-3.1166,-3.1648,-3.069,-3.003,-2.968,-2.8594,-2.8018,-2.795,-2.8139,-2.8247,-2.8395,-2.9678,-3.0075,-2.9742,-2.8794,-2.9042,-2.978,-2.8239,-2.7933,-2.8102,-2.6417,-2.5655,-2.5218,-2.3833,-2.2927,-2.2289,-2.153,-2.1098,-2.0702,-1.9687,-1.8856,-1.7917,-1.637,-1.5171,-1.4077,-1.2626,0.0,0.0,-0.8571,-0.7702,-0.6962,0.0,-0.5688,-0.5419,-0.4478,-0.3537,-0.2553,-0.1569,-0.1077,-0.0808,-0.0808,-0.0359,0.0,0.0,0.0,0.0,0.0,0.0,0.0045,0.0224,0.0448,0.0718,0.1076,0.13,0.1391,0.1391,0.1793,0.2017,0.2017,0.2418,0.3087,0.4071,0.4603,0.5447,0.6558,0.719,0.7595,0.7768,0.8069,0.8201,0.8201,0.8476,0.8612,0.8696,0.9559,0.9903,1.0115,1.1789,1.2479,1.2778,0.0,0.0,-3.4875,-3.4875,-3.4739,-3.4659,-3.4659,-3.4546,-3.4423,0.0,-3.4275,-3.4126,-3.3745,-3.3774,-3.3692,-3.3446,-3.3693,-3.3646,-3.3158,-3.2555,-3.216,-3.203,-3.1283,-3.11,-3.1583,-3.1597,-3.171,-3.1903,-3.055,-2.9817,-2.9665,-2.8223,-2.7452,-2.7231,-2.7817,-2.7736,-2.7272,-2.8422,-2.925,-2.9678,-2.8239,-2.8438,-2.9433,-2.8079,-2.792,-2.8286,-2.664,-2.6144,-2.5901,-2.3716,-2.2777,-2.2402,-2.1987,-2.1454,-2.0857,-2.0226,-1.9569,-1.8785,-1.7229,-1.6206,-1.5304,-1.4258,-1.2632,0.0,-0.9561,-0.844,-0.7312,0.0,-0.5733,-0.5463,-0.4612,-0.3583,-0.2598,-0.1704,-0.0673,0.0,0.0,0.0,0.0,0.0,0.0,0.0,0.0,0.0,0.0,0.0,0.0359,0.0807,0.1389,0.1569,0.1704,0.1704,0.2598,0.3045,0.3045,0.3888,0.4781,0.5719,0.5719,0.6207,0.7143,0.737,0.7462,0.7507,0.794,0.8201,0.8328,0.8604,0.874,0.8828,0.9733,1.012,1.0458,1.2419,1.3317,1.3704,0.0,-3.4739,-3.4691,-3.4594,-3.4472,-3.4374,-3.4374,-3.4275,-3.4176,-3.4151,-3.4151,-3.4025,-3.372,-3.418,-3.4399,-3.413,-3.4652,-3.4841,-3.4532,-3.3648,-3.3035,-3.2799,-3.1861,-3.1631,-3.2216,-3.2216,-3.2339,-3.2524,-3.1439,-3.0478,-2.9665,-2.8593,-2.7736,-2.719,-2.7353,-2.7301,-2.7231,-2.7464,-2.7938,-2.8566,-2.8554,-2.8633,-2.8657,-2.8059,-2.7858,-2.7755,-2.6761,-2.593,-2.5028,-2.3494,-2.2964,-2.2815,-2.2402,-2.1987,-2.1492,-2.0905,-2.0226,-1.9392,-1.79,-1.6976,-1.6041,-1.442,-1.3571,0.0,-1.0091,-0.9056,-0.8145,0.0,-0.5863,-0.5644,-0.5466,-0.403,-0.2822,-0.2644,-0.1122,0.0,0.0,0.0,0.0,0.0,0.0,0.0,0.0,0.0,0.0,0.0,0.0941,0.2059,0.3267,0.3401,0.3489,0.371,0.3933,0.4022,0.4022,0.42,0.4781,0.5719,0.5719,0.6299,0.7415,0.7234,0.7279,0.7507,0.7591,0.8157,0.9017,0.9283,0.9506,0.9728,1.0679,1.1499,1.2314,1.3626,1.4265,1.4524,-3.4618,-3.4594,-3.457,-3.4521,-3.4399,-3.43,-3.43,-3.4509,-3.4635,-3.4635,-3.4959,-3.5045,-3.4606,-3.4843,-3.4869,-3.4438,-3.4836,-3.4995,-3.4723,-3.3864,-3.3389,-3.3448,-3.2472,-3.223,-3.2848,-3.266,-3.259,-3.2704,-3.1489,-3.0481,-2.9665,-2.8673,-2.7817,-2.719,-2.719,-2.719,-2.719,-2.719,-2.7383,-2.7696,-2.7938,-2.8139,-2.8275,-2.7495,-2.7144,-2.6963,-2.6026,-2.5217,-2.4503,-2.3813,-2.3335,-2.2927,-2.2515,-2.2101,-2.1693,-2.1098,-2.0421,-1.9659,-1.8647,-1.7553,-1.637,-1.5047,-1.4252,0.0,0.0,-0.9753,-0.8798,-0.7136,-0.6305,-0.5863,-0.5733,-0.4164,-0.2911,-0.2911,-0.1256,0.0,0.0,0.0,0.0,0.0,0.0,0.0,0.0,0.0404,0.0942,0.1569,0.2149,0.2907,0.3848,0.3894,0.4026,0.4287,0.4736,0.5003,0.5003,0.5447,0.5935,0.6384,0.6384,0.6697,0.7279,0.7143,0.7187,0.7323,0.7591,0.8285,0.9231,0.9589,1.0371,1.1327,1.18,1.2272,1.2833,1.3971,1.4524,1.4734,-3.4456,-3.4358,-3.4316,-3.4413,-3.4253,-3.4133,-3.4278,-3.481,-3.5275,-3.5396,-3.5765,-3.5822,-3.5307,-3.5206,-3.5025,-3.4571,-3.4841,-3.5007,-3.489,-3.4136,-3.3802,-3.408,-3.3116,-3.2806,-3.3276,-3.298,-3.2775,-3.2704,-3.1355,-3.038,-2.9665,-2.8673,-2.7817,-2.719,-2.719,-2.719,-2.719,-2.719,-2.719,-2.719,-2.719,-2.7505,-2.7879,-2.6896,-2.652,-2.6352,-2.5317,-2.4694,-2.437,-2.437,-2.3849,-2.315,-2.2804,-2.2429,-2.2025,-2.129,-2.0576,-1.9904,-1.9341,-1.8086,-1.6747,-1.5884,-1.5088,-1.3944,0.0,0.0,0.0,-0.8229,-0.7092,-0.6305,-0.6086,0.0,0.0,-0.2913,0.0,0.0,0.0,0.0,0.0,0.0269,0.0,0.0,0.0,0.1256,0.2151,0.3309,0.3398,0.3667,0.4295,0.4338,0.4516,0.4779,0.5539,0.5985,0.5985,0.6738,0.7095,0.7095,0.7095,0.7095,0.7095,0.7095,0.7139,0.7187,0.7632,0.8372,0.9318,0.9893,1.1149,1.2705,1.2705,1.2833,1.313,1.4055,1.4566,1.4824,-3.4314,-3.3901,-3.3676,-3.4143,-3.3775,-3.3599,-3.4204,-3.4861,-3.5514,-3.6093,-3.5577,-3.5046,-3.4718,-3.4531,-3.4495,-3.465,-3.5256,-3.5793,-3.623,-3.5287,-3.4765,-3.4791,-3.3774,-3.322,-3.329,-3.3255,-3.3051,-3.2704,-3.1636,-3.0632,-2.9665,-2.8673,-2.7817,-2.719,-2.719,-2.719,-2.719,-2.719,-2.719,-2.719,-2.719,-2.7272,-2.7255,-2.6697,-2.652,-2.638,-2.5347,-2.4957,-2.4909,0.0,-2.4527,-2.3995,-2.3731,-2.3522,-2.3187,-2.2025,-2.1116,-2.0353,-1.9894,-1.8847,-1.7619,-1.678,-1.6453,-1.5696,-1.3093,0.0,-1.1487,-0.9705,0.0,-0.7312,-0.7312,0.0,0.0,0.0,0.0,0.0,-0.0135,0.0,0.0314,0.1122,0.1256,0.0,0.0,0.2689,0.3135,0.4119,0.4164,0.4654,0.5769,0.6033,0.6254,0.6523,0.6789,0.6962,0.6962,0.7051,0.7095,0.7095,0.7095,0.7095,0.7095,0.7095,0.7231,0.7459,0.7507,0.8328,0.9623,1.0529,1.1612,1.2705,1.2705,1.3336,1.4223,1.4356,1.4699,1.5048,-3.4335,-3.4065,-3.3983,-3.4237,-3.4054,-3.3973,-3.4264,-3.4854,-3.5506,-3.6117,-3.615,-3.5854,-3.5124,-3.5538,-3.5581,-3.4867,-3.5362,-3.5784,-3.6022,-3.5041,-3.4576,-3.489,-3.3874,-3.329,-3.329,-3.3086,-3.2966,-3.3051,-3.1969,-3.0945,-3.0024,-2.916,-2.8167,-2.719,-2.719,-2.719,-2.719,-2.719,-2.719,-2.7167,-2.6898,-2.6783,-2.6737,-2.6221,-2.5673,-2.5121,-2.469,-2.4539,-2.4539,0.0,-2.4068,0.0,0.0,-2.3165,-2.2515,-2.2214,-2.1471,-2.0605,-2.006,-1.9253,0.0,0.0,0.0,0.0,-1.4622,0.0,-1.2273,0.0,0.0,0.0,0.0,0.0,0.0,0.0,-0.2419,0.0,0.0,0.0,0.0359,0.0,0.0,0.0,0.0,0.0,0.0,0.0,0.5104,0.5416,0.6083,0.6302,0.652,0.6795,0.701,0.7095,0.7095,0.7095,0.7095,0.7095,0.7095,0.7095,0.7095,0.7095,0.7234,0.7507,0.768,0.8763,1.0443,1.0966,1.2095,1.3525,1.3639,1.3971,1.444,1.4699,1.4915,1.5131,-3.4359,-3.4138,-3.4105,-3.4272,-3.4167,-3.4167,-3.4455,-3.4973,-3.5507,-3.5965,-3.6213,-3.604,-3.5255,-3.564,-3.5608,-3.4743,-3.5055,-3.5317,-3.5479,-3.461,-3.4274,-3.4643,-3.3805,-3.329,-3.329,-3.3016,-3.2931,-3.3136,-3.2214,-3.1182,-3.0126,-2.942,-2.8422,-2.719,-2.719,-2.719,-2.719,-2.6921,-2.676,-2.6601,-2.6279,-2.6092,-2.6042,-2.5635,-2.4958,-2.42,-2.42,-2.4127,-2.408,-2.4334,-2.3922,0.0,-2.3728,-2.3176,-2.244,-2.2402,-2.1624,-2.0692,-2.0294,0.0,0.0,0.0,0.0,0.0,0.0,0.0,0.0,0.0,0.0,0.0,0.0,0.0,-0.6101,-0.4959,0.0,-0.2106,0.0,-0.0808,0.0,0.0,0.0,0.0,0.0,0.0,0.0,0.5599,0.5688,0.5777,0.5997,0.6213,0.6435,0.6704,0.6922,0.7054,0.7095,0.7095,0.7095,0.7095,0.7095,0.7095,0.7095,0.7095,0.7275,0.7639,0.8069,0.9196,1.075,1.1408,1.2528,1.3857,1.4314,1.4524,1.4608,1.4957,1.5131,1.5215,-3.4431,-3.3827,-3.3603,-3.42,-3.3885,-3.3878,-3.4928,-3.5275,-3.5516,-3.5775,-3.5322,-3.4876,-3.4662,-3.3894,-3.3612,-3.407,-3.4138,-3.4375,-3.4876,-3.4409,-3.4104,-3.4104,-3.3612,-3.329,-3.329,-3.329,-3.3086,-3.2739,-3.2309,-3.1257,-2.9704,-2.9277,-2.8422,-2.719,-2.719,-2.719,-2.7138,-2.6216,-2.5609,-2.5275,-2.5182,-2.5049,-2.4958,0.0,-2.4625,-2.42,-2.42,0.0,0.0,-2.4659,-2.4599,0.0,0.0,0.0,0.0,0.0,0.0,0.0,0.0,0.0,0.0,-1.8803,0.0,0.0,0.0,0.0,-1.6075,0.0,0.0,0.0,0.0,-0.9179,-0.7342,-0.6142,-0.5176,0.0,0.0,-0.139,0.0,0.0,0.0,0.0,0.0,0.0,0.0,0.5688,0.5688,0.5688,0.5733,0.5952,0.6213,0.6384,0.6659,0.6925,0.7095,0.7095,0.7095,0.7095,0.7095,0.7095,0.7095,0.7095,0.7408,0.794,0.8803,0.9458,1.0077,1.1886,1.282,1.3142,1.4265,1.4866,1.509,1.509,1.5215,1.5389,-3.5055,-3.4519,-3.4134,-3.4321,-3.4214,-3.422,-3.4591,-3.4572,-3.4539,-3.4558,-3.4539,-3.4351,-3.3805,-3.4099,-3.4167,-3.3612,-3.3894,-3.4172,-3.4341,-3.3859,-3.3736,-3.407,-3.3325,-3.2895,-3.2895,-3.2646,-3.2431,-3.2309,-3.1946,-3.1046,-2.9704,-2.9277,-2.8422,-2.719,-2.719,-2.6839,-2.6246,-2.5667,-2.4975,-2.4279,-2.3636,-2.349,-2.3679,0.0,-2.4338,-2.42,-2.42,-2.4116,0.0,-2.4068,-2.3959,-2.3813,-2.3875,-2.3655,-2.3372,-2.3224,-2.2494,0.0,0.0,0.0,-1.9125,-1.8474,0.0,0.0,0.0,0.0,0.0,0.0,0.0,0.0,0.0,-0.974,-0.8345,-0.7166,-0.5536,-0.3939,0.0,-0.0762,0.1076,0.2688,0.3449,0.4344,0.0,0.0,0.0,0.5644,0.5688,0.5777,0.5952,0.6169,0.6432,0.6656,0.6877,0.7054,0.7095,0.7095,0.7095,0.7095,0.7095,0.7095,0.7095,0.7279,0.7544,0.794,0.9021,0.9975,1.0939,1.2186,1.3167,1.3964,1.4517,1.4866,1.5131,1.5257,1.5347,1.5389,-3.5088,-3.4687,-3.4414,-3.4414,-3.4414,-3.438,-3.4312,-3.4162,-3.404,-3.3813,-3.3985,-3.3902,-3.3361,-3.3908,-3.4031,-3.3347,-3.3597,-3.3825,-3.3825,-3.3472,-3.3437,-3.3791,-3.3248,-3.2895,-3.2895,-3.2525,-3.2237,-3.2092,-3.1776,-3.0859,-2.9471,-2.9238,-2.8422,-2.7179,-2.7047,-2.6434,-2.5546,-2.4781,-2.3861,-2.292,-2.2107,-2.2102,0.0,0.0,-2.3703,-2.4152,0.0,-2.3776,-2.3751,-2.3629,-2.3409,-2.3187,-2.3335,-2.2953,-2.2505,-2.2793,-2.208,-2.1039,-2.043,-1.9777,0.0,-1.8514,-1.8201,0.0,-1.8,0.0,-1.6829,0.0,0.0,0.0,0.0,-1.095,-0.9952,-0.8488,-0.6729,-0.4914,0.0,-0.0986,0.0896,0.2195,0.2956,0.3851,0.5104,0.4971,0.4926,0.5196,0.5508,0.5777,0.0,0.0,0.6387,0.6656,0.6877,0.701,0.7095,0.7095,0.7095,0.7095,0.7095,0.7095,0.7095,0.737,0.7635,0.7984,0.9449,1.0577,1.1408,1.2662,1.3724,1.4524,1.465,1.4908,1.5215,1.5347,1.5389,1.5389,-3.4534,-3.4414,-3.4414,-3.4414,-3.4414,-3.4346,-3.4128,-3.4094,-3.3971,-3.364,-3.3605,-3.3501,-3.3326,-3.329,-3.329,-3.329,-3.329,-3.329,-3.329,-3.329,-3.329,-3.329,-3.329,-3.3276,-3.3276,-3.286,-3.2489,-3.2092,-3.169,-3.0709,-2.9121,-2.9081,-2.8371,-2.7174,-2.668,-2.5989,-2.5014,-2.3642,-2.2342,-2.1143,-2.0664,-2.0962,-2.1718,-2.169,-2.267,-2.397,-2.3224,-2.2953,-2.3001,-2.3372,-2.3001,-2.2478,-2.2815,-2.2268,-2.1538,-2.1499,-2.0343,-1.9183,-1.9756,-1.9006,-1.8193,-1.8803,0.0,0.0,0.0,0.0,-1.7505,0.0,0.0,0.0,0.0,0.0,-1.1943,-0.9923,-0.8488,-0.6546,-0.3357,-0.2017,-0.0718,0.1166,0.3045,0.421,0.43,0.5062,0.524,0.4433,0.5151,0.5644,0.0,0.0,0.6213,0.6428,0.6659,0.6881,0.7095,0.7095,0.7095,0.7095,0.7095,0.7095,0.7139,0.7455,0.7724,0.8116,1.0183,1.1182,1.1499,1.3355,1.4328,1.4692,1.4692,1.495,1.5389,1.5389,1.5389,1.5389,-3.4448,-3.4414,-3.4414,-3.4414,-3.4414,-3.438,-3.4346,-3.4108,-3.3917,-3.3813,-3.357,-3.3361,-3.3326,-3.329,-3.329,-3.329,-3.329,-3.329,-3.329,-3.329,-3.329,-3.329,-3.3016,-3.2846,-3.2846,-3.22,-3.1946,-3.2092,-3.0972,-3.0101,-2.9549,-2.8779,-2.7806,-2.6657,-2.6559,-2.5427,-2.358,-2.2931,-2.157,-1.9797,-1.9655,-2.0109,-2.0769,0.0,-2.0991,-2.2408,-2.2182,-2.2107,-2.2107,-2.2252,-2.2327,-2.2327,-2.2004,-2.1918,-2.1869,-2.1344,-2.0691,-2.0051,-1.9756,-1.9213,-1.8683,-1.8362,-1.8121,-1.8,0.0,0.0,0.0,0.0,0.0,0.0,0.0,0.0,0.0,-0.9797,-0.7291,-0.4868,-0.3135,-0.2017,-0.0718,0.1166,0.1838,0.2732,0.4164,0.3896,0.4119,0.524,0.4926,0.5057,0.5952,0.0,0.0,0.6704,0.6748,0.6881,0.7095,0.7095,0.7095,0.7095,0.7095,0.7187,0.7415,0.8324,0.889,0.9279,1.1354,1.2308,1.2448,1.361,1.4243,1.4482,1.4482,1.4741,1.5215,1.5347,1.5389,1.5389,-3.4414,-3.4414,-3.4414,-3.4414,-3.4346,-3.4264,-3.4264,-3.4054,-3.3862,-3.3793,-3.3501,-3.329,-3.329,-3.329,-3.329,-3.329,-3.329,-3.329,-3.329,-3.329,-3.329,-3.329,-3.2895,-3.2704,-3.2704,-3.1713,-3.1381,-3.1873,-3.0355,-2.9549,-2.942,-2.8364,-2.7364,-2.6478,-2.5991,-2.4709,-2.2751,-2.159,-2.0408,-1.9301,-1.9301,-1.9569,0.0,-1.946,-1.9883,-2.0731,-2.0731,-2.1078,-2.1499,-2.1395,-2.1405,-2.1357,-2.0952,-2.076,-2.0682,-2.0285,-1.9806,-1.9353,-1.9006,-1.8745,-1.8474,-1.8072,-1.8,-1.8,-1.8,-1.8,-1.7505,0.0,0.0,0.0,0.0,0.0,0.0,-0.9623,-0.7386,-0.5359,-0.376,-0.2688,-0.1479,0.0,0.0538,0.1391,0.2867,0.2957,0.336,0.4389,0.4389,0.479,0.0,0.0,0.0,0.6612,0.6833,0.6966,0.7095,0.7095,0.7095,0.7095,0.7095,0.7231,0.7551,0.8671,0.9362,0.971,1.1789,1.2705,1.279,1.3695,1.4201,1.4398,1.4482,1.4741,1.509,1.5215,1.5305,1.5389,-3.4414,-3.4414,-3.4414,-3.4414,-3.4162,-3.3942,-3.3908,-3.3868,0.0,-3.3605,0.0,-3.329,-3.329,-3.329,-3.329,-3.329,-3.329,-3.329,-3.329,-3.329,-3.329,-3.329,-3.2895,-3.2739,-3.2775,-3.1355,-3.0959,-3.1629,-2.9858,-2.8966,-2.8932,-2.7831,-2.6933,-2.626,-2.52,-2.3798,-2.2101,-2.0153,-1.9301,-1.9301,-1.9301,-1.9301,-1.9301,-1.9301,-1.9301,-1.9301,-1.9301,-2.0001,-2.0934,-2.0731,-2.0421,-2.0079,-1.9835,-1.9411,-1.8962,-1.8882,-1.8482,-1.8,-1.8,-1.8,-1.8,-1.8,-1.8,-1.8,-1.8,-1.8,-1.7505,-1.5767,-1.6008,-1.5745,0.0,0.0,0.0,-0.9453,-0.8189,-0.6779,0.0,-0.3626,-0.2644,-0.1524,-0.0673,0.0,0.0,0.2107,0.2823,0.3047,0.3851,0.4701,0.0,0.0,0.0,0.6384,0.683,0.0,0.7095,0.0,0.7095,0.7095,0.7095,0.7279,0.7591,0.8846,0.9536,0.9927,1.2009,1.2875,1.296,1.3743,1.4201,1.4398,1.4608,1.4824,1.5048,1.5131,1.5257,1.5389,-3.4414,-3.4414,-3.4414,-3.4414,-3.3673,-3.3052,-3.2938,-3.3333,-3.364,-3.3605,-3.3431,-3.329,-3.329,-3.329,-3.329,-3.329,-3.329,0.0,-3.329,0.0,-3.329,-3.329,-3.2895,-3.286,-3.3206,-3.1479,-3.0983,-3.1759,-2.9459,-2.8285,-2.8175,-2.7144,-2.612,-2.5138,-2.4301,-2.2762,-2.0761,-1.9764,0.0,-1.9301,-1.9301,-1.9301,-1.9301,-1.9301,-1.9301,-1.9301,-1.9301,-1.946,-1.9648,-1.9756,-1.9756,-1.9648,-1.9262,-1.9073,-1.8882,-1.8362,-1.8072,-1.8,-1.8,-1.8,-1.8,-1.8,-1.8,-1.8,-1.8,-1.8,-1.7505,-1.5767,-1.5519,-1.5012,-1.3082,0.0,0.0,0.0,0.0,0.0,0.0,0.0,-0.3403,-0.1614,-0.1256,-0.0808,0.0,0.1122,0.2331,0.3941,0.421,0.4701,0.0,0.0,0.0,0.0,0.67,0.0,0.0,0.0,0.7095,0.7095,0.7095,0.7363,0.79,0.9579,1.0572,1.1106,1.3003,1.387,1.387,1.4046,1.413,1.4208,1.4573,1.4734,1.4824,1.5215,1.5389,1.5389,-3.4414,-3.4312,-3.4128,-3.3673,-3.3087,0.0,0.0,-3.2087,-3.2209,-3.2209,-3.2101,-3.2209,-3.2618,-3.2295,-3.2223,-3.2618,-3.2295,-3.2064,-3.2064,-3.2064,-3.2064,-3.2064,-3.1663,-3.1553,-3.175,-3.0279,-2.9858,-3.057,0.0,-2.7435,-2.7669,-2.6313,-2.5394,-2.4826,-2.3378,-2.1886,-2.0459,0.0,0.0,-1.9301,-1.9301,-1.9301,-1.9301,-1.9301,-1.9222,-1.9152,-1.9152,-1.9073,-1.9002,-1.9112,-1.9063,-1.8904,-1.8594,-1.8482,-1.8442,-1.8072,-1.8,-1.8,-1.8,-1.8,-1.8,-1.8,-1.8,-1.8,-1.8,-1.8,-1.7505,-1.5767,-1.5394,-1.4803,-1.2912,-1.2063,0.0,0.0,0.0,0.0,0.0,0.0,-0.3941,-0.3001,-0.2465,-0.1793,-0.0808,0.0,0.0,0.0,0.0,0.0,0.0,0.0,0.0,0.0,0.0,0.0,0.0,0.0,0.0,0.7095,0.7095,0.7363,0.7944,0.9279,1.0404,1.137,1.279,1.3652,1.4088,1.4088,1.4088,1.4124,1.4447,1.4608,1.4734,1.5131,1.5305,1.5389,-3.4147,-3.3874,-3.3395,-3.2791,-3.2254,-3.1696,-3.1031,-3.0632,-3.0519,-3.0857,-3.0895,-3.1156,-3.1783,-3.1267,-3.1156,-3.1783,-3.1267,-3.0895,-3.0895,-3.0895,-3.0895,-3.0895,-3.0494,-3.0355,-3.0431,-2.9145,-2.8715,0.0,0.0,0.0,0.0,-2.5518,-2.4668,-2.4157,0.0,0.0,0.0,0.0,-1.9301,-1.9301,-1.9301,-1.9262,-1.9222,-1.9222,-1.9112,-1.8922,-1.8922,-1.8812,-1.8652,-1.8652,-1.8531,-1.8353,-1.808,-1.8,-1.8,-1.8,-1.8,-1.8,-1.8,-1.787,-1.7708,-1.7708,-1.7578,-1.7456,-1.7456,-1.7456,-1.7,-1.5428,-1.497,-1.4342,-1.2699,-1.2246,0.0,0.0,0.0,0.0,0.0,0.0,-0.4523,-0.4344,-0.3628,-0.2732,-0.1524,0.0,0.0,0.0,0.0,0.0,0.0,0.0,0.0,0.0,0.0,0.7051,0.7095,0.0,0.7095,0.0,0.7143,0.7452,0.794,0.8846,0.9932,1.1068,1.2229,1.3222,1.4088,1.4088,1.4124,1.4166,1.4405,1.4608,1.4824,1.5082,1.5264,1.5389,-3.3297,-3.2613,-3.1978,-3.1942,0.0,-3.0215,-3.0139,-2.9328,-2.925,-3.0707,-3.0895,-3.0932,-3.0994,-3.097,-3.0932,-3.1007,-3.0932,-3.0895,-3.0895,-3.0895,-3.0895,-3.0895,-3.0494,-3.0469,-3.0857,-2.9289,-2.8455,0.0,0.0,-2.6019,0.0,0.0,0.0,0.0,0.0,0.0,0.0,-1.9341,-1.9301,-1.9301,-1.9301,-1.9183,-1.9042,-1.9042,-1.8882,-1.874,-1.874,-1.8612,-1.8442,-1.8442,-1.8442,-1.8353,-1.808,-1.8,-1.8,-1.8,-1.8,-1.8,-1.8,-1.7408,-1.6821,-1.6821,-1.6214,-1.5643,-1.5643,-1.5643,-1.5345,-1.4342,-1.3499,-1.2833,-1.2448,-1.2363,-1.1977,0.0,0.0,0.0,0.0,0.0,-0.524,-0.4389,-0.421,-0.3449,-0.1569,-0.13,0.0,0.0,0.1838,0.0,0.0,0.0,0.0,0.5176,0.0,0.6925,0.7095,0.7095,0.7095,0.7095,0.7323,0.7635,0.7944,0.9065,0.9715,1.0115,1.1929,1.3222,1.4088,1.4088,1.4201,1.4398,1.4608,1.4824,1.509,1.5298,1.5389,1.5389,0.0,0.0,0.0,0.0,0.0,0.0,0.0,-2.8776,-2.8736,-2.9367,-2.9445,-2.9626,-3.0114,-2.9742,-2.9665,-3.0152,-2.9742,-2.9445,-2.9445,-2.9355,-2.9206,-2.8998,-2.873,-2.8493,-2.8299,-2.7563,-2.7082,0.0,0.0,0.0,0.0,0.0,0.0,0.0,0.0,-2.004,-1.9301,-1.9152,-1.9112,-1.9112,-1.9002,-1.8882,-1.8812,-1.8812,-1.8692,-1.8523,-1.8523,-1.8362,-1.8161,-1.8161,-1.8161,-1.8161,-1.8031,-1.7619,-1.7326,-1.7829,-1.7619,-1.7326,-1.787,-1.7367,-1.6698,-1.6698,-1.6041,-1.5394,-1.5394,-1.5394,-1.5144,-1.4168,-1.3203,-1.2491,-1.2406,-1.2155,-1.1817,0.0,0.0,0.0,0.0,0.0,0.0,-0.5196,-0.5151,-0.4389,-0.2465,-0.2286,0.0,0.0,0.0,0.0,0.0,0.0,0.0,0.6074,0.0,0.701,0.7095,0.7095,0.7095,0.7095,0.737,0.7635,0.794,0.8504,0.9157,0.999,1.1886,1.2918,1.3307,1.387,1.4201,1.4433,1.4608,1.4866,1.5131,1.534,1.5305,1.5257,-3.1563,0.0,-3.0329,0.0,-2.9471,-2.9084,-2.8385,-2.8282,-2.8222,-2.8065,-2.8041,-2.8324,-2.9029,-2.8612,-2.8433,-2.8831,-2.838,-2.8041,-2.8041,-2.7885,-2.7678,-2.7385,-2.7245,0.0,-2.6508,-2.6294,-2.6071,-2.5806,-2.5209,0.0,0.0,0.0,0.0,0.0,-2.0537,-1.9844,-1.9301,-1.9073,-1.9002,-1.8962,-1.8772,-1.8652,-1.8612,-1.8612,-1.8482,-1.8233,-1.7983,-1.7781,-1.7619,-1.7619,-1.7456,-1.7294,-1.7538,-1.7196,-1.678,-1.7123,-1.6788,-1.6453,-1.7082,-1.6583,-1.591,-1.591,-1.5255,-1.4594,-1.4594,-1.4594,-1.4384,-1.3669,-1.2869,-1.224,-1.2198,-1.1909,-1.157,-1.1214,0.0,0.0,0.0,-0.67,0.0,-0.5688,-0.5688,-0.506,-0.3449,-0.3047,0.0,0.0,0.0,0.0,0.0,0.0,0.0,0.0,0.0,0.0,0.0,0.6962,0.7095,0.7095,0.7455,0.7724,0.79,0.8204,0.8903,0.999,1.1284,1.2186,1.2747,1.344,1.3984,1.4398,1.4566,1.4741,1.4999,1.5131,1.5082,1.4999,-3.0607,-2.9665,-2.8843,-2.8843,-2.8657,-2.833,-2.7774,-2.769,-2.7498,-2.6982,-2.691,-2.7114,-2.7681,-2.7729,-2.7486,-2.6995,-2.691,-2.691,-2.691,-2.6922,-2.6834,0.0,0.0,-2.6508,-2.6294,-2.6103,-2.5783,-2.5306,0.0,0.0,-2.4164,0.0,-2.1375,-2.0459,-1.9687,-1.9301,-1.9301,-1.9073,-1.9002,-1.8962,-1.8772,-1.8571,-1.8402,-1.8402,-1.8241,-1.787,-1.7033,-1.6739,-1.6739,-1.6739,-1.6131,-1.5602,-1.6453,-1.6698,-1.6535,-1.5677,-1.5436,-1.5436,-1.5436,-1.4761,-1.4041,-1.4041,-1.3372,-1.2747,-1.2747,-1.2747,-1.2662,-1.2448,-1.2203,-1.1957,-1.1742,-1.1699,-1.1305,-1.012,0.0,0.0,0.0,-0.6305,0.0,-0.5688,-0.5688,-0.5329,-0.4389,-0.3449,0.0,0.0,0.0,0.0,0.0,0.0,0.0,0.2552,0.4423,0.0,0.5719,0.6653,0.7095,0.7095,0.7632,0.79,0.79,0.8388,0.9087,0.9903,0.9946,1.0982,1.2705,1.2705,1.3379,1.4398,1.4398,1.4524,1.4692,1.4692,1.4692,1.4734,-2.969,-2.904,-2.8469,-2.8096,-2.8008,-2.775,-2.7234,-2.715,-2.709,-2.6922,-2.6898,-2.6813,-2.6635,-2.6959,-2.7078,0.0,-2.6898,-2.6898,0.0,-2.6772,-2.6568,-2.6259,-2.6,-2.5661,-2.5283,-2.5088,-2.486,-2.4551,0.0,0.0,0.0,-2.1413,-2.0769,-2.0459,-1.9648,-1.9222,-1.9073,-1.8891,-1.8732,-1.8563,-1.8322,-1.8161,-1.8121,-1.8121,-1.77,-1.7074,-1.678,-1.6329,-1.5801,-1.5801,-1.5636,-1.5352,-1.4963,-1.4873,-1.4914,-1.5304,-1.4929,-1.4594,-1.5228,-1.472,-1.3999,-1.3999,-1.333,-1.2705,-1.2705,-1.2577,-1.2412,-1.216,-1.1957,-1.1564,-1.0868,-1.0603,-1.012,-0.9113,-0.8149,0.0,0.0,0.0,-0.5688,-0.5688,-0.5688,-0.5329,-0.4389,-0.3449,0.0,0.0,0.0,0.0,0.0,0.0,0.0,0.0,0.4247,0.0,0.5675,0.5985,0.6473,0.7095,0.7455,0.7812,0.8113,0.8248,0.8556,0.9043,0.9646,1.0246,1.0895,1.2186,1.2991,1.3529,1.4132,1.4524,1.4692,1.4692,1.4608,1.4524,-2.8553,-2.8142,-2.7774,-2.745,-2.739,-2.721,-2.6657,-2.6585,-2.6427,-2.5916,-2.5855,-2.5614,-2.5005,-2.5236,0.0,-2.6248,-2.6285,-2.6175,-2.5855,-2.5744,-2.5405,-2.4858,-2.4502,-2.4144,-2.3776,0.0,0.0,-2.3313,-2.2793,-2.2107,-2.1308,-2.0769,-2.0343,-2.004,-1.9529,-1.9183,-1.9002,-1.8772,-1.8571,-1.8353,-1.774,-1.77,-1.7951,-1.7619,-1.7155,-1.6657,-1.6329,-1.5636,-1.4887,-1.4887,-1.4678,-1.4342,-1.4084,-1.3795,-1.3626,-1.4216,-1.3964,-1.3626,-1.4216,-1.3964,-1.3499,-1.3499,-1.3082,-1.2662,-1.2619,-1.2369,-1.1989,-1.1472,-1.117,-1.0733,-0.9811,-0.9506,-0.9069,-0.8149,-0.7492,-0.6966,-0.6612,0.0,-0.5688,0.0,0.0,0.0,0.0,-0.358,-0.2416,0.0,0.0,0.0,0.0,0.0,0.0,0.2956,0.3489,0.0,0.5184,0.5539,0.6163,0.7095,0.737,0.7768,0.8201,0.8201,0.8336,0.8612,0.917,0.9602,0.9985,1.1154,1.2137,1.2942,1.3542,1.4062,1.4447,1.4447,1.4405,1.4321,-2.7345,-2.7036,-2.6885,0.0,-2.6837,0.0,-2.6129,-2.6009,-2.5515,-2.425,-2.4047,-2.3756,-2.3069,-2.2995,-2.3585,-2.5016,0.0,0.0,0.0,-2.4011,-2.361,-2.2767,-2.2521,-2.2322,-2.2134,-2.1907,-2.1766,-2.1728,-2.1728,-2.127,-2.043,-2.043,-2.004,-1.9301,-1.9301,-1.9192,-1.8962,-1.8772,-1.8531,-1.8193,-1.7107,-1.7155,-1.7749,-1.6911,-1.6576,-1.6412,-1.5594,-1.472,-1.3915,-1.3915,-1.3372,-1.2833,-1.3669,-1.333,-1.2705,-1.2705,-1.2705,-1.2705,-1.2705,-1.2705,-1.2705,-1.2705,-1.2705,-1.2619,-1.2406,-1.1946,-1.1348,-1.0467,-1.0033,-0.9506,-0.8588,-0.8412,-0.8105,-0.7139,-0.7007,-0.67,-0.5822,0.0,-0.5688,0.0,0.0,0.0,0.0,-0.371,-0.2457,0.0,0.0,0.0,0.0,0.0,0.1211,0.1391,0.2331,0.3267,0.4287,0.5184,0.6118,0.7139,0.737,0.7768,0.8201,0.8201,0.8336,0.8612,0.8612,0.9043,0.9816,0.9859,1.0977,1.2619,1.2662,1.3264,1.4088,1.4088,1.4088,1.4124,0.0,0.0,-2.6765,-2.637,-2.6298,-2.6117,-2.5576,-2.4967,-2.4476,-2.4131,-2.361,-2.3206,-2.3032,-2.2995,-2.3143,-2.35,-2.3537,-2.3475,-2.3279,-2.3243,-2.318,-2.2931,-2.2585,-2.2397,-2.2322,-2.1983,-2.1451,-2.0808,-2.0808,-2.0382,-1.9569,-1.9569,-1.949,-1.9301,-1.9301,-1.9112,-1.8772,-1.874,-1.8072,-1.7066,-1.6821,-1.6419,-1.5974,-1.5809,-1.5255,-1.4622,-1.442,-1.3753,-1.2997,-1.2997,-1.2869,-1.2747,-1.2954,-1.2875,-1.2705,-1.2705,-1.2705,-1.2705,-1.2705,-1.2705,-1.2705,-1.2705,-1.2577,-1.2363,-1.1952,-1.1208,-1.0516,-1.0077,-0.9375,-0.8544,-0.7621,-0.7448,-0.7139,-0.6174,-0.6041,-0.5955,-0.5733,-0.5688,0.0,0.0,-0.5688,-0.5419,-0.4701,-0.3353,-0.21,0.0,0.0,0.0,0.0,0.1345,0.1345,0.1391,0.1614,0.2552,0.4287,0.4512,0.5581,0.7415,0.7462,0.7768,0.8201,0.8201,0.8336,0.8612,0.8612,0.8696,0.8955,0.9641,1.0593,1.1709,1.24,1.3264,1.4088,1.4088,1.4088,1.4124,-2.6408,-2.6263,-2.6093,-2.5793,-2.5432,-2.5073,-2.479,-2.4084,-2.3463,-2.3084,-2.2686,-2.2322,-2.1945,-2.1907,-2.1907,-2.1907,-2.2585,-2.2835,-2.2472,-2.2435,-2.2285,-2.1907,-2.1614,-2.1385,-2.126,-2.0962,-2.0508,-1.9962,-1.9962,-1.9726,-1.9301,-1.9301,-1.9301,-1.9301,-1.9301,-1.9073,-1.87,-1.87,-1.7951,-1.6657,-1.6247,-1.5801,-1.5352,-1.4929,-1.442,-1.3999,-1.3999,-1.3457,-1.2705,-1.2705,-1.2705,-1.2705,-1.2705,-1.2705,-1.2705,-1.2705,-1.2705,-1.2705,-1.2705,-1.2705,-1.2662,-1.2577,-1.2326,-1.1903,-1.1214,-1.0559,-0.9811,-0.8807,-0.8237,-0.758,-0.6612,-0.6482,-0.6305,-0.5777,-0.5688,-0.5688,-0.5688,-0.5688,0.0,-0.5688,-0.5688,-0.5282,-0.4204,-0.3038,-0.1832,-0.0671,0.0,0.0,0.1391,0.1391,0.1391,0.1391,0.1391,0.2329,0.4287,0.5134,0.6207,0.7507,0.7507,0.7768,0.8201,0.8201,0.8336,0.8612,0.8612,0.8612,0.8656,0.9126,1.0077,1.137,1.1843,1.2918,1.4088,1.4088,1.4088,1.413,-2.5431,-2.5194,-2.5123,-2.5123,-2.4445,-2.3927,-2.3927,-2.3316,-2.2574,-2.1869,-2.169,-2.1346,-2.0673,-2.0605,-2.0605,-2.0605,-2.1842,-2.236,-2.1652,-2.1576,-2.128,-2.0566,-2.0303,-2.0108,-1.9863,-1.9676,-1.9469,-1.9301,-1.9301,-1.9301,-1.9301,-1.9301,-1.9301,-1.9301,-1.9262,-1.9042,-1.87,-1.8531,-1.77,-1.6412,-1.5553,-1.5103,-1.4887,-1.4132,-1.3795,-1.3795,-1.3795,-1.333,-1.2705,-1.2705,-1.2705,-1.2705,-1.2705,-1.2705,-1.2705,-1.2705,-1.2705,-1.2705,-1.2705,-1.2662,-1.2577,-1.2192,-1.1768,-1.1214,-1.025,-0.9724,-0.9026,-0.7448,-0.7007,-0.6656,-0.5866,-0.5688,-0.5688,-0.5688,-0.5688,-0.5688,-0.5688,0.0,-0.5688,-0.5644,-0.5508,-0.4966,-0.3751,-0.2545,-0.1385,-0.0268,0.0806,0.1391,0.0,0.1391,0.1391,0.1391,0.1391,0.2329,0.4287,0.6204,0.7275,0.7547,0.7591,0.7856,0.8245,0.8245,0.8384,0.8612,0.8612,0.8656,0.8784,0.8784,0.9777,1.1327,1.1456,1.2491,1.3913,1.4039,1.4088,1.4088,-2.5359,-2.4743,-2.4301,-2.4301,-2.3683,-2.318,-2.318,-2.251,-2.1945,-2.1842,-2.1203,-2.076,-2.0605,-2.0605,-2.0605,-2.0605,-2.0828,-2.0905,-2.0789,-2.0644,-2.0489,-2.0342,-1.996,-1.9685,-1.9645,-1.9469,-1.9341,-1.9301,-1.9301,-1.9301,-1.9301,-1.9301,-1.9301,-1.9301,-1.9112,-1.8922,-1.866,-1.7659,-1.6624,-1.5519,-1.4587,-1.3795,-1.3082,-1.2954,-1.2912,-1.2912,-1.2912,-1.2833,-1.2705,-1.2705,-1.2705,-1.2705,-1.2705,-1.2705,-1.2705,-1.2705,-1.2705,-1.2705,-1.2705,-1.2577,-1.2149,-1.0939,-1.0554,-1.0207,-0.9026,-0.8149,-0.7445,-0.7139,-0.6482,-0.5863,-0.5733,-0.5688,-0.5688,-0.5688,-0.5688,-0.5688,-0.5688,0.0,-0.5644,-0.5463,-0.4694,-0.3708,-0.2505,-0.1341,-0.0224,0.0807,0.1211,0.1391,0.1391,0.1391,0.1391,0.1391,0.1391,0.2329,0.4287,0.6384,0.7591,0.7856,0.8028,0.8248,0.852,0.852,0.8564,0.8612,0.8612,0.8999,0.9685,0.9685,1.0332,1.137,1.2186,1.2662,1.3003,1.3828,1.4088,1.4124,-2.4743,-2.4337,-2.3963,-2.3573,-2.2872,-2.236,-2.236,-2.169,-2.1165,-2.1165,-2.0828,-2.0605,-2.0605,-2.0605,-2.0605,-2.0605,-2.0605,-2.0566,-2.045,-2.0342,-2.0225,-2.0098,-1.9872,-1.9715,-1.9606,-1.939,-1.9301,-1.9301,-1.9301,-1.9301,-1.9301,-1.9301,-1.9301,-1.9301,-1.9073,-1.8634,-1.7942,-1.7286,-1.6083,-1.4594,-1.4168,-1.3499,-1.2705,-1.2705,-1.2705,-1.2705,-1.2705,-1.2705,-1.2705,-1.2705,-1.2619,-1.2577,-1.2662,-1.2619,-1.2577,-1.2662,-1.2619,-1.2534,-1.2534,-1.2283,-1.1774,-1.0598,-1.0207,-0.968,-0.8105,-0.7404,-0.6962,-0.6438,-0.5997,-0.5688,-0.5688,-0.5688,-0.5688,-0.5688,-0.5688,0.0,0.0,-0.5599,-0.5282,-0.465,-0.4067,-0.3083,-0.1342,-0.0716,0.0045,0.1166,0.1345,0.1391,0.1391,0.1391,0.1391,0.1391,0.2417,0.3398,0.4287,0.6432,0.7639,0.79,0.8113,0.8336,0.8612,0.8612,0.8612,0.8612,0.8612,0.8828,0.9213,0.9213,1.0033,1.1327,1.18,1.2577,1.3525,1.3955,1.4088,1.413,-2.4011,-2.3672,-2.3379,-2.2835,-2.2059,-2.1499,-2.1499,-2.1021,-2.0605,-2.0605,-2.0605,-2.0605,-2.0605,-2.0605,-2.0605,-2.0605,-2.0566,-2.045,-2.0225,-2.0147,-2.0029,-1.9824,-1.9784,-1.9706,-1.9518,-1.9381,-1.9301,-1.9301,-1.9301,-1.9301,-1.9301,-1.9301,-1.9262,-1.9222,-1.8834,-1.8135,-1.7277,-1.6576,-1.5413,-1.3957,-1.3789,-1.3288,-1.2705,-1.2705,-1.2705,-1.2705,-1.2705,-1.2705,-1.2705,-1.2705,-1.2577,-1.2448,-1.2577,-1.2314,-1.2009,-1.218,-1.1923,-1.1623,-1.1923,-1.172,-1.1122,-0.9854,-0.9419,-0.8807,-0.7139,-0.6789,-0.6567,-0.5866,-0.5688,-0.5688,-0.5688,-0.5688,-0.5688,-0.5688,0.0,0.0,0.0,-0.528,-0.4739,-0.384,-0.3218,-0.2191,-0.0492,-0.0089,0.0403,0.1345,0.1391,0.1391,0.1391,0.1391,0.1524,0.1749,0.3398,0.4334,0.4378,0.652,0.7724,0.7984,0.8204,0.8384,0.8612,0.8612,0.8612,0.8612,0.8612,0.8696,0.8915,0.8915,0.9864,1.1322,1.1542,1.2491,1.3786,1.3997,1.4088,1.4088,-2.3217,-2.2462,-2.1945,-2.1907,-2.1242,-2.0683,-2.0683,-2.0644,-2.0605,-2.0605,-2.0605,-2.0605,-2.0605,-2.0605,-2.0605,-2.0605,-2.0411,-2.0225,-1.9942,-1.9754,-1.9636,-1.9636,-1.9429,-1.9341,-1.9301,-1.9301,-1.9301,-1.9301,-1.9301,-1.9301,-1.9301,-1.9301,-1.9192,-1.8993,-1.7974,-1.7318,-1.6911,-1.5039,-1.4126,-1.3922,-1.3124,-1.2747,-1.2705,-1.2705,-1.2705,-1.2705,-1.2705,-1.2705,-1.2705,-1.2705,-1.2577,-1.2406,-1.2406,-1.166,-1.074,-1.074,-1.0014,-0.9366,-1.0438,-1.0697,-1.0135,-0.7881,-0.7316,-0.7051,-0.6041,-0.5822,-0.5777,-0.5733,-0.5688,-0.5688,-0.5688,-0.5688,-0.5688,-0.5688,0.0,0.0,-0.5463,-0.4603,-0.384,-0.3307,-0.1698,-0.0492,-0.009,0.0762,0.13,0.1391,0.1391,0.1391,0.1391,0.1391,0.1838,0.2777,0.3755,0.4378,0.4559,0.6782,0.7984,0.8201,0.8428,0.8568,0.8612,0.8612,0.8612,0.8612,0.8612,0.9043,0.9816,0.9816,1.0419,1.137,1.2272,1.2662,1.2918,1.3786,1.4088,1.4088,-2.2397,-2.2021,-2.1652,-2.1126,-2.0789,-2.0605,-2.0605,-2.0605,-2.0605,-2.0605,-2.0605,-2.0605,-2.0605,-2.0605,-2.0605,-2.0605,-2.042,-2.0186,-1.9902,-1.9715,-1.9557,-1.9429,-1.9341,-1.9301,-1.9301,-1.9301,-1.9301,-1.9301,-1.9301,-1.9301,-1.9301,-1.8736,-1.8447,-1.8336,-1.7066,-1.6157,-1.5496,-1.4461,-1.3711,-1.3167,-1.2833,-1.2705,-1.2705,-1.2705,-1.2705,-1.2705,-1.2705,-1.2705,-1.2662,-1.2577,-1.2369,-1.216,-1.216,-1.1332,-1.0323,-0.987,-0.9435,-0.9048,-0.8746,-0.8969,-0.893,-0.7489,-0.7095,-0.6877,-0.5908,-0.5688,-0.5688,-0.5688,-0.5688,-0.5688,-0.5688,-0.5688,-0.5688,-0.5688,0.0,-0.5416,-0.4603,-0.4022,-0.3173,-0.1653,-0.0671,0.0134,0.0807,0.1211,0.1391,0.1391,0.1391,0.1391,0.1391,0.1391,0.1883,0.2867,0.3935,0.4823,0.5536,0.7095,0.7984,0.8201,0.8472,0.8612,0.8612,0.8612,0.8612,0.8612,0.8612,0.8784,0.9087,0.9087,0.9946,1.1327,1.1671,1.2528,1.3525,1.3307,1.361,1.3913,-2.1576,-2.1423,-2.1242,-2.0683,-2.0605,-2.0605,-2.0605,-2.0605,-2.0605,-2.0605,-2.0605,-2.0605,-2.0605,-2.0605,-2.0566,-2.0489,-2.0303,-2.0069,-1.9824,-1.935,-1.9143,-1.9301,-1.9054,-1.8895,-1.8895,-1.8607,-1.8487,-1.8487,-1.8487,-1.8487,-1.8487,-1.7876,-1.7504,-1.7302,-1.6116,-1.5164,-1.4455,-1.3831,-1.3252,-1.2705,-1.2705,-1.2705,-1.2705,-1.2705,-1.2705,-1.2705,-1.2705,-1.2705,-1.2662,-1.2448,-1.2203,-1.1952,-1.1564,-1.0467,-0.9152,-0.8352,-0.8086,-0.791,-0.7136,-0.7272,-0.7448,-0.6833,-0.6656,-0.6482,-0.5866,-0.5688,-0.5688,-0.5688,-0.5688,-0.5599,-0.5329,-0.524,-0.5151,-0.4882,-0.4746,-0.4427,-0.3575,-0.295,-0.2057,-0.0582,0.009,0.0673,0.1345,0.1391,0.1391,0.1391,0.1391,0.1391,0.1391,0.1704,0.233,0.3312,0.4469,0.5581,0.6647,0.754,0.8116,0.8336,0.852,0.8612,0.8612,0.8612,0.8612,0.8612,0.8612,0.8612,0.8612,0.8612,0.9471,1.0852,1.0852,1.1843,1.3137,1.2491,1.2662,1.3045,-2.076,-2.0605,-2.0605,-2.0605,-2.0605,-2.0605,-2.0605,-2.0605,-2.0605,-2.0605,-2.0605,-2.0605,-2.0605,-2.0605,-2.0489,-2.0303,-2.0059,-1.9833,-1.9606,-1.8576,-1.8359,-1.9222,-1.8447,-1.7997,-1.7997,-1.7147,-1.6698,-1.6698,-1.6698,-1.6698,-1.6698,-1.6698,-1.6453,-1.5959,-1.5074,-1.4413,-1.3957,-1.3082,-1.2705,-1.2705,-1.2705,-1.2705,-1.2705,-1.2705,-1.2705,-1.2705,-1.2705,-1.2705,-1.2662,-1.2448,-1.2203,-1.178,-1.0641,-0.8807,-0.6922,-0.5952,-0.5688,-0.5688,-0.5688,-0.5688,-0.5688,-0.5688,-0.5688,-0.5688,-0.5688,-0.5688,-0.5688,-0.5688,-0.5688,-0.5419,-0.4478,-0.43,-0.3985,-0.3045,-0.2684,-0.2503,-0.2508,-0.1297,-0.0403,-0.0403,0.0673,0.1391,0.1391,0.1391,0.1391,0.1391,0.1391,0.1391,0.1391,0.2376,0.3312,0.4287,0.5489,0.6694,0.79,0.8113,0.8336,0.8612,0.8612,0.8612,0.8612,0.8612,0.8612,0.8612,0.8612,0.8612,0.8612,0.8612,0.9126,0.9903,0.9903,1.0463,1.1284,1.1278,1.1278,1.1284,-2.0644,-2.0605,-2.0605,-2.0605,-2.0605,-2.0605,-2.0605,-2.0489,-2.0381,-2.0381,-2.0216,-2.0098,-2.0098,-2.0098,-2.0098,-2.002,-1.9833,-1.935,-1.8536,-1.8158,-1.7836,-1.7504,-1.7229,-1.7107,-1.7107,-1.6821,-1.6698,-1.6698,-1.6698,-1.6698,-1.6698,-1.609,-1.5587,-1.5247,-1.4258,-1.3639,-1.3343,-1.2875,-1.2705,-1.2705,-1.2705,-1.2705,-1.2705,-1.2705,-1.2705,-1.2705,-1.2705,-1.2705,-1.2619,-1.2246,-1.1634,-1.0664,-0.8667,-0.7621,-0.6922,-0.5952,-0.5688,-0.5688,-0.5688,-0.5688,-0.5688,-0.5688,-0.5688,-0.5688,-0.5688,-0.5688,-0.5688,-0.5688,-0.5196,-0.4612,-0.4344,-0.3762,-0.3226,-0.2957,-0.282,-0.2506,-0.1656,-0.0984,-0.0313,0.0538,0.1076,0.1391,0.1391,0.1391,0.1391,0.1391,0.1391,0.1391,0.1391,0.2376,0.3312,0.4287,0.5489,0.6605,0.7591,0.7984,0.8336,0.8612,0.8612,0.8612,0.8612,0.8612,0.8612,0.8612,0.8612,0.8612,0.8612,0.8612,0.9126,0.9903,0.9903,1.0463,1.1235,1.0549,1.0722,1.1106,-2.0605,-2.0605,-2.0605,-2.0605,-2.0605,-2.0566,-2.0489,-2.0381,-2.0264,-2.0147,-1.9981,-1.9902,-1.9902,-1.9902,-1.9863,-1.9784,-1.9262,-1.8536,-1.7553,-1.7147,-1.6739,-1.6214,-1.5842,-1.5842,-1.6165,-1.5842,-1.5677,-1.5677,-1.5677,-1.5677,-1.5677,-1.5019,-1.4601,-1.4342,-1.3597,-1.3137,-1.2924,-1.279,-1.2705,-1.2705,-1.2705,-1.2705,-1.2705,-1.2705,-1.2705,-1.2705,-1.2705,-1.2705,-1.2577,-1.1714,-1.0448,-0.8965,-0.7529,-0.6833,-0.6438,-0.5863,-0.5688,-0.5688,-0.5688,-0.5688,-0.5688,-0.5688,-0.5688,-0.5688,-0.5688,-0.5688,-0.5599,-0.524,-0.4701,-0.4074,-0.3314,-0.2688,-0.2196,-0.1793,-0.1658,-0.1343,-0.0627,-0.0224,0.0269,0.1031,0.1256,0.1391,0.1391,0.1391,0.1391,0.1391,0.1391,0.1569,0.1973,0.291,0.389,0.4823,0.6027,0.6922,0.7507,0.7984,0.8288,0.8428,0.8564,0.8612,0.8612,0.8612,0.8612,0.8612,0.8612,0.8612,0.8612,0.8612,0.8911,0.9388,0.9388,0.9733,1.0164,0.9602,0.9733,1.0077,-2.0605,-2.0605,-2.0605,-2.0605,-2.0605,-2.0527,-2.0342,-2.0264,-2.0186,-1.9902,-1.9863,-1.9863,-1.9863,-1.9863,-1.9745,-1.9478,-1.8496,-1.7504,-1.6657,-1.5842,-1.5352,-1.5269,-1.4538,-1.4454,-1.5269,-1.4496,-1.4088,-1.4088,-1.4088,-1.4088,-1.4088,-1.3828,-1.361,-1.3392,-1.3179,-1.2966,-1.2705,-1.2705,-1.2705,-1.2705,-1.2705,-1.2705,-1.2705,-1.2705,-1.2705,-1.2705,-1.2705,-1.2619,-1.2308,-1.0832,-0.8877,-0.7095,-0.7007,-0.6393,-0.5688,-0.5688,-0.5688,-0.5688,-0.5688,-0.5688,-0.5688,-0.5688,-0.5688,-0.5688,-0.5688,-0.5644,-0.5329,-0.4478,-0.4164,-0.3494,-0.1704,-0.1345,-0.0987,-0.0135,0.0224,0.0359,0.0403,0.0762,0.1076,0.1076,0.1256,0.1391,0.1391,0.1391,0.1391,0.1391,0.1391,0.1838,0.2867,0.3801,0.4734,0.5675,0.6836,0.7462,0.7462,0.794,0.8201,0.8201,0.8472,0.8612,0.8612,0.8612,0.8612,0.8612,0.8612,0.8612,0.8612,0.8612,0.8612,0.8612,0.8612,0.8612,0.8612,0.8612,0.8612,0.8612,-2.0605,-2.0605,-2.0605,-2.0605,-2.0605,-2.0527,-2.0342,-2.0108,-1.9902,-1.9676,-1.9548,-1.942,-1.942,-1.942,-1.9134,-1.8407,-1.7513,-1.6617,-1.576,-1.5519,-1.511,-1.4419,-1.4208,-1.4173,-1.4377,-1.4215,-1.4088,-1.4088,-1.4088,-1.4088,-1.4088,-1.3828,-1.361,-1.3392,-1.3179,-1.2966,-1.2705,-1.2705,-1.2705,-1.2705,-1.2705,-1.2705,-1.2705,-1.2705,-1.2705,-1.2705,-1.2705,-1.2132,-1.1047,-0.8877,-0.7705,-0.6966,-0.6219,-0.5863,-0.5688,-0.5688,-0.5688,-0.5688,-0.5688,-0.5688,-0.5688,-0.5688,-0.5688,-0.5688,-0.5688,-0.5149,-0.4567,-0.4344,-0.309,-0.1883,-0.148,-0.0808,-0.0225,-0.0045,0.0045,0.018,0.0359,0.0628,0.0852,0.1076,0.1256,0.1391,0.1391,0.1391,0.1391,0.1391,0.1391,0.1838,0.2867,0.3801,0.4734,0.5675,0.6653,0.7187,0.7187,0.772,0.8028,0.8201,0.8472,0.8612,0.8612,0.8612,0.8612,0.8612,0.8612,0.8612,0.8612,0.8612,0.8612,0.8612,0.8612,0.8612,0.8612,0.8612,0.8612,0.8612,-2.0605,-2.0605,-2.0605,-2.0605,-2.0527,-2.0372,-2.0137,-1.9912,-1.9666,-1.9469,-1.939,-1.9301,-1.9301,-1.9301,-1.8767,-1.7504,-1.6576,-1.5718,-1.4824,-1.4783,-1.458,-1.413,-1.4088,-1.4088,-1.4088,-1.4088,-1.4088,-1.4088,-1.4088,-1.4046,-1.3913,-1.3652,-1.3434,-1.3264,-1.3009,-1.2833,-1.2705,-1.2705,-1.2705,-1.2705,-1.2705,-1.2705,-1.2705,-1.2705,-1.2705,-1.2705,-1.2705,-1.1606,-0.987,-0.8097,-0.7007,-0.6349,-0.5866,-0.5688,-0.5688,-0.5688,-0.5688,-0.5688,-0.5688,-0.5688,-0.5688,-0.5688,-0.5688,-0.5688,-0.5688,-0.4971,-0.4164,-0.3717,-0.2419,-0.1256,-0.0808,-0.0314,0.0,0.0,0.009,0.0269,0.0493,0.0762,0.0987,0.1211,0.1345,0.1391,0.1391,0.1391,0.1391,0.1391,0.1838,0.2553,0.3534,0.4469,0.5406,0.634,0.683,0.7143,0.7279,0.7676,0.7984,0.8201,0.8472,0.8612,0.8612,0.8612,0.8612,0.8612,0.8612,0.8612,0.8612,0.8612,0.8612,0.8612,0.8612,0.8612,0.8612,0.8612,0.8612,0.8612,-2.0605,-2.0605,-2.0605,-2.0605,-2.0411,-2.0225,-1.9942,-1.9715,-1.9518,-1.9341,-1.9301,-1.9222,-1.9094,-1.8816,-1.8037,-1.6617,-1.5677,-1.4859,-1.413,-1.4088,-1.4088,-1.4088,-1.4088,-1.4088,-1.4088,-1.4088,-1.4088,-1.4088,-1.4088,-1.3955,-1.3695,-1.3483,-1.3313,-1.3094,-1.2833,-1.2705,-1.2705,-1.2705,-1.2705,-1.2705,-1.2534,-1.2577,-1.2662,-1.2528,-1.2577,-1.2662,-1.2528,-1.0956,-0.8782,-0.7573,-0.6523,-0.5688,-0.5688,-0.5688,-0.5688,-0.5688,-0.5688,-0.5688,-0.5688,-0.5688,-0.5688,-0.5688,-0.5599,-0.5466,-0.5466,-0.4748,-0.3807,-0.2822,-0.1838,-0.0942,-0.0135,0.0,0.0,0.0045,0.0269,0.0493,0.0718,0.0942,0.1166,0.139,0.1391,0.1391,0.1391,0.1391,0.148,0.1659,0.2419,0.3401,0.4467,0.5272,0.6118,0.7051,0.7095,0.7187,0.7415,0.7724,0.7984,0.8157,0.8476,0.8612,0.8612,0.8612,0.8612,0.8612,0.8612,0.8612,0.8612,0.8612,0.8612,0.8612,0.8612,0.8612,0.8612,0.8612,0.8612,0.8612,-2.0605,-2.0605,-2.0605,-2.0605,-2.0411,-2.0225,-1.9942,-1.9715,-1.9518,-1.9341,-1.9301,-1.9015,-1.8238,-1.6821,-1.5842,-1.5602,-1.4783,-1.4208,-1.413,-1.4088,-1.4088,-1.4088,-1.4088,-1.4088,-1.4088,-1.4088,-1.4088,-1.4088,-1.4088,-1.3955,-1.3695,-1.3483,-1.3313,-1.3094,-1.2833,-1.2705,-1.2705,-1.2705,-1.2705,-1.2619,-1.1843,-1.1972,-1.2619,-1.18,-1.1972,-1.2577,-1.18,-0.9966,-0.7786,-0.639,-0.5822,-0.5688,-0.5688,-0.5688,-0.5688,-0.5688,-0.5688,-0.5688,-0.5688,-0.5688,-0.5688,-0.5688,-0.5104,-0.4478,-0.4478,-0.3762,-0.2823,-0.1793,-0.0853,-0.0135,-0.0045,0.0,0.009,0.0314,0.0359,0.0538,0.0987,0.1076,0.1166,0.139,0.1391,0.1391,0.1391,0.1391,0.1749,0.2644,0.2823,0.3669,0.5406,0.563,0.6118,0.7051,0.7095,0.7095,0.7143,0.7632,0.79,0.7944,0.8388,0.8612,0.8612,0.8612,0.8612,0.8612,0.8612,0.8612,0.8612,0.8612,0.8612,0.8612,0.8612,0.8612,0.8612,0.8612,0.8612,0.8612,-2.0411,-2.0294,-2.0255,-2.0411,-2.0147,-1.9872,-1.9754,-1.9548,-1.939,-1.9301,-1.8895,-1.8447,-1.8037,-1.6453,-1.5394,-1.5394,-1.4622,-1.4088,-1.4088,-1.4088,-1.4088,-1.4088,-1.4088,-1.4088,-1.4088,-1.4088,-1.4088,-1.4088,-1.4088,-1.3913,-1.3525,-1.344,-1.3222,-1.2881,-1.2747,-1.2705,-1.2705,-1.2705,-1.2406,-1.1886,-1.1451,-1.1235,-1.1095,-1.0664,-1.0794,-1.0966,-0.9792,-0.8663,-0.757,-0.6171,-0.5688,-0.5688,-0.5688,-0.5688,-0.5688,-0.5688,-0.5688,-0.5688,-0.5688,-0.5688,-0.5555,-0.506,-0.4612,-0.403,-0.2911,-0.2374,-0.1928,-0.148,-0.0673,0.0,0.0,0.0135,0.0269,0.0359,0.0628,0.0852,0.1076,0.1211,0.13,0.1391,0.1391,0.1391,0.1391,0.1928,0.2419,0.2867,0.3892,0.4828,0.5675,0.6207,0.6653,0.7095,0.7095,0.7187,0.7323,0.7547,0.7812,0.8069,0.8292,0.8472,0.8612,0.8612,0.8612,0.8612,0.8612,0.8612,0.8612,0.8612,0.8612,0.8612,0.8612,0.8612,0.8612,0.8612,0.8612,0.8612]},{"header":{"parameterUnit":"m.s-1","parameterCategory":1,"la1":30.6,"la2":28.766,"lo1":-90.7593,"lo2":-88.6598,"dy":0.0162,"dx":0.0183,"nx":116,"ny":114,"refTime":"2023-09-20T00:00:00:Z","depth":0,"parameterNumber":3,"parameterNumberName":"V-component_of_WINDS"},"data":[0.0,0.0,0.0,0.0,0.0,0.0,0.0,0.0,0.0,0.0,0.0,0.0,0.0,0.0,0.0,0.0,0.0,0.0,0.0,0.0,0.0,0.0,0.0,0.0,0.0,0.0,0.0,0.0,0.0,0.0,0.0,0.0,0.0,0.0,0.0,0.0,0.0,0.0,0.0,0.0,0.0,0.0,0.0,0.0,0.0,0.0,0.0,0.0,0.0,0.0,0.0,0.0,0.0,0.0,0.0,0.0,0.0,0.0,0.0,0.0,0.0,0.0,0.0,0.0,0.0,0.0,0.0,0.0,0.0,0.0,0.0,0.0,0.0,0.0,0.0,0.0,0.0,0.0,0.0,0.0,0.0,0.0,0.0,0.0,0.0,0.0,0.0,0.0,0.0,0.0,0.0,0.0,0.0,0.0,0.0,0.0,0.0,0.0,0.0,0.0,0.0,0.0,0.0,0.0,0.0,0.0,0.0,0.0,0.0,0.0,0.0,0.0,0.0,0.0,0.0,0.0,0.0,0.0,0.0,0.0,0.0,0.0,0.0,0.0,0.0,0.0,0.0,0.0,0.0,0.0,0.0,0.0,0.0,0.0,0.0,0.0,0.0,0.0,0.0,0.0,0.0,0.0,0.0,0.0,0.0,0.0,0.0,0.0,0.0,0.0,0.0,0.0,0.0,0.0,0.0,0.0,0.0,0.0,0.0,0.0,0.0,0.0,0.0,0.0,0.0,0.0,0.0,0.0,0.0,0.0,0.0,0.0,0.0,0.0,0.0,0.0,0.0,0.0,0.0,0.0,0.0,0.0,0.0,0.0,0.0,0.0,0.0,0.0,0.0,0.0,0.0,0.0,0.0,0.0,0.0,0.0,0.0,0.0,0.0,0.0,0.0,0.0,0.0,0.0,0.0,0.0,0.0,0.0,0.0,0.0,0.0,0.0,0.0,0.0,0.0,0.0,0.0,0.0,0.0,0.0,0.0,0.0,0.0,0.0,0.0,0.0,0.0,0.0,0.0,0.0,0.0,0.0,0.0,0.0,0.0,0.0,0.0,0.0,0.0,0.0,0.0,0.0,0.0,0.0,0.0,0.0,0.0,0.0,0.0,0.0,0.0,0.0,0.0,0.0,0.0,0.0,0.0,0.0,0.0,0.0,0.0,0.0,0.0,0.0,0.0,0.0,0.0,0.0,0.0,0.0,0.0,0.0,0.0,0.0,0.0,0.0,0.0,0.0,0.0,0.0,0.0,0.0,0.0,0.0,0.0,0.0,0.0,0.0,0.0,0.0,0.0,0.0,0.0,0.0,0.0,0.0,0.0,0.0,0.0,0.0,0.0,0.0,0.0,0.0,0.0,0.0,0.0,0.0,0.0,0.0,0.0,0.0,0.0,0.0,0.0,0.0,0.0,0.0,0.0,0.0,0.0,0.0,0.0,0.0,0.0,0.0,0.0,0.0,0.0,0.0,0.0,0.0,0.0,0.0,0.0,0.0,0.0,0.0,0.0,0.0,0.0,0.0,0.0,0.0,0.0,0.0,0.0,0.0,0.0,0.0,0.0,0.0,0.0,0.0,0.0,0.0,0.0,0.0,0.0,0.0,0.0,0.0,0.0,0.0,0.0,0.0,0.0,0.0,0.0,0.0,0.0,0.0,0.0,0.0,0.0,0.0,0.0,0.0,0.0,0.0,0.0,0.0,0.0,0.0,0.0,0.0,0.0,0.0,0.0,0.0,0.0,0.0,0.0,0.0,0.0,0.0,0.0,0.0,0.0,0.0,0.0,0.0,0.0,0.0,0.0,0.0,0.0,0.0,0.0,0.0,0.0,0.0,0.0,0.0,0.0,0.0,0.0,0.0,0.0,0.0,0.0,0.0,0.0,0.0,0.0,0.0,0.0,0.0,0.0,0.0,0.0,0.0,0.0,0.0,0.0,0.0,0.0,0.0,0.0,0.0,0.0,0.0,0.0,0.0,0.0,0.0,0.0,0.0,0.0,0.0,0.0,0.0,0.0,0.0,0.0,0.0,0.0,0.0,0.0,0.0,0.0,0.0,0.0,0.0,0.0,0.0,0.0,0.0,0.0,0.0,0.0,0.0,0.0,0.0,0.0,0.0,0.0,0.0,0.0,0.0,0.0,0.0,0.0,0.0,0.0,0.0,0.0,0.0,0.0,0.0,0.0,0.0,0.0,0.0,0.0,0.0,0.0,0.0,0.0,0.0,0.0,0.0,0.0,0.0,0.0,0.0,0.0,0.0,0.0,0.0,0.0,0.0,0.0,0.0,0.0,0.0,0.0,0.0,0.0,0.0,0.0,0.0,0.0,0.0,0.0,0.0,0.0,0.0,0.0,0.0,0.0,0.0,0.0,0.0,0.0,0.0,0.0,0.0,0.0,0.0,0.0,0.0,0.0,0.0,0.0,0.0,0.0,0.0,0.0,0.0,0.0,0.0,0.0,0.0,0.0,0.0,0.0,0.0,0.0,0.0,0.0,0.0,0.0,0.0,0.0,0.0,0.0,0.0,0.0,0.0,0.0,0.0,0.0,0.0,0.0,0.0,0.0,0.0,0.0,0.0,0.0,0.0,0.0,0.0,0.0,0.0,0.0,0.0,0.0,0.0,0.0,0.0,0.0,0.0,0.0,0.0,0.0,0.0,0.0,0.0,0.0,0.0,0.0,0.0,0.0,0.0,0.0,0.0,0.0,0.0,0.0,0.0,0.0,0.0,0.0,0.0,0.0,0.0,0.0,0.0,0.0,0.0,0.0,0.0,0.0,0.0,0.0,0.0,0.0,0.0,0.0,0.0,0.0,0.0,0.0,0.0,0.0,0.0,0.0,0.0,0.0,0.0,0.0,0.0,0.0,0.0,0.0,0.0,0.0,0.0,0.0,0.0,0.0,0.0,0.0,0.0,0.0,0.0,0.0,0.0,0.0,0.0,0.0,0.0,0.0,0.0,0.0,0.0,0.0,0.0,0.0,0.0,0.0,0.0,0.0,0.0,0.0,0.0,0.0,0.0,0.0,0.0,0.0,0.0,0.0,0.0,0.0,0.0,0.0,0.0,0.0,0.0,0.0,0.0,0.0,0.0,0.0,0.0,0.0,0.0,0.0,0.0,0.0,0.0,0.0,0.0,0.0,0.0,0.0,0.0,0.0,0.0,0.0,0.0,0.0,0.0,0.0,0.0,0.0,0.0,0.0,0.0,0.0,0.0,0.0,0.0,0.0,0.0,0.0,0.0,0.0,0.0,0.0,0.0,0.0,0.0,0.0,0.0,0.0,0.0,0.0,0.0,0.0,0.0,0.0,0.0,0.0,0.0,0.0,0.0,0.0,0.0,0.0,0.0,0.0,0.0,0.0,0.0,0.0,0.0,0.0,0.0,0.0,0.0,0.0,0.0,0.0,0.0,0.0,0.0,0.0,0.0,0.0,0.0,0.0,0.0,0.0,0.0,0.0,0.0,0.0,0.0,0.0,0.0,0.0,0.0,0.0,0.0,0.0,0.0,0.0,0.0,0.0,0.0,0.0,0.0,0.0,0.0,0.0,0.0,0.0,0.0,0.0,0.0,0.0,0.0,0.0,0.0,0.0,0.0,0.0,0.0,0.0,0.0,0.0,0.0,0.0,0.0,0.0,0.0,0.0,0.0,0.0,0.0,0.0,0.0,0.0,0.0,0.0,0.0,0.0,0.0,0.0,0.0,0.0,0.0,0.0,0.0,0.0,0.0,0.0,0.0,0.0,0.0,0.0,0.0,0.0,0.0,0.0,0.0,0.0,0.0,0.0,0.0,0.0,0.0,0.0,0.0,0.0,0.0,0.0,0.0,0.0,0.0,0.0,0.0,0.0,0.0,0.0,0.0,0.0,0.0,0.0,0.0,0.0,0.0,0.0,0.0,0.0,0.0,0.0,0.0,0.0,0.0,0.0,0.0,0.0,0.0,0.0,0.0,0.0,0.0,0.0,0.0,0.0,0.0,0.0,0.0,0.0,0.0,0.0,0.0,0.0,0.0,0.0,0.0,0.0,0.0,0.0,0.0,0.0,0.0,0.0,0.0,0.0,0.0,0.0,0.0,0.0,0.0,0.0,0.0,0.0,0.0,0.0,0.0,0.0,0.0,0.0,0.0,0.0,0.0,0.0,0.0,0.0,0.0,0.0,0.0,0.0,0.0,0.0,0.0,0.0,0.0,0.0,0.0,0.0,0.0,0.0,0.0,0.0,0.0,0.0,0.0,0.0,0.0,0.0,0.0,0.0,0.0,0.0,0.0,0.0,0.0,0.0,0.0,0.0,0.0,0.0,0.0,0.0,0.0,0.0,0.0,0.0,0.0,0.0,0.0,0.0,0.0,0.0,0.0,0.0,0.0,0.0,0.0,0.0,0.0,0.0,0.0,0.0,0.0,0.0,0.0,0.0,0.0,0.0,0.0,0.0,0.0,0.0,0.0,0.0,0.0,0.0,0.0,0.0,0.0,0.0,0.0,0.0,0.0,0.0,0.0,0.0,0.0,0.0,0.0,0.0,0.0,0.0,0.0,0.0,0.0,0.0,0.0,0.0,0.0,0.0,0.0,0.0,0.0,0.0,0.0,0.0,0.0,0.0,0.0,0.0,0.0,0.0,0.0,0.0,0.0,0.0,0.0,0.0,0.0,0.0,0.0,0.0,0.0,0.0,0.0,0.0,0.0,0.0,0.0,0.0,0.0,0.0,0.0,0.0,0.0,0.0,0.0,0.0,0.0,0.0,0.0,0.0,0.0,0.0,0.0,0.0,0.0,0.0,0.0,0.0,0.0,0.0,0.0,0.0,0.0,0.0,0.0,0.0,0.0,0.0,0.0,0.0,0.0,0.0,0.0,0.0,0.0,0.0,0.0,0.0,0.0,0.0,0.0,0.0,0.0,0.0,0.0,0.0,0.0,0.0,0.0,0.0,0.0,0.0,0.0,0.0,0.0,0.0,0.0,0.0,0.0,0.0,0.0,0.0,0.0,0.0,0.0,0.0,0.0,0.0,0.0,0.0,0.0,0.0,0.0,0.0,0.0,0.0,0.0,0.0,0.0,0.0,0.0,0.0,0.0,0.0,0.0,0.0,0.0,0.0,0.0,0.0,0.0,0.0,0.0,0.0,0.0,0.0,0.0,0.0,0.0,0.0,0.0,0.0,0.0,0.0,0.0,0.0,0.0,0.0,0.0,0.0,0.0,0.0,0.0,0.0,0.0,0.0,0.0,0.0,0.0,0.0,0.0,0.0,0.0,0.0,0.0,0.0,0.0,0.0,0.0,0.0,0.0,0.0,0.0,0.0,0.0,0.0,0.0,0.0,0.0,0.0,0.0,0.0,0.0,0.0,0.0,0.0,0.0,0.0,0.0,0.0,0.0,0.0,0.0,0.0,0.0,0.0,0.0,0.0,0.0,0.0,0.0,0.0,0.0,0.0,0.0,0.0,0.0,0.0,0.0,0.0,0.0,0.0,0.0,0.0,0.0,0.0,0.0,0.0,0.0,0.0,0.0,0.0,0.0,0.0,0.0,0.0,0.0,0.0,0.0,0.0,0.0,0.0,0.0,0.0,0.0,0.0,0.0,0.0,0.0,0.0,0.0,0.0,0.0,0.0,0.0,0.0,0.0,0.0,0.0,0.0,0.0,0.0,0.0,0.0,0.0,0.0,0.0,0.0,0.0,0.0,0.0,0.0,0.0,0.0,0.0,0.0,0.0,0.0,0.0,0.0,0.0,0.0,0.0,0.0,0.0,0.0,0.0,0.0,0.0,0.0,0.0,0.0,0.0,0.0,0.0,0.0,0.0,0.0,0.0,0.0,0.0,0.0,0.0,0.0,0.0,0.0,0.0,0.0,0.0,0.0,0.0,0.0,0.0,0.0,0.0,0.0,0.0,0.0,0.0,0.0,0.0,0.0,0.0,0.0,0.0,0.0,0.0,0.0,0.0,0.0,0.0,0.0,0.0,0.0,0.0,0.0,0.0,0.0,0.0,0.0,0.0,0.0,0.0,0.0,0.0,0.0,0.0,0.0,0.0,0.0,0.0,0.0,0.0,0.0,0.0,0.0,0.0,0.0,0.0,0.0,0.0,0.0,0.0,0.0,0.0,0.0,0.0,0.0,0.0,2.2344,0.0,0.0,0.0,0.0,0.0,0.0,0.0,0.0,0.0,0.0,0.0,0.0,0.0,0.0,0.0,0.0,0.0,0.0,0.0,0.0,0.0,0.0,0.0,0.0,0.0,0.0,0.0,0.0,0.0,0.0,0.0,0.0,0.0,0.0,0.0,0.0,0.0,0.0,0.0,1.3846,1.3994,1.4256,1.303,1.1226,0.899,0.0,0.0,0.0,0.0,0.0,0.0,0.0,0.0,0.0,0.0,0.0,0.0,0.0,0.0,0.0,0.0,0.0,0.0,0.0,0.0,0.0,0.0,0.0,0.0,0.0,0.0,0.0,0.0,0.0,0.0,0.0,0.0,0.0,0.0,0.0,0.0,0.0,0.0,0.0,0.0,0.0,0.0,0.0,0.0,0.0,0.0,0.0,0.0,0.0,0.0,0.0,0.0,0.0,0.0,0.0,0.0,0.0,0.0,0.0,0.0,0.0,0.0,0.0,0.0,0.0,0.0,0.0,0.0,0.0,0.0,0.0,2.2569,0.0,0.0,0.0,0.0,0.0,0.0,0.0,0.0,0.0,0.0,0.0,0.0,0.0,0.0,0.0,0.0,0.0,0.0,0.0,0.0,0.0,0.0,0.0,0.0,0.0,0.0,0.0,0.0,0.0,0.0,0.0,0.0,0.0,0.0,0.0,1.4851,1.5018,1.5182,1.5463,1.5797,1.6186,1.5467,1.3995,1.1843,0.9631,0.0,0.0,0.0,0.0,0.0,0.0,0.0,0.0,0.0,0.0,0.0,0.0,0.0,0.0,0.0,0.0,0.0,0.0,0.0,0.0,0.0,0.0,0.0,0.0,0.0,0.0,0.0,0.0,0.0,0.0,0.0,0.0,0.0,0.0,0.0,0.0,0.0,0.0,0.0,0.0,0.0,0.0,0.0,0.0,0.0,0.0,0.0,0.0,0.0,0.0,0.0,0.0,0.0,0.0,0.0,0.0,0.0,0.0,0.0,0.0,0.0,0.0,0.0,2.2052,2.2542,2.3224,2.3224,2.3556,2.4189,2.3861,2.3139,2.222,2.1548,0.0,0.0,0.0,0.0,0.0,0.0,0.0,0.0,0.0,0.0,0.0,0.0,0.0,0.0,0.0,0.0,0.0,0.0,0.0,0.0,0.0,1.823,1.8566,1.8566,1.8569,1.8593,0.0,0.0,0.0,0.0,0.0,0.0,1.6315,1.6315,1.6712,1.7481,1.8004,1.8147,1.7864,1.7432,1.7092,1.6802,1.3091,1.1448,1.1307,0.0,0.0,0.0,0.0,0.0,0.0,0.0,0.0,0.0,0.0,0.0,0.0,0.0,0.0,0.0,0.0,0.0,0.0,0.0,0.0,0.0,0.0,0.0,0.0,0.0,0.0,0.0,0.0,0.0,0.0,0.0,0.0,0.0,0.0,0.0,0.0,0.0,0.0,0.0,0.0,0.0,2.1453,2.1471,0.0,0.0,0.0,0.0,0.0,0.0,0.0,0.0,0.0,0.0,0.0,0.0,0.0,2.2221,2.311,2.3257,2.3489,2.372,2.3756,2.3888,2.4043,2.4043,2.4091,2.42,2.4152,0.0,2.2879,2.2767,0.0,0.0,0.0,0.0,0.0,0.0,0.0,0.0,0.0,0.0,0.0,0.0,0.0,0.0,0.0,0.0,0.0,0.0,0.0,0.0,0.0,1.9069,1.9476,1.9673,1.9944,1.9998,1.9684,0.0,0.0,0.0,0.0,1.9263,1.9133,1.9133,1.9434,2.0027,2.0651,2.084,2.0663,2.0165,1.9925,1.9803,1.7131,1.4801,1.2807,1.1223,0.0,0.0,0.0,0.0,0.0,0.0,0.0,0.0,0.0,0.0,0.0,0.0,0.0,0.0,0.0,0.0,0.0,0.0,0.0,0.0,0.0,0.0,0.0,0.0,0.0,0.0,0.0,0.0,0.0,0.0,0.0,0.0,0.0,0.0,0.0,0.0,0.0,0.0,0.0,2.1903,2.2301,2.2478,2.259,2.2553,0.0,0.0,0.0,0.0,0.0,0.0,0.0,0.0,0.0,2.2844,2.2855,2.3062,2.3514,2.3854,2.3647,2.3005,2.3756,2.3913,2.353,2.353,2.3641,2.3861,2.3861,2.3787,2.3677,2.3446,2.2953,2.2419,0.0,0.0,0.0,0.0,2.1814,2.152,0.0,0.0,0.0,0.0,0.0,0.0,0.0,0.0,0.0,0.0,0.0,0.0,1.9562,2.0234,2.0765,2.1009,2.1561,2.1763,2.1434,2.1645,0.0,0.0,2.1355,2.1437,2.1274,2.1592,2.1867,2.2018,2.2754,2.3037,2.2808,2.2317,2.1886,2.1489,2.0285,1.7933,1.4881,1.3217,1.1662,1.0106,0.0,0.0,0.0,0.0,0.0,0.0,0.0,0.0,0.0,0.0,0.0,0.0,0.0,0.0,0.0,0.0,0.0,0.0,0.0,0.0,0.0,0.0,0.0,0.0,0.0,0.0,0.0,0.0,0.0,0.0,0.0,0.0,0.0,0.0,0.0,0.0,0.0,2.2596,2.2979,2.3075,2.315,2.3075,0.0,0.0,0.0,0.0,0.0,0.0,2.3187,2.3722,2.4061,2.411,2.4097,2.4145,2.4241,2.4696,2.4337,2.3217,2.3902,2.3986,2.3497,2.3224,2.3335,2.3751,2.3861,2.408,2.4345,2.4043,2.3787,2.3593,2.3364,2.318,2.2995,2.2995,2.2745,2.2279,0.0,0.0,0.0,0.0,0.0,0.0,0.0,0.0,0.0,0.0,0.0,2.0611,2.1219,2.2476,2.3318,2.3348,2.3923,2.4421,2.4658,2.4206,2.3758,2.3361,2.2874,2.2309,2.1691,2.2983,2.3386,2.2835,2.4023,2.4182,2.3444,2.3246,2.2627,2.1697,2.168,2.0575,1.8514,1.5464,1.41,1.3681,0.9928,0.0,0.0,0.0,0.0,0.0,0.0,0.0,0.0,0.0,0.0,0.0,0.0,0.0,0.0,0.0,0.0,0.0,0.0,0.0,0.0,0.0,0.0,0.0,0.0,0.0,0.0,0.0,0.0,0.0,0.0,0.0,0.0,0.0,0.0,0.0,0.0,0.0,0.0,2.2515,2.2777,0.0,0.0,0.0,0.0,2.4646,2.4539,2.4731,2.5382,2.5453,2.5571,2.5758,2.5793,2.5921,2.6242,2.6277,2.6277,2.6161,2.5134,2.4755,2.4862,2.3801,2.3593,2.42,2.4574,2.4754,2.4754,2.4754,2.4309,2.3629,2.3913,2.361,2.2995,2.2995,2.2745,2.2365,0.0,0.0,0.0,0.0,0.0,0.0,0.0,0.0,0.0,1.9998,2.0835,2.1667,2.2421,2.3225,2.4018,2.4826,2.5405,2.5895,2.6302,2.6465,2.6356,2.5904,2.5838,2.5695,2.5434,2.624,2.6308,2.5667,2.6242,2.6067,2.5229,2.4636,2.4108,2.3588,2.2962,2.214,2.1038,1.8408,1.6464,1.4961,1.2862,1.1241,0.0,0.0,0.0,0.0,0.0,0.0,0.0,0.0,0.0,0.0,0.0,0.0,0.0,0.0,0.0,0.0,0.0,0.0,0.0,0.0,0.0,0.0,0.0,0.0,0.0,0.0,0.0,0.0,0.0,0.0,0.0,0.0,0.0,0.0,0.0,0.0,0.0,2.4457,2.4648,0.0,2.4407,2.4358,2.4502,2.479,2.4933,2.5206,2.5571,2.5723,2.5875,2.6097,2.5723,2.5652,2.601,2.6148,2.6092,2.5812,2.6032,2.572,2.4981,2.4587,2.4467,2.461,2.4754,2.4921,2.5111,2.5265,2.5147,2.4886,2.4874,2.4862,2.4826,2.4576,2.4324,2.3961,0.0,0.0,0.0,0.0,0.0,0.0,0.0,0.0,0.0,2.0899,2.1904,2.2822,2.3601,2.45,2.5486,2.6567,2.7131,2.7641,2.8209,2.8096,2.803,2.7976,2.7805,2.7769,2.7835,2.8149,2.8084,2.7637,2.7769,2.7537,2.6973,2.6126,2.5522,2.511,2.4133,2.3379,2.2675,2.1181,1.9104,1.6725,1.5085,1.3858,1.289,0.0,0.0,0.0,0.0,0.0,0.0,0.0,0.0,0.0,0.0,0.0,0.0,0.0,0.0,0.0,0.0,0.0,0.0,0.0,0.0,0.0,0.0,0.0,0.0,0.0,0.0,0.0,0.0,0.0,0.0,0.0,0.0,0.0,0.0,2.5473,2.5894,2.5638,2.5847,2.5859,2.5522,2.5616,2.5606,2.5371,2.5664,2.5826,2.5793,2.5945,2.6084,2.6305,2.5933,2.5826,2.6079,2.6299,2.6355,2.6296,2.6582,2.6458,2.5941,2.5417,2.5194,2.5277,2.5206,2.5265,2.5418,2.5861,2.6082,2.6117,2.5664,2.5688,2.5875,2.5535,2.5241,2.4826,0.0,0.0,0.0,0.0,0.0,0.0,0.0,2.0225,2.0887,2.1815,2.3058,2.4137,2.4799,2.6467,2.7854,2.8588,2.9137,2.9739,3.0503,2.923,2.875,2.9527,2.8753,2.8395,2.8588,2.862,2.8588,2.8556,2.8556,2.8556,2.8492,2.7637,2.6841,2.6061,2.5204,2.4361,2.3588,2.3588,2.1996,1.9207,1.6554,1.5707,1.5792,0.0,0.0,0.0,0.0,0.0,0.0,0.0,0.0,0.0,0.0,0.0,0.0,0.0,0.0,0.0,0.0,0.0,0.0,0.0,0.0,0.0,0.0,0.0,0.0,0.0,0.0,0.0,0.0,0.0,0.0,0.0,0.0,0.0,2.5564,2.5648,2.5881,2.5894,2.6227,2.6433,2.6467,2.709,2.7217,2.6483,2.6731,2.6722,2.627,2.6236,2.6339,2.6499,2.6499,2.6589,2.6714,2.6905,2.7276,2.7809,2.69,2.6934,2.7743,2.6227,2.5789,2.6198,2.6037,2.5828,2.5746,2.6595,2.7048,2.7129,2.6267,2.5945,2.5898,2.5688,2.5347,2.4826,0.0,0.0,0.0,0.0,0.0,0.0,0.0,2.1239,2.2101,2.2683,2.4465,2.5892,2.6414,2.7829,2.9072,2.9891,3.0116,3.0576,3.1462,3.1152,3.0894,3.0867,3.0881,3.0793,3.0601,3.0852,3.0556,2.9723,2.9877,2.9521,2.8712,2.8468,2.826,2.8005,2.7465,2.6599,2.5554,2.5783,2.4602,2.236,2.0111,1.9433,1.9522,0.0,0.0,0.0,0.0,0.0,0.0,0.0,0.0,0.0,0.0,0.0,0.0,0.0,0.0,0.0,0.0,0.0,0.0,0.0,0.0,0.0,0.0,0.0,0.0,0.0,0.0,0.0,0.0,0.0,0.0,0.0,2.9504,2.9101,2.7664,2.7557,2.767,2.7815,2.7584,2.7517,2.7736,2.7617,2.7517,2.7571,2.7657,2.7471,2.6939,2.7074,2.7007,2.6658,2.6807,2.7011,2.7302,2.7323,2.759,2.8,2.7756,2.7623,2.7556,2.7129,2.6892,2.6803,2.6994,2.7015,2.7002,2.7591,2.7887,2.7822,2.6786,2.6607,2.6722,2.5721,2.5147,2.4814,0.0,0.0,0.0,0.0,0.0,0.0,0.0,2.1908,2.283,2.3855,2.5559,2.7004,2.7805,2.9188,3.0383,3.1171,3.1326,3.1689,3.2449,3.2394,3.2185,3.179,3.2086,3.2127,3.1944,3.2142,3.1916,3.1245,3.1375,3.1071,3.0422,2.9924,2.9801,2.9972,2.8975,2.8341,2.7943,2.7787,2.7061,2.593,2.4247,2.3069,2.2142,2.0658,2.0379,2.0787,2.0387,2.0501,2.0711,1.9966,0.0,0.0,0.0,0.0,0.0,0.0,0.0,0.0,0.0,0.0,0.0,0.0,0.0,0.0,0.0,0.0,0.0,0.0,0.0,0.0,0.0,0.0,0.0,0.0,3.021,3.0088,2.938,2.903,2.8757,2.8619,2.8444,2.843,2.8638,2.861,2.8565,2.8468,2.8583,2.8454,2.7914,2.7716,2.7497,2.7263,2.71,2.7113,2.7403,2.7469,2.7703,2.8112,2.8164,2.8099,2.7967,2.7802,2.759,0.0,2.743,2.7517,2.7604,2.8143,2.8436,0.0,0.0,0.0,0.0,0.0,2.5253,2.5016,0.0,0.0,0.0,0.0,0.0,0.0,0.0,2.2383,2.3364,2.509,2.6534,2.7891,2.9094,3.0558,3.1699,3.2351,3.2571,3.2861,3.3335,3.3219,3.2933,3.2528,3.2714,3.2848,3.2848,3.2848,3.2848,3.2779,3.2795,3.2795,3.2698,3.163,3.1401,3.1794,3.0153,2.9836,3.0425,2.9759,2.9434,2.9344,2.847,2.662,2.4218,2.3025,2.2845,2.3116,2.2353,2.2596,2.3116,2.2453,0.0,0.0,0.0,0.0,0.0,0.0,0.0,0.0,0.0,0.0,0.0,0.0,0.0,0.0,0.0,0.0,0.0,0.0,0.0,0.0,0.0,0.0,0.0,0.0,3.0615,3.0748,3.0822,3.0195,2.9549,2.8944,2.9085,2.9243,2.9275,2.9789,2.9865,2.932,2.9574,2.9498,2.8949,0.0,0.0,0.0,0.0,2.7335,2.7436,2.759,2.7822,2.8177,2.83,2.8495,2.8683,2.836,2.8099,2.7888,2.7756,2.7776,2.7966,2.8541,2.894,2.9131,2.8371,2.7736,2.7129,2.6104,2.5629,2.5488,0.0,0.0,0.0,0.0,0.0,0.0,0.0,2.2929,2.4287,2.5813,2.7993,2.9727,3.0513,3.1982,3.294,3.3103,3.3135,3.3277,3.3591,3.3797,3.3857,3.3764,3.379,3.3841,3.3841,3.3841,3.363,3.3271,3.3439,3.3308,3.2933,3.2687,3.266,3.2725,3.2341,3.1949,3.1637,3.21,3.1678,3.0689,3.1078,2.9873,2.7749,2.6835,2.7009,2.7722,2.7551,2.7584,2.763,2.6832,2.6573,2.6539,2.6211,2.5995,0.0,0.0,0.0,0.0,0.0,0.0,0.0,0.0,0.0,0.0,0.0,0.0,0.0,0.0,0.0,0.0,0.0,0.0,0.0,3.1722,3.202,3.202,3.1564,3.1463,3.1203,3.0541,3.0224,3.0162,3.0434,3.0249,3.0172,3.0296,3.0477,3.0282,2.9654,2.9747,2.9577,2.9075,2.9016,2.8776,2.8254,2.8449,2.8578,2.8675,0.0,0.0,2.9153,2.9089,2.8849,2.8457,2.8683,2.8958,2.9275,2.9634,2.9865,2.982,2.8962,2.8143,2.7384,2.6833,2.6641,2.6552,0.0,0.0,0.0,0.0,0.0,0.0,0.0,2.3764,2.4792,2.6694,2.8737,3.0256,3.0881,3.2358,3.3309,3.3309,3.3555,3.3882,3.4325,3.4617,3.4785,3.48,3.4934,3.5005,3.5005,3.5005,3.48,3.4399,3.4496,3.448,3.4349,3.4079,3.4129,3.443,3.4023,3.3802,3.3693,3.3876,3.3589,3.3016,3.3265,3.2699,3.1523,2.9924,2.9574,2.9994,3.0114,3.0158,3.0068,2.9555,2.9327,2.919,2.8768,2.8565,2.8515,0.0,0.0,0.0,0.0,0.0,0.0,0.0,0.0,0.0,0.0,0.0,0.0,0.0,0.0,3.1116,3.1537,0.0,3.1851,3.233,3.2496,3.2551,3.2425,3.2465,3.2102,3.1042,3.0852,3.0911,3.1072,3.0851,3.0807,3.1029,3.0896,3.0732,3.0553,3.0403,3.019,2.9917,2.9642,2.9393,2.9156,2.9251,2.9362,2.9504,2.9552,2.9721,2.9886,2.9563,2.9251,2.9044,2.9233,2.9498,2.9839,3.016,3.0251,3.016,2.9637,2.8931,2.8032,2.725,2.7082,2.7162,0.0,0.0,0.0,0.0,0.0,0.0,0.0,0.0,2.547,2.7804,2.927,3.0437,3.1201,3.2477,3.3282,3.3309,3.3848,3.4366,3.4871,3.526,3.5509,3.5565,3.5781,3.5907,3.5907,3.5907,3.5776,3.5498,3.5543,3.5638,3.5786,3.5403,3.5492,3.5981,3.5411,3.5406,3.5735,3.5372,3.5287,3.537,3.5182,3.5093,3.4857,3.295,3.2048,3.1808,3.1854,3.1897,3.1885,3.1632,3.1566,3.1524,3.1228,3.1142,3.1142,3.1157,3.123,0.0,0.0,0.0,0.0,0.0,0.0,0.0,0.0,3.2342,3.2066,3.2219,3.2135,3.2122,3.2247,3.2274,3.2358,3.2621,3.2676,3.2784,3.3043,3.3123,3.2699,3.1519,3.1534,3.1635,3.1635,3.1551,3.1495,3.1508,3.1234,3.1131,3.1278,3.0807,3.0583,3.0673,3.0178,2.9919,2.9981,3.0011,3.0149,3.0392,3.0436,3.054,3.0673,3.0133,2.9813,2.969,2.9766,2.995,3.0254,3.0569,3.0644,3.0539,3.0357,2.9884,2.9156,2.7881,2.753,2.7663,0.0,0.0,0.0,0.0,0.0,0.0,0.0,0.0,0.0,2.9195,3.014,3.1158,3.2523,3.2935,3.3176,3.3282,3.4,3.4472,3.4554,3.5316,3.5744,3.5766,3.5842,3.5907,3.5907,3.5907,3.5885,3.5842,3.602,3.6109,3.6151,3.6264,3.637,3.6429,3.6473,3.6554,3.6654,3.6733,3.6773,3.6792,3.6853,3.6851,3.6716,3.6566,3.5694,3.4519,3.4168,3.4072,3.4079,3.3716,3.3588,3.3613,3.3721,3.3763,3.3662,3.3019,3.3051,3.3109,3.2311,3.2505,3.2971,3.3024,3.3245,3.3479,0.0,3.3235,3.2879,3.3039,3.2695,3.2398,3.2523,3.2566,3.2621,3.2843,3.2978,3.3043,3.3096,3.3203,3.3214,3.3065,3.2711,3.2477,3.2477,3.2296,3.199,3.1537,3.1779,3.1751,3.1307,3.1351,3.138,3.138,3.1322,3.1087,3.0673,3.0807,3.0925,3.1086,3.1276,3.1364,3.1393,3.1291,3.097,3.0389,3.0703,3.0911,3.1072,3.1291,3.1451,3.1495,3.1058,3.1014,3.0999,2.9435,2.8716,2.8346,0.0,0.0,0.0,0.0,0.0,0.0,0.0,0.0,0.0,0.0,3.0026,3.0955,3.1664,3.2617,3.3461,3.4118,3.4488,3.4968,3.5611,3.6067,3.6339,3.6385,3.6471,3.6553,3.6553,3.6553,3.6495,3.6416,3.6516,3.6643,3.6829,3.6927,3.7099,3.7324,3.7614,3.7667,3.7506,3.7772,3.7826,3.7756,3.7827,3.7809,3.7756,3.7861,3.7542,3.6961,3.6273,3.6042,0.0,3.5341,3.5132,3.5057,3.4671,3.4592,3.46,3.4301,3.4333,3.4333,3.3671,3.403,3.4471,3.402,3.3978,3.4119,3.4276,3.3869,3.3547,3.3735,3.3608,3.3495,3.3624,3.3665,3.3716,3.386,3.3935,3.3986,3.4077,3.3908,3.3822,3.3975,3.3549,3.3235,3.3235,3.3055,3.2906,3.2776,3.268,3.2555,3.2391,3.2528,3.2625,3.2625,3.2691,3.2528,3.2071,3.2142,3.2059,3.1905,3.1977,3.202,3.202,3.1652,3.1335,3.1087,3.1219,3.1566,3.1992,3.1838,3.1752,3.168,3.1393,3.1131,3.0792,2.9718,2.9359,2.9265,0.0,0.0,0.0,0.0,0.0,0.0,0.0,0.0,0.0,0.0,0.0,3.0837,3.1391,3.2559,3.3668,3.4521,3.4738,3.5214,3.6199,3.6544,3.6725,3.6809,3.6928,3.7048,3.7166,3.7106,3.7089,3.7094,3.715,3.7284,3.7542,3.7649,3.7876,3.818,3.8502,3.8514,3.8337,3.8579,3.8646,3.8569,3.8496,3.8483,3.8462,3.8481,3.8528,3.8476,3.772,3.7469,3.736,3.6698,3.6414,3.6246,3.5761,3.5531,3.547,3.5487,3.5419,3.5261,3.4985,3.5357,3.5683,3.5163,3.5071,3.5111,3.5131,3.4704,3.4293,3.4399,3.4309,3.426,3.4431,3.4455,3.4503,3.464,3.4664,3.4704,3.4793,3.4545,3.4415,3.461,3.4374,3.4152,3.4084,3.3834,3.3697,3.3694,3.3455,3.3266,3.3182,3.3287,3.3339,3.3339,3.3453,3.3417,3.3172,3.3182,3.3093,3.283,3.283,3.283,3.283,3.2407,3.213,3.1962,3.1962,3.2216,3.2594,3.2413,3.216,3.1949,3.1962,3.1593,3.0955,3.0284,2.9966,2.9766,0.0,0.0,0.0,0.0,0.0,0.0,0.0,0.0,0.0,0.0,0.0,0.0,0.0,3.3123,3.3529,3.4075,3.4537,3.5058,3.5676,3.6343,3.6725,3.6809,3.6928,3.7186,3.756,3.7393,3.7485,3.7877,3.7999,3.8083,3.8183,3.8572,3.8788,3.8877,3.8947,3.904,3.916,3.9173,3.9221,3.9249,3.8984,3.8884,3.8872,3.8728,3.8735,3.8728,3.8251,3.8099,3.813,3.7771,3.7433,3.7227,3.7524,3.7171,3.6667,3.6726,3.6326,3.5912,3.6088,3.6253,3.6416,3.6586,3.6744,3.6721,3.6346,3.5825,3.5346,3.5028,3.4544,3.4284,3.4552,3.4576,3.464,3.4769,3.4793,3.4793,3.4793,3.4894,3.4988,3.4971,3.5272,3.5317,3.4998,3.4675,3.4234,3.3745,3.3924,3.3815,3.3251,3.3209,3.3224,3.3224,3.3339,3.3469,3.3582,3.371,3.3827,3.396,3.396,3.396,3.396,3.3919,3.364,3.3145,3.3145,3.2922,3.2633,3.3002,3.2938,3.2605,3.3002,3.2815,3.2287,3.1652,3.0615,2.9504,0.0,0.0,0.0,0.0,0.0,0.0,0.0,0.0,0.0,0.0,0.0,0.0,0.0,0.0,0.0,0.0,3.4521,3.5028,3.5599,3.6297,3.6722,3.6725,3.6908,3.7186,3.7578,3.7487,3.7721,3.8298,3.8348,3.8462,3.8603,3.8773,3.895,3.9087,3.9124,3.9173,3.9272,3.9219,3.92,3.9221,3.9137,3.9022,3.8896,3.896,3.8892,3.8803,0.0,3.8792,3.8615,3.8227,3.8011,3.791,3.7805,3.7666,3.7578,3.7754,3.7542,3.7212,3.7156,3.7039,3.6919,3.6843,3.688,3.686,3.6739,3.6563,3.6426,3.6467,3.6329,3.6187,3.6121,3.6117,3.6049,3.582,3.5793,3.5793,3.5793,3.5571,3.5464,3.5655,3.5459,3.5368,3.5521,3.527,0.0,3.4521,3.457,3.4529,3.4341,3.4415,3.4464,3.4464,3.4586,3.4513,3.4218,3.4226,3.4143,3.3917,3.3917,3.3917,3.3917,3.3917,3.3841,3.3662,3.3707,3.364,3.3527,3.3665,3.364,3.3527,3.3681,3.3614,3.3381,3.281,3.2314,3.1726,0.0,0.0,0.0,0.0,0.0,0.0,0.0,0.0,0.0,0.0,0.0,0.0,0.0,0.0,0.0,0.0,0.0,3.5028,3.5599,3.6276,3.6708,3.693,3.7069,3.7413,3.7978,3.7894,3.8148,3.8707,3.8707,3.88,3.895,3.9068,3.9215,3.9376,3.9376,3.9427,3.9502,3.9414,3.9439,3.9514,3.9376,3.9287,3.9255,3.9178,3.9073,0.0,3.9245,3.9232,3.9069,3.8814,3.8588,3.8387,3.8319,3.8287,3.8291,3.8291,3.8178,3.8029,3.7977,3.7824,3.7649,3.7506,3.7488,3.7433,3.7171,3.717,3.7209,3.7209,3.721,3.721,3.7114,3.7113,3.7036,3.6761,3.6739,3.6678,3.6516,3.6308,3.6139,3.617,3.5915,3.5788,3.5958,3.581,3.5588,3.527,3.5148,3.5071,3.5071,3.5041,3.5018,3.5018,3.5175,3.5105,3.4804,3.4804,3.4659,3.4399,3.4399,3.4399,3.4399,3.4448,3.4374,3.4201,3.4251,3.4185,3.4011,3.421,3.4185,3.4036,3.421,3.4185,3.396,3.3614,3.3453,3.3208,0.0,0.0,0.0,0.0,0.0,0.0,0.0,0.0,0.0,0.0,0.0,0.0,0.0,0.0,0.0,0.0,0.0,0.0,3.561,3.6156,3.6733,3.7338,3.7394,3.779,3.867,3.8566,3.8707,3.9115,3.9115,3.9156,3.921,3.9412,3.957,3.9693,3.9693,3.977,3.9878,3.9751,3.9848,4.0067,3.9682,3.967,3.9818,3.9389,3.9251,3.9298,3.9376,3.9439,3.9471,3.9502,3.9114,3.8718,3.9082,3.9036,3.8789,3.8468,3.8373,3.8389,3.8579,3.8609,3.8612,3.8538,3.8569,3.8442,3.7755,3.772,3.7738,3.736,3.7341,3.7415,3.7506,3.7542,3.7523,3.7505,3.7505,3.7377,3.6978,3.7034,3.6972,3.6568,3.6643,3.6606,3.6364,3.6322,3.622,3.5977,0.0,3.5424,3.5424,3.5125,3.4954,3.4954,3.5065,3.5175,3.5291,3.5291,3.5291,3.5314,3.5291,3.5291,3.5314,3.5446,3.5198,3.4739,3.4802,3.4553,3.4136,3.4625,3.4553,3.4136,3.4649,3.4529,3.4086,3.4061,3.4061,3.3928,0.0,0.0,0.0,0.0,0.0,0.0,0.0,0.0,0.0,0.0,0.0,0.0,0.0,0.0,0.0,0.0,0.0,0.0,3.5005,3.5582,3.6203,3.6849,3.7206,3.7703,3.8389,3.8563,3.8898,3.9399,3.9399,3.9412,3.9425,3.9533,3.9589,3.9619,3.9619,3.9672,3.9739,3.9717,3.9848,4.0077,3.9994,3.9815,3.958,3.9526,3.9285,3.9059,3.947,3.9439,3.9232,3.9439,3.935,3.9221,3.9386,3.9406,3.9375,3.929,3.9124,3.898,3.9041,3.8946,3.8829,3.8857,3.8886,3.8868,3.8802,3.8659,3.8527,3.8475,3.8323,3.8132,3.7982,3.7948,3.7861,3.756,3.7505,3.7469,3.7377,3.7377,3.7246,3.6838,3.6836,3.6856,3.6895,3.6728,3.667,0.0,3.619,3.5776,3.5776,3.5688,3.5644,3.5644,3.543,3.535,3.5373,3.5228,3.5274,3.5509,3.5274,3.5274,3.5526,3.5297,3.5175,3.5152,3.5251,3.5281,3.5201,3.5339,3.5333,3.5201,3.5339,3.5316,3.5138,3.4745,3.4857,3.5115,0.0,0.0,0.0,0.0,0.0,0.0,0.0,0.0,0.0,0.0,0.0,0.0,0.0,0.0,0.0,0.0,0.0,0.0,0.0,3.522,3.5933,3.6539,3.7054,3.7667,3.8421,3.864,3.9151,3.9967,3.9689,3.9714,4.0071,3.9752,3.9626,3.9637,3.9637,3.9708,3.9792,3.9792,3.9911,0.0,0.0,3.9826,3.967,3.9526,3.9298,3.911,3.9489,3.9464,3.9311,3.9526,3.9514,3.9405,3.9444,3.952,3.9589,3.9589,3.9483,3.9393,3.9393,3.9283,3.9202,3.9187,3.9208,3.9216,3.9192,3.9144,3.9095,3.9077,3.8919,3.8722,3.8566,3.8428,3.8285,3.8068,3.8034,3.7965,3.7791,3.7756,3.7614,3.7208,3.7152,3.7226,3.7338,3.7241,3.7223,3.745,3.6661,3.6156,3.6075,3.5972,3.5907,3.5907,3.5727,3.5566,3.5402,3.5492,3.5538,3.5509,3.5327,3.5402,3.5722,3.5441,3.5367,3.5458,0.0,3.5915,3.5832,3.6075,3.6182,3.6182,3.6182,3.6182,3.6118,3.5621,3.5683,3.592,0.0,0.0,0.0,0.0,0.0,0.0,0.0,0.0,0.0,0.0,0.0,0.0,0.0,0.0,0.0,0.0,0.0,0.0,0.0,0.0,3.5654,3.6177,3.679,3.7488,3.8321,3.8588,3.9256,4.0359,3.9801,3.9896,4.0628,3.9927,3.9631,3.9701,3.9693,3.9762,3.99,3.9911,3.9975,4.0057,3.9826,3.9751,3.9751,0.0,3.9272,3.9272,3.9401,3.9477,3.9495,3.958,3.9496,3.9373,3.9418,3.9508,3.9596,3.9608,3.9589,3.9589,3.9589,3.9602,3.9583,3.9471,3.9502,3.9508,3.9352,3.9439,3.9495,3.9389,3.9221,3.9101,3.9101,3.8925,3.8735,3.8707,3.8738,3.8624,3.8236,3.8186,3.8034,3.7632,3.7578,3.7632,3.7739,3.7721,3.7739,3.7844,3.711,3.6609,3.6451,3.6203,3.6037,3.5972,3.5972,3.5815,3.5476,3.5859,3.5898,3.556,3.5476,3.5655,3.5972,3.5744,3.565,3.5694,3.6305,0.0,3.6203,3.6701,3.69,3.69,3.69,3.69,3.686,3.6533,3.6433,3.6457,0.0,0.0,0.0,0.0,0.0,0.0,0.0,0.0,0.0,0.0,2.9927,3.107,0.0,0.0,0.0,0.0,0.0,0.0,0.0,0.0,0.0,3.5215,3.6086,3.6683,3.7013,3.7873,3.86,3.9175,3.9073,3.9288,3.9815,3.9664,3.9602,3.9607,3.9677,3.9762,3.99,4.0015,4.0007,3.9924,3.9892,3.9604,3.9245,3.9285,0.0,0.0,3.9129,3.9311,3.9477,3.9272,3.9224,3.9269,3.9502,3.9546,3.9533,3.9577,3.9589,3.9589,3.9589,3.9644,3.9689,3.9658,3.9747,3.9837,3.9943,3.9796,3.9693,3.9785,3.9421,3.9101,3.9101,3.9059,3.8964,3.8753,3.8896,3.8935,3.8643,3.8596,3.8451,3.8051,3.8,3.8017,3.8034,3.7827,3.781,0.0,3.7756,3.7468,3.7223,3.6952,3.6673,3.6402,3.6402,3.6199,3.582,3.5885,3.6054,3.6297,3.5968,3.6011,3.6381,3.6028,3.5924,3.6032,3.6308,0.0,3.6533,3.6781,3.69,3.69,3.69,3.69,3.69,3.6882,3.6902,3.6904,0.0,0.0,0.0,0.0,0.0,0.0,0.0,2.5806,2.7334,2.8787,2.9669,3.0821,3.2624,3.2544,0.0,0.0,0.0,0.0,0.0,0.0,0.0,0.0,0.0,0.0,3.6626,3.7161,3.8036,3.9322,0.0,3.9127,3.9844,3.9434,3.9248,3.9248,3.9318,3.9414,3.9551,3.9651,3.9686,3.9682,3.9551,3.9337,3.9101,0.0,0.0,0.0,3.9059,3.9178,3.9272,3.9183,3.9156,3.917,3.9335,3.9476,3.9558,3.9558,3.9583,3.9589,3.9589,3.9619,3.9661,3.9682,3.9739,3.9848,4.0046,3.9996,3.9954,4.0087,3.9785,3.9526,3.9526,3.9395,3.9219,3.895,3.9021,3.9007,3.8753,3.8707,3.8627,3.8451,3.8417,3.8417,3.8417,3.8303,3.8271,3.8401,3.8204,3.7932,3.7614,3.7595,3.7394,3.6974,3.7013,3.6759,3.622,3.6388,3.6489,3.6502,3.6478,3.656,3.6751,3.656,3.6416,3.6343,3.6941,0.0,3.6756,3.7451,3.7596,3.743,3.7523,3.7577,3.7559,3.7339,3.7322,3.7433,0.0,0.0,0.0,0.0,0.0,0.0,0.0,2.5124,2.6724,2.8124,2.9305,3.0451,3.1588,3.2382,3.2883,0.0,0.0,0.0,0.0,0.0,0.0,0.0,0.0,0.0,0.0,0.0,0.0,3.9037,3.8451,0.0,0.0,0.0,0.0,0.0,3.8839,3.8934,3.9141,3.9093,3.9133,0.0,0.0,3.8956,0.0,0.0,0.0,0.0,0.0,3.9101,3.9115,3.9156,3.9156,3.9129,3.917,3.9349,3.9558,3.9508,3.9546,3.9589,3.9589,3.9614,3.9631,3.9665,3.9682,3.9751,3.9996,4.0057,4.0087,4.0282,4.0087,3.9903,3.9903,3.9728,3.9489,3.9137,3.9156,3.9073,3.8735,3.8707,3.8707,3.8707,3.8707,3.8707,3.8707,3.8707,3.8707,3.8707,3.8517,3.8238,3.7826,3.7965,3.7896,3.7523,3.7578,3.7321,3.6713,3.7069,3.7069,3.6713,3.7057,3.7246,3.7223,3.7246,3.7094,3.6893,3.7667,0.0,0.0,3.815,3.835,3.8037,3.8189,3.8274,3.8206,3.7827,3.7791,3.7964,0.0,0.0,0.0,0.0,0.0,0.0,0.0,2.4444,2.5783,2.7134,2.8435,2.9523,3.0379,3.1597,3.2514,0.0,0.0,0.0,0.0,0.0,0.0,0.0,0.0,0.0,0.0,0.0,0.0,3.6865,3.6831,0.0,0.0,0.0,0.0,0.0,0.0,3.8489,3.8976,3.8446,0.0,0.0,0.0,0.0,0.0,0.0,0.0,0.0,0.0,3.9101,3.9101,3.9115,3.9142,3.9183,3.9129,3.9242,3.9431,3.9482,3.9546,3.9589,3.9589,3.9637,3.9677,3.9619,3.9661,3.9739,3.9889,3.9911,3.9994,4.0244,4.0087,3.9903,3.9903,3.9881,3.9705,3.9178,3.9311,3.9285,3.8765,3.8707,3.8707,3.8707,3.8707,3.8707,3.8707,3.8707,3.8707,3.8707,3.8716,3.8478,3.7826,3.7878,3.7911,3.786,3.7982,3.7844,3.7414,3.7791,3.7791,3.7414,3.7809,3.8,3.8,3.8,3.7965,3.7983,3.8234,0.0,0.0,3.8556,3.8652,3.8446,3.8462,3.8478,3.8446,3.8289,3.835,3.8551,0.0,0.0,0.0,0.0,0.0,0.0,2.2035,2.3298,2.4562,2.6146,2.7516,2.8621,2.9496,3.0686,3.1771,0.0,0.0,0.0,0.0,0.0,0.0,0.0,0.0,0.0,0.0,0.0,3.5329,3.6125,3.6267,0.0,0.0,0.0,0.0,0.0,0.0,3.7453,3.7769,3.7541,0.0,0.0,0.0,0.0,0.0,0.0,0.0,0.0,0.0,0.0,3.873,3.896,3.9073,3.9142,3.9115,3.917,3.9301,3.9418,3.9495,3.9546,3.9596,3.9607,3.9631,3.9602,3.9607,3.9703,3.9856,3.9826,3.9848,4.0127,4.0036,3.9914,4.0015,4.0007,3.9914,3.9635,3.9539,3.9376,3.8974,3.8792,3.8707,3.8707,3.8707,3.8707,3.8707,3.8707,3.8707,3.8707,3.8719,3.8624,3.8352,3.8491,3.8457,3.82,3.833,3.8232,3.7861,3.8034,3.8034,3.7861,3.8214,3.8298,3.8101,3.8314,3.8281,3.8118,3.8489,0.0,0.0,3.8781,3.8829,3.8525,3.8664,3.8743,3.8725,3.8667,3.8743,3.8869,0.0,0.0,0.0,0.0,0.0,1.9196,2.1542,2.2635,2.3831,2.5574,2.6935,2.8051,2.9013,3.0126,3.1095,3.183,0.0,0.0,0.0,0.0,0.0,0.0,0.0,0.0,0.0,0.0,3.4576,3.5205,3.5615,3.5959,0.0,0.0,3.6405,3.6686,0.0,0.0,0.0,0.0,0.0,0.0,0.0,0.0,0.0,0.0,0.0,0.0,0.0,0.0,0.0,0.0,0.0,3.8956,3.8956,3.9041,3.9197,3.936,3.9444,3.9508,3.9577,3.9589,3.9589,3.9589,3.9589,3.965,3.9811,3.9781,3.9762,3.9986,3.9973,3.9933,4.0086,4.0106,4.0036,3.9826,3.9811,3.9731,3.9402,3.9157,3.9056,3.9056,3.8836,3.8707,3.8707,3.8707,3.8707,3.8707,3.8707,3.8707,3.8707,3.8851,3.8818,3.8556,3.8646,3.8535,3.8249,3.8332,3.8332,3.8249,3.8597,3.8628,3.8394,3.8643,3.8628,3.841,3.8763,0.0,0.0,3.8984,3.9031,3.8691,3.8921,3.8993,3.8979,3.8921,3.8979,3.9096,0.0,0.0,0.0,0.0,0.0,0.0,2.1625,2.2635,2.3831,2.5574,2.6812,2.7931,2.8961,3.0012,3.0683,3.0882,0.0,0.0,0.0,0.0,0.0,0.0,0.0,0.0,0.0,0.0,3.3547,3.3811,3.4545,3.5178,3.5698,3.5633,3.6011,3.6666,0.0,0.0,0.0,0.0,0.0,0.0,0.0,0.0,0.0,0.0,0.0,0.0,0.0,0.0,0.0,0.0,0.0,0.0,0.0,3.8836,3.9129,3.9346,3.9444,3.9508,3.9577,3.9589,3.9589,3.9589,3.9589,3.9626,3.9701,3.9705,3.9739,3.9878,3.99,3.9933,4.0086,4.0106,3.9965,3.9575,4.0165,4.0499,3.9958,3.9898,3.9882,3.9882,3.9184,3.8707,3.8707,3.8707,3.8707,3.8707,3.8707,0.0,3.8707,3.8762,3.8837,3.8877,3.891,3.88,3.8594,3.8859,3.8859,3.8594,3.8942,3.9101,3.9087,3.9101,3.9101,0.0,0.0,0.0,0.0,3.9266,3.9275,3.9101,3.917,3.9197,3.917,3.8964,3.9036,3.9245,0.0,0.0,0.0,0.0,0.0,0.0,0.0,2.2849,2.4083,2.6019,2.725,2.8267,2.9184,2.9741,3.0062,3.0139,0.0,0.0,0.0,0.0,0.0,0.0,0.0,0.0,0.0,0.0,3.2772,3.2986,3.3397,3.3726,3.3996,3.4053,3.4471,3.5101,3.4552,3.4948,0.0,0.0,0.0,0.0,0.0,0.0,0.0,0.0,0.0,0.0,0.0,0.0,0.0,0.0,0.0,0.0,0.0,0.0,0.0,3.9156,3.9328,3.9444,3.952,3.9571,3.9589,3.9589,3.9589,3.9626,3.967,3.9654,3.9668,3.9747,3.972,3.975,3.9933,3.9796,3.9882,4.0495,4.0502,4.0551,4.0955,4.0835,4.0524,3.9955,3.9184,3.8707,3.8707,0.0,3.8707,3.8707,3.875,3.878,3.878,3.8792,3.8837,3.891,3.8935,3.8964,3.8942,3.9031,3.9031,3.8942,3.9059,3.9101,3.9101,3.9101,3.9101,0.0,0.0,0.0,0.0,3.957,3.9606,3.9526,3.9635,3.9682,3.967,3.9611,3.9721,3.9899,0.0,0.0,0.0,0.0,0.0,0.0,0.0,2.3033,2.4397,2.6113,2.7331,2.8347,2.9289,2.956,2.9702,2.9792,0.0,0.0,0.0,0.0,0.0,0.0,0.0,0.0,0.0,3.1942,3.2114,3.2256,3.2761,3.3039,3.3119,3.3303,3.3614,3.4003,3.3726,3.4103,0.0,0.0,0.0,0.0,0.0,0.0,3.5688,0.0,0.0,0.0,0.0,0.0,0.0,0.0,0.0,0.0,0.0,0.0,0.0,0.0,3.9059,3.9188,3.9425,3.9533,3.9571,3.9577,3.9589,3.9614,3.9649,3.9631,3.9614,3.9661,3.9631,3.9619,3.9701,3.9599,3.9777,4.0597,4.0728,4.0993,4.169,4.1648,4.1148,4.0029,3.9184,3.8707,0.0,3.8707,3.8707,3.8707,3.8735,3.8762,3.8807,3.8807,3.8892,3.9073,3.8979,3.8979,3.9101,3.9073,3.9073,3.9101,3.9101,3.9101,3.9101,3.9101,3.9101,0.0,0.0,0.0,0.0,3.9777,3.9829,3.9751,3.9937,3.9977,3.9914,3.9979,4.01,4.0214,0.0,0.0,0.0,0.0,0.0,0.0,0.0,0.0,2.4687,2.597,2.7128,2.8239,2.9302,2.9419,2.9521,2.9792,0.0,0.0,0.0,0.0,0.0,0.0,0.0,0.0,3.1325,3.1457,3.1508,3.1507,3.2348,3.2783,3.2826,3.313,3.3313,3.3339,3.3427,3.3582,3.3761,3.3919,3.4102,3.4284,3.4374,3.448,0.0,0.0,0.0,0.0,0.0,0.0,0.0,0.0,0.0,0.0,0.0,0.0,0.0,0.0,0.0,0.0,0.0,3.9457,3.9508,3.9583,3.9577,3.9589,3.9589,3.9589,0.0,3.9589,3.9589,3.9564,3.9433,3.9477,3.97,4.0125,4.0963,4.1758,4.2301,4.2286,4.1662,4.0157,3.9221,3.8707,3.8707,3.8707,3.8707,3.8707,3.8723,0.0,3.8822,3.8822,3.9007,3.9389,3.9031,3.8935,3.9129,3.905,3.905,3.9129,3.9129,3.9129,3.9129,3.9137,3.9137,0.0,0.0,0.0,0.0,3.9912,3.996,3.9862,4.011,4.011,3.9977,4.0158,4.0232,4.0276,0.0,0.0,0.0,0.0,0.0,0.0,0.0,0.0,0.0,0.0,2.7452,2.8478,2.9573,2.9702,2.974,0.0,0.0,0.0,0.0,0.0,0.0,0.0,0.0,0.0,2.9816,2.9845,2.9746,2.9487,3.0316,3.0793,3.0955,3.1794,3.2398,3.2776,3.2492,3.2668,3.3209,3.3767,3.4095,3.4227,3.4342,3.4488,0.0,0.0,0.0,0.0,3.5864,3.6139,0.0,0.0,0.0,0.0,0.0,0.0,0.0,0.0,3.8216,3.8281,3.8455,0.0,3.9444,3.9508,3.952,3.9533,0.0,3.9589,3.9589,3.9589,3.9589,3.957,3.9489,3.9829,4.0342,4.1063,4.1699,4.2369,4.3111,4.2158,4.1242,4.0857,3.957,3.8707,3.8707,3.8707,3.8719,3.8762,3.8822,3.8881,3.8935,3.895,3.9115,3.9477,3.9337,3.9298,3.9414,3.9197,3.9197,3.9414,3.9414,3.9414,3.9408,3.9566,3.9543,0.0,0.0,0.0,4.0063,4.023,4.0285,4.0267,4.0381,4.0389,4.0372,4.0468,4.061,4.0751,0.0,0.0,0.0,0.0,0.0,0.0,0.0,0.0,0.0,0.0,0.0,0.0,0.0,0.0,0.0,0.0,0.0,0.0,0.0,0.0,0.0,0.0,0.0,3.0116,3.0126,2.9842,2.9476,2.9024,2.9559,2.9785,2.9721,3.0673,3.1146,3.1203,3.1436,3.1779,3.2223,3.296,3.3329,3.3459,3.3553,0.0,0.0,0.0,0.0,0.0,3.5266,3.5715,0.0,3.6451,3.6753,3.7029,0.0,0.0,0.0,0.0,3.7826,3.7879,3.8082,3.8486,3.8869,3.8942,3.8956,3.8984,3.911,3.9205,3.9317,3.9388,3.9496,3.9577,3.9464,4.0002,4.0658,4.1345,4.1976,4.2564,4.3053,4.2162,4.1282,4.0797,3.9752,3.8979,0.0,3.8807,3.8866,3.8807,3.8837,3.895,3.917,3.9183,3.9389,3.9802,3.9667,3.9549,3.9514,3.9452,3.9452,3.9495,3.9597,3.9644,3.9637,3.9742,3.9731,0.0,0.0,0.0,4.022,4.0414,4.0457,4.0414,4.0534,4.0566,4.0563,4.0697,4.083,4.0957,0.0,0.0,0.0,0.0,0.0,0.0,0.0,0.0,0.0,0.0,0.0,0.0,0.0,0.0,0.0,0.0,0.0,0.0,0.0,0.0,0.0,0.0,0.0,3.02,3.0744,3.0284,2.973,2.902,2.9354,2.9272,2.8907,2.9766,2.9919,2.9566,3.0421,3.0955,3.1232,3.1934,3.2342,3.2578,3.2578,0.0,0.0,0.0,0.0,0.0,0.0,0.0,0.0,3.6011,3.6468,3.693,3.697,0.0,0.0,0.0,0.0,0.0,3.7826,3.7998,3.813,3.8243,3.8275,3.8342,3.8499,3.8711,3.89,3.9082,3.9309,3.9458,3.9369,4.0008,4.0766,4.136,4.2097,4.2579,4.2529,4.203,4.1314,4.0354,3.9776,0.0,3.881,3.8989,3.9087,3.8892,0.0,3.9087,3.9389,3.9433,3.9679,4.0177,3.9973,3.9783,3.9616,3.9739,3.9739,3.9616,3.9783,3.9851,3.9861,3.9893,3.9893,3.9891,0.0,0.0,4.0283,4.0516,4.0539,4.0454,4.0647,4.0681,4.0653,4.0844,4.0953,4.1003,0.0,0.0,0.0,0.0,0.0,0.0,0.0,0.0,0.0,0.0,0.0,0.0,0.0,0.0,0.0,0.0,0.0,0.0,0.0,0.0,0.0,2.996,2.9896,2.9644,2.9262,2.9296,2.8869,2.7844,2.8633,2.8799,2.8403,2.9139,2.9563,2.9766,2.9919,3.0451,3.1203,3.1333,3.1777,3.2425,3.2551,0.0,0.0,0.0,0.0,0.0,0.0,0.0,0.0,3.5798,3.6305,3.6626,3.6908,0.0,0.0,0.0,0.0,0.0,3.7164,3.7376,3.7703,3.8114,3.8212,3.8245,3.8326,3.8499,3.8655,3.8703,3.8855,3.9021,3.9059,3.9812,4.0714,4.161,4.2459,4.2712,4.1813,4.1025,4.0395,4.0007,0.0,3.9129,3.9045,3.9285,3.9389,0.0,0.0,3.9551,3.9489,3.9656,3.988,4.0196,4.0158,4.012,4.0091,3.9901,3.9901,4.0091,4.012,4.0139,4.0148,4.0311,4.0294,4.0148,0.0,4.0543,4.0539,4.0579,4.0593,4.0581,4.0738,4.0771,4.0784,4.0932,4.0981,4.1009,0.0,0.0,0.0,0.0,0.0,0.0,0.0,0.0,0.0,0.0,0.0,0.0,0.0,0.0,0.0,0.0,0.0,0.0,0.0,0.0,0.0,2.9792,2.9792,2.9743,2.9542,2.9327,2.8856,2.8211,2.8287,2.8106,2.7776,2.8157,2.8597,2.9125,2.93,2.9614,3.006,3.06,3.1247,3.1908,0.0,0.0,0.0,0.0,0.0,0.0,0.0,0.0,0.0,0.0,3.6058,3.6708,3.6928,0.0,0.0,0.0,0.0,0.0,3.7027,3.7261,3.7613,3.7825,3.8047,3.8247,3.8394,3.8576,3.8755,3.8766,3.8917,3.9087,3.921,3.9912,4.0828,4.1798,4.236,4.229,4.1231,4.0998,4.0634,0.0,0.0,3.9635,3.935,3.9563,3.967,0.0,0.0,0.0,3.9867,3.9972,4.012,4.0356,4.0356,4.0356,4.0356,4.023,4.0185,4.0205,4.0313,4.0356,4.0364,4.0457,4.0457,4.0364,0.0,4.0591,4.0641,4.0642,4.0706,4.0768,4.084,4.0876,4.0924,4.1017,4.1044,4.1051,0.0,0.0,0.0,0.0,0.0,0.0,0.0,0.0,0.0,0.0,0.0,0.0,0.0,0.0,0.0,0.0,0.0,0.0,0.0,0.0,2.9654,2.9779,2.9869,2.9934,3.0049,2.9517,2.9094,2.869,2.8136,2.7674,2.7302,2.7436,2.7809,2.8352,2.8602,2.8857,2.9111,2.9903,3.0673,3.1393,0.0,0.0,0.0,0.0,0.0,0.0,0.0,0.0,0.0,0.0,0.0,0.0,0.0,0.0,0.0,3.7007,3.7143,3.7259,3.7105,3.7354,3.7649,3.7703,3.7929,3.818,3.8394,3.8655,3.8828,3.8829,3.8946,3.9096,3.9311,4.0108,4.0942,4.1576,4.192,4.1738,4.0665,4.0873,4.0712,3.9619,3.9933,4.0038,3.9635,3.984,0.0,0.0,0.0,0.0,4.0177,4.0242,4.0339,4.0489,4.0496,4.0496,4.0496,4.0496,4.0414,4.0278,4.0433,4.0496,4.0496,4.0496,4.0496,4.0496,4.0534,4.0614,4.07,4.073,4.0789,4.0881,4.0902,4.0971,4.1037,4.1085,4.1094,4.1069,0.0,0.0,0.0,0.0,0.0,0.0,0.0,0.0,0.0,0.0,0.0,0.0,0.0,0.0,0.0,0.0,0.0,0.0,0.0,0.0,2.9189,2.9767,2.9972,3.0011,2.983,2.9605,2.9204,2.8615,2.8241,2.779,2.7302,2.7436,2.7623,2.7842,2.7875,2.8417,2.9265,2.9373,3.0009,3.1073,3.1522,0.0,0.0,0.0,0.0,0.0,0.0,0.0,0.0,0.0,0.0,0.0,0.0,0.0,3.7007,3.7007,3.7143,3.7314,3.7278,3.7522,3.7827,3.8017,3.7998,3.7978,3.8243,3.8468,3.8624,3.8609,3.8566,3.8676,3.9142,4.0283,4.1008,4.0501,4.1065,4.1177,4.0111,0.0,3.9894,3.9539,3.9751,3.9914,3.9862,0.0,0.0,0.0,0.0,0.0,4.011,4.0347,4.0481,4.0496,4.0496,4.0496,4.0496,4.0496,4.0489,4.0481,4.0489,4.0496,4.0496,4.0496,4.0496,4.0504,4.0629,4.0687,4.0706,4.0775,4.0806,4.082,4.094,4.1033,4.1099,4.1092,4.1053,4.1019,0.0,0.0,0.0,0.0,0.0,0.0,0.0,0.0,0.0,0.0,0.0,0.0,0.0,0.0,0.0,0.0,0.0,0.0,0.0,2.8411,2.8662,2.9239,2.9429,2.9492,2.9429,2.9268,2.9137,2.9048,2.8148,2.7611,2.7436,2.759,2.7723,2.7809,2.8039,2.8449,2.8994,2.9135,2.9931,3.1146,3.132,3.1879,0.0,0.0,0.0,0.0,0.0,0.0,0.0,0.0,3.5249,3.5868,3.6489,3.6829,3.7007,3.7007,3.7222,3.7466,3.7334,3.7685,3.7962,3.7517,3.7471,3.7726,3.8459,3.8811,3.8775,3.8132,3.8387,3.884,3.9136,3.9856,4.0365,4.0311,4.0559,4.0549,3.9973,4.0038,4.0057,3.9773,3.9986,4.0157,0.0,0.0,0.0,0.0,0.0,0.0,4.0347,4.043,4.0496,4.0496,4.0496,4.0496,4.0496,4.0574,4.0622,4.0615,4.0542,4.0549,4.0615,4.0542,4.0549,4.0622,4.0675,4.0762,4.0885,4.0918,4.0942,4.0981,4.104,4.1088,4.1108,4.1092,4.1004,4.0866,0.0,0.0,0.0,0.0,0.0,0.0,0.0,0.0,0.0,0.0,0.0,0.0,0.0,0.0,0.0,0.0,0.0,0.0,2.7808,2.7846,2.8097,2.8612,2.8885,2.902,2.902,2.8895,2.8859,2.893,2.7973,2.749,2.749,2.7723,2.7822,2.7921,2.817,2.8514,2.8912,2.9022,2.9792,3.0866,3.0999,3.168,0.0,0.0,0.0,0.0,0.0,0.0,0.0,0.0,3.5226,3.5764,3.6489,3.6849,3.7007,3.7007,3.7279,3.7576,3.7428,3.7792,3.8023,3.7283,3.7189,3.7433,3.7927,3.8243,3.8253,3.7578,3.8149,3.8801,3.8895,3.9486,4.0036,4.0253,4.0301,4.0234,4.0048,4.0186,4.0234,4.0057,4.0186,4.0301,0.0,0.0,0.0,0.0,0.0,0.0,0.0,4.0512,4.0519,4.0571,4.0552,4.0552,4.0552,4.0674,4.0757,4.0789,4.0668,4.063,4.0734,4.0615,4.061,4.074,4.0773,4.0872,4.0994,4.1014,4.107,4.1099,4.1105,4.1091,4.1094,4.1051,4.0925,4.0768,0.0,0.0,0.0,0.0,0.0,0.0,0.0,0.0,0.0,0.0,0.0,0.0,0.0,0.0,0.0,0.0,0.0,0.0,2.7243,2.7268,2.7519,2.8072,2.846,2.8677,2.8677,2.8499,2.8304,2.811,2.7709,2.749,2.749,2.7723,2.7921,2.8112,2.8235,2.8592,2.9099,2.9099,2.9477,3.0142,3.0613,3.1233,3.1964,0.0,0.0,0.0,0.0,0.0,0.0,0.0,3.483,3.5284,3.6199,3.6728,3.7007,3.7007,3.7279,3.7595,3.7595,3.7915,3.8051,3.7442,3.7296,3.7129,3.6519,3.6597,3.6858,3.7057,3.7841,3.8456,3.8312,3.9283,4.0137,4.0282,4.0301,4.0301,4.0301,4.0301,4.0301,4.0301,4.0301,0.0,0.0,0.0,0.0,0.0,0.0,0.0,0.0,4.0537,4.0552,4.0694,4.07,4.07,4.07,4.078,4.0878,4.099,4.0874,4.0791,4.0806,4.0734,4.0746,4.0815,4.094,4.099,4.1016,4.1074,4.1101,4.1092,4.1092,4.1107,4.1083,4.0953,4.0809,4.0679,0.0,0.0,0.0,0.0,0.0,0.0,0.0,0.0,0.0,0.0,0.0,0.0,0.0,0.0,0.0,0.0,0.0,0.0,2.5895,2.6504,2.7129,2.7733,2.81,2.8276,2.8276,2.7949,2.7818,2.7872,2.7768,2.7789,2.7947,2.8072,2.817,2.8235,2.8444,2.8862,2.9446,2.9446,3.0021,3.0969,3.1102,3.1652,3.241,0.0,0.0,0.0,0.0,0.0,0.0,0.0,0.0,0.0,3.643,3.6831,3.7007,3.7007,3.7182,3.7448,3.7739,3.7998,3.7954,3.6916,3.6666,3.6353,3.5187,3.5851,3.6752,3.6802,3.7178,3.7675,3.8206,3.9217,4.0036,4.0253,4.0301,4.0301,4.0301,4.0301,4.0301,4.0301,4.0301,0.0,0.0,0.0,0.0,0.0,0.0,0.0,0.0,4.0687,4.0681,4.078,4.0723,4.0723,4.0761,4.0878,4.0951,4.099,4.0951,4.094,4.0937,4.081,4.0839,4.094,4.0984,4.1037,4.1074,4.1081,4.1093,4.1092,4.1108,4.1049,4.0956,4.087,4.0668,4.0419,0.0,0.0,0.0,0.0,0.0,0.0,0.0,0.0,0.0,0.0,2.1807,2.1997,0.0,0.0,0.0,0.0,0.0,0.0,0.0,2.6371,2.6878,2.7234,2.758,2.782,2.7841,2.7605,2.7636,2.7934,2.7855,2.7888,2.8112,2.8235,2.8287,2.832,2.8509,2.8972,2.9602,2.9602,3.0144,3.1014,3.1014,3.1537,3.2312,0.0,0.0,0.0,0.0,0.0,0.0,0.0,0.0,0.0,3.6574,3.693,3.7007,3.7007,3.7241,3.7559,3.7825,3.8212,3.8242,3.686,3.6586,3.6279,3.4759,3.5163,3.5961,3.631,3.6808,3.7438,3.8309,3.9247,3.9994,4.0253,4.0253,4.0234,4.0301,4.0301,4.0301,4.0301,4.0301,0.0,0.0,0.0,0.0,0.0,0.0,0.0,0.0,4.078,4.0775,4.0833,4.0801,4.0805,4.0849,4.0956,4.1006,4.105,4.105,4.104,4.1035,4.0935,4.0948,4.105,4.1044,4.1064,4.1102,4.1094,4.1107,4.1095,4.1031,4.0964,4.0882,4.0732,4.0526,4.0292,0.0,0.0,0.0,0.0,0.0,0.0,0.0,0.0,0.0,0.0,2.1807,2.1807,0.0,0.0,0.0,0.0,0.0,0.0,0.0,0.0,2.6645,2.6645,2.71,2.7369,2.749,2.7523,2.7703,2.8112,2.7934,2.7921,2.8145,2.8281,2.832,2.8333,2.8509,2.8972,2.9602,2.9602,3.0005,3.0598,3.0598,3.1087,3.1851,3.1879,0.0,0.0,0.0,0.0,0.0,0.0,0.0,0.0,3.6676,3.7007,3.7007,3.7007,3.7374,3.7791,3.7911,3.8499,3.8711,3.7229,3.6956,3.6697,3.5176,3.4838,3.5033,3.5747,3.6693,3.7662,3.8525,3.934,3.9965,4.0234,4.0176,4.0147,4.0282,4.0301,4.0301,4.032,0.0,0.0,0.0,0.0,0.0,0.0,0.0,0.0,0.0,4.0857,4.0833,4.0902,4.0894,4.0917,4.0915,4.099,4.1044,4.1099,4.1109,4.1105,4.1094,4.1035,4.104,4.1097,4.1109,4.1093,4.1094,4.1094,4.109,4.1074,4.0945,4.0898,4.0833,4.0574,4.0406,4.0257,0.0,0.0,0.0,0.0,0.0,0.0,0.0,0.0,0.0,0.0,0.0,0.0,0.0,0.0,0.0,0.0,0.0,0.0,0.0,0.0,2.6045,2.623,2.7007,2.7469,2.749,2.7656,2.7868,2.8112,2.8046,2.8197,2.8503,2.8522,2.8554,2.8554,2.8587,2.8972,2.9602,2.9602,3.0005,3.0598,3.0598,3.0925,3.1466,3.1766,3.2394,0.0,0.0,0.0,0.0,0.0,0.0,0.0,3.6753,3.7007,3.7007,3.7007,3.7262,3.7667,3.8114,3.853,3.8725,3.8103,3.7514,3.7016,3.6641,3.6566,3.6453,3.5991,3.7065,3.8176,3.849,3.9211,3.9837,4.0106,4.0127,4.0176,4.0344,4.0377,4.0386,4.0379,0.0,0.0,0.0,0.0,0.0,0.0,0.0,0.0,4.0977,4.0913,4.0909,4.0977,4.0921,4.0949,4.1064,4.1072,4.1083,0.0,4.1109,4.1094,4.1092,4.1093,4.1094,4.1093,4.1092,4.1105,4.1091,4.1099,4.1034,4.0937,4.0902,4.0765,4.0566,4.0462,4.0295,4.0128,0.0,0.0,0.0,0.0,0.0,0.0,0.0,0.0,0.0,0.0,0.0,0.0,0.0,0.0,0.0,0.0,0.0,0.0,0.0,0.0,2.6102,2.6744,2.7343,2.7656,2.7656,2.7822,2.8033,2.8197,2.8197,2.8314,2.8587,2.8587,2.8587,2.8619,2.878,2.9131,2.9602,2.9772,3.0127,3.0598,3.0672,3.094,3.1336,3.1667,3.2312,3.3055,3.3523,0.0,0.0,0.0,0.0,0.0,0.0,0.0,3.7007,3.7007,3.7375,3.7861,3.8212,3.8685,3.8951,3.8434,3.7699,3.711,3.711,3.7411,3.7549,3.7136,3.7718,3.8467,3.8984,3.9395,3.9731,3.9973,4.0038,4.0129,4.0325,4.0397,4.0469,4.0489,0.0,0.0,0.0,0.0,0.0,0.0,0.0,4.0933,4.1002,4.1,4.0997,4.0995,4.0995,4.1015,4.1051,4.1051,4.1078,4.1091,4.1107,4.1092,4.1099,4.1107,4.1109,4.1106,4.1025,4.1001,4.0995,4.0937,4.0863,4.0807,4.073,4.0615,4.0481,4.0386,4.0272,4.0147,0.0,0.0,0.0,0.0,0.0,0.0,0.0,0.0,0.0,0.0,0.0,0.0,0.0,0.0,0.0,0.0,0.0,0.0,0.0,0.0,0.0,2.7456,2.7689,2.7809,2.7809,2.8033,2.8197,2.8287,2.832,2.8444,2.8587,2.8587,2.8619,2.8683,2.8972,2.932,2.971,2.9988,3.028,3.0598,3.0732,3.094,3.1219,3.1538,3.2117,3.2868,3.3471,3.3984,3.4464,3.5155,0.0,0.0,0.0,0.0,3.6928,3.697,3.7468,3.8033,3.8229,3.8836,3.9257,3.867,3.8019,3.7523,3.7523,3.8037,3.8538,3.8566,3.8561,3.8761,3.9573,3.9684,3.9727,3.9935,4.0021,4.012,4.0332,4.0469,4.0566,4.0614,0.0,0.0,0.0,0.0,0.0,0.0,0.0,4.0979,4.0984,4.1042,4.1051,4.1008,4.1052,4.1063,4.1019,4.1019,4.1049,4.1093,4.1093,4.1104,4.1092,4.1094,4.11,4.1099,4.0978,4.0928,4.0887,4.0784,4.0706,4.0649,4.0549,4.05,4.0452,4.0346,4.0253,4.0196,0.0,0.0,0.0,0.0,0.0,0.0,0.0,0.0,0.0,0.0,2.1807,2.1807,0.0,0.0,0.0,0.0,0.0,0.0,2.258,0.0,0.0,2.7423,2.7689,2.7809,2.7809,2.8105,2.83,2.8287,2.8476,2.8554,2.8587,2.8587,2.8748,2.9035,2.9067,2.9446,3.005,3.008,3.028,3.0598,3.0612,3.0657,3.0747,3.1306,3.1665,3.2046,3.3245,3.3774,3.4053,3.5068,3.5447,0.0,0.0,0.0,3.6609,3.6911,3.7281,3.7685,3.8097,3.8836,3.9489,3.9433,3.9345,3.927,3.927,3.9345,3.9481,3.9645,3.9557,3.9512,3.9818,3.987,3.9948,4.0203,4.0238,4.0334,4.053,4.0629,4.0688,4.0694,0.0,0.0,0.0,0.0,0.0,0.0,4.0893,4.0906,4.0917,4.0983,4.1003,4.0997,4.1014,4.1044,4.1093,4.1093,4.1093,4.1095,4.1108,4.1095,4.1096,4.1091,4.1091,4.1108,4.1081,4.1011,4.0902,4.0878,4.073,4.0527,4.0504,4.0438,4.0319,4.031,4.0253,4.0176,0.0,0.0,0.0,0.0,0.0,0.0,0.0,0.0,0.0,0.0,0.0,2.1807,0.0,0.0,0.0,2.1949,2.1959,2.2494,2.3756,2.466,2.5836,2.7423,2.7802,2.7967,2.7967,2.8281,2.8476,2.8476,2.8554,2.8766,2.9107,2.8958,2.8972,2.9131,2.9477,3.0004,3.0611,3.0797,3.0951,3.1105,3.1227,3.0992,3.0657,3.1102,3.1508,3.1946,3.2949,3.3594,3.4077,3.4866,3.5241,3.5492,3.6006,0.0,0.0,0.0,3.7243,3.7649,3.8357,3.9013,3.9508,3.9577,3.9589,3.9626,3.9731,3.9766,3.9834,4.003,3.9989,3.9958,4.005,4.007,4.012,4.0232,4.0336,4.0434,4.0526,4.0675,4.0769,4.0806,0.0,0.0,0.0,0.0,0.0,0.0,4.0937,4.0964,4.0964,4.102,4.1055,4.1055,4.1053,4.1073,4.1106,4.1106,4.1101,4.1109,4.1104,4.1097,4.1105,4.1091,4.1098,4.11,4.1011,4.0917,4.0771,4.0706,4.0564,4.0398,4.0398,4.0345,4.0272,4.0128,4.0067,3.9977,0.0,0.0,0.0,0.0,0.0,0.0,0.0,0.0,0.0,0.0,0.0,0.0,0.0,0.0,0.0,0.0,2.2101,2.2857,2.4565,2.4933,2.572,2.7154,2.7802,2.8112,2.8112,2.8438,2.8587,2.8587,2.8766,2.9044,2.9504,2.9746,2.9782,2.9733,3.014,3.0714,3.1412,3.1647,3.1741,3.1772,3.2052,3.1728,3.1107,3.1368,3.1603,3.189,3.2617,3.3266,3.385,3.457,3.5001,3.5333,3.5683,3.6049,0.0,0.0,0.0,3.779,3.8468,3.9041,3.9495,3.9571,3.9626,3.9715,3.9859,3.9946,4.003,4.0242,4.0278,4.0295,4.0339,4.0313,4.0295,4.0339,4.0481,4.0583,4.0586,4.0713,4.0812,4.0876,0.0,0.0,0.0,0.0,0.0,0.0,4.0971,4.0998,4.0998,4.1064,4.1094,4.1094,4.1103,4.1109,4.1109,4.1109,4.1109,4.1109,4.1109,4.1078,4.105,4.1059,4.1026,4.0992,4.0926,4.0828,4.0687,4.0564,4.043,4.0301,4.0301,4.0301,4.0263,4.0007,3.9873,3.9788,0.0,0.0,0.0,0.0,0.0,0.0,0.0,0.0,0.0,0.0,0.0,0.0,2.1807,2.1807,2.1883,2.2063,2.2101,2.2606,2.3781,2.4743,2.5652,2.6414,2.7523,0.0,2.8112,2.8438,2.8587,2.8587,2.9156,2.9473,2.9518,3.1105,3.167,3.1375,3.108,3.1516,3.2437,3.2437,3.2469,3.2501,3.3007,3.2899,3.2402,3.2421,3.2063,3.1626,3.2374,3.2691,3.2955,3.4143,3.4691,3.4977,3.531,3.5661,3.6015,0.0,0.0,0.0,3.8214,3.8826,3.9418,3.9482,3.9703,3.9892,3.9903,4.005,4.0242,4.0449,4.0481,4.0546,4.0733,4.0605,4.0554,4.0733,4.0778,4.0784,4.0784,4.0796,4.08,4.08,0.0,0.0,0.0,0.0,0.0,0.0,4.1007,4.1008,4.1008,4.1051,4.1094,4.1094,4.1103,4.1109,4.1109,4.1109,4.1109,4.1109,4.1109,4.1037,4.0906,4.0902,4.0834,4.0724,4.0849,4.0828,4.0687,4.0564,4.043,4.0301,4.0301,4.0301,4.0263,4.0007,3.9821,3.9622,0.0,0.0,0.0,0.0,0.0,0.0,0.0,0.0,0.0,0.0,0.0,0.0,0.0,2.2176,2.2252,2.2478,2.259,2.3054,2.3927,2.4337,2.5099,2.6346,2.6994,2.7577,2.8079,2.8438,2.8587,2.8587,2.9668,3.0406,3.0812,3.2205,3.3029,3.3334,3.261,3.2611,3.3122,3.3122,3.3122,3.3187,3.3926,3.3594,3.2752,3.3276,3.2871,3.2138,3.3147,3.3174,3.2933,3.4118,3.457,3.4691,3.5038,3.5487,3.6015,3.6632,3.7431,3.81,3.8181,3.8778,3.9438,3.9637,3.9811,3.9958,4.0233,4.0339,4.0457,4.0653,4.068,4.0726,4.0832,4.0776,4.072,4.079,4.0843,4.0853,4.0853,4.0897,4.0925,4.0937,0.0,0.0,0.0,0.0,0.0,0.0,0.0,4.1069,4.1052,4.1092,4.1103,4.1103,4.1095,4.1109,4.1109,4.1109,4.1109,4.1109,4.1061,4.1006,4.0956,4.0824,4.0745,4.0699,4.0662,4.0628,4.0579,4.0519,4.043,4.0301,4.0301,4.0301,4.0253,3.9954,3.9807,3.9667,0.0,0.0,0.0,0.0,0.0,0.0,0.0,0.0,0.0,2.2063,0.0,0.0,0.0,0.0,2.2478,2.2665,2.2889,2.3287,2.3888,2.4276,2.5052,2.6242,2.6947,2.7564,2.8164,2.8457,2.8695,2.8885,3.0245,3.124,3.1926,3.3424,3.4317,3.4724,3.4155,3.3873,3.3823,3.3823,3.3823,3.3875,3.4868,3.4533,3.3524,3.4212,3.3804,3.2943,3.355,3.3533,3.3343,3.4199,3.4546,3.4667,3.489,3.5413,3.6015,3.6652,3.7338,3.7948,3.8115,3.8658,3.9224,3.9533,3.9785,4.004,4.0313,4.0489,4.0646,4.0778,4.0797,4.0814,4.0888,4.0853,4.0834,4.0853,4.0893,4.0932,4.0932,4.096,4.0997,4.1009,0.0,0.0,0.0,0.0,0.0,0.0,0.0,0.0,4.1092,4.1102,4.1091,4.1109,4.1109,4.1109,4.1109,4.1109,4.1083,4.1068,4.1011,4.0956,4.0858,4.0699,4.0604,4.0556,4.0473,4.046,4.0489,4.0452,4.0389,4.0301,4.0301,4.0301,4.0244,3.9796,3.9628,3.9501,0.0,0.0,0.0,0.0,0.0,0.0,0.0,0.0,2.1883,2.2111,0.0,0.0,0.0,0.0,0.0,2.2703,2.2889,2.315,2.3556,2.4635,2.5511,2.6092,2.7377,2.8131,2.8314,2.8503,2.8912,2.9543,3.0899,3.1939,3.2754,3.4775,3.5626,3.5446,3.5639,3.5234,3.4448,3.4414,3.4414,3.4534,3.5866,3.5721,3.4758,3.5277,3.4833,3.393,3.3511,3.3634,3.4033,3.4361,3.4667,3.4899,3.4923,3.5362,3.5972,3.6381,3.6974,3.7578,0.0,0.0,0.0,3.9124,3.9656,4.0091,4.0101,4.0454,4.079,4.0797,4.0797,4.0814,4.0888,4.0888,4.0924,4.0984,4.0994,4.0994,4.0994,4.0997,4.1016,4.1016,0.0,0.0,0.0,0.0,0.0,0.0,4.1107,4.1105,4.1099,4.1098,4.1095,4.1109,4.1109,4.1109,4.1109,4.1109,4.107,4.099,4.101,4.0852,4.0597,4.0524,4.0419,4.0307,4.0291,4.0362,4.0473,4.0345,4.0301,4.0301,4.0301,4.0291,4.0206,3.9543,3.9257,3.9112,0.0,0.0,0.0,0.0,0.0,0.0,2.2035,2.2138,2.2327,0.0,0.0,0.0,2.2815,2.2815,2.2852,2.2927,2.2964,2.315,2.3556,2.4263,2.5087,2.6045,2.6968,2.7914,2.8912,2.9158,2.9536,3.0147,3.1744,3.2818,3.346,3.5382,3.623,3.6199,3.6353,3.607,3.5447,3.4687,3.4687,3.5187,3.5785,3.5655,3.5151,3.6106,3.5278,3.374,3.4477,3.4065,3.3199,3.3742,3.4226,3.4691,3.5125,3.5402,3.5655,3.6318,3.6799,3.7284,3.793,0.0,0.0,0.0,0.0,0.0,4.025,4.0446,4.0612,4.0778,4.0797,4.0814,4.0888,4.0941,4.0987,4.1066,4.1074,4.1074,4.1074,4.1115,4.1144,4.1144,0.0,0.0,0.0,0.0,0.0,0.0,4.1108,4.1105,4.1099,4.1094,4.1091,4.1109,4.1109,4.1109,4.1109,4.1109,4.107,4.099,4.0898,4.0766,4.0597,4.0534,4.0444,4.037,4.0326,4.0316,4.0341,4.0328,4.0301,4.0272,4.0087,4.0007,3.9946,3.9483,3.9292,3.9195,0.0,0.0,0.0,0.0,0.0,2.2101,2.2101,2.2252,2.2478,0.0,0.0,0.0,2.3224,2.3261,2.3335,2.3494,2.3335,2.3482,2.4043,2.4576,2.5454,2.6798,2.76,2.8564,2.9693,2.9842,3.0229,3.0965,3.2482,3.3645,3.4445,3.6028,3.6846,3.6923,3.6754,3.6646,3.6507,3.5447,3.5136,3.5367,3.6118,3.5944,3.5412,3.6554,3.5753,3.409,3.4898,3.4201,3.3013,3.3644,3.4151,3.457,3.5048,3.5287,3.5498,3.6071,3.6512,3.6939,3.765,3.8148,3.8545,3.9003,0.0,0.0,4.011,4.0326,4.0519,0.0,4.0797,4.0814,4.0888,4.0941,4.1014,4.1083,4.1119,4.1144,4.1144,4.117,4.1191,4.1191,0.0,0.0,0.0,4.1191,4.1172,4.1132,4.1111,4.1107,4.1099,4.1093,4.1109,4.1109,4.1074,4.1064,4.1064,4.1003,4.0938,4.0872,4.0796,4.0692,4.0547,4.0519,4.0485,4.0432,4.0334,4.0307,4.0307,4.031,4.0301,4.0263,4.0007,3.9903,3.9829,3.9326,3.9132,3.9036,0.0,0.0,2.1845,2.1845,2.2025,2.2187,2.2187,2.2327,2.2515,0.0,2.274,2.2964,2.3519,2.3649,2.3866,2.4244,2.4033,2.4166,2.493,2.5492,2.6452,2.7905,2.8855,2.9706,3.05,3.0513,3.0958,3.1903,3.3121,3.4301,3.5432,3.6616,3.727,3.748,3.6998,3.7059,3.745,3.6461,3.58,3.5447,3.6554,3.6399,3.5625,3.6677,3.606,3.4621,3.4876,3.4149,3.3152,3.387,3.425,3.4497,3.4763,3.5095,3.5407,3.5749,3.6135,3.6571,3.7265,3.7721,3.8117,3.852,3.9022,0.0,3.9825,4.0138,4.0438,0.0,4.079,4.0808,4.0873,4.0957,4.1011,4.1078,4.1147,4.1191,4.1191,4.1191,4.1191,4.1191,0.0,0.0,4.1191,4.1191,4.1191,4.1191,4.1131,4.1086,4.107,4.1083,4.1078,4.1078,4.1011,4.0981,4.0981,4.085,4.0775,4.0694,4.0694,4.0622,4.0508,4.0507,4.051,4.0502,4.0379,4.0307,4.0261,4.0263,4.0253,4.0234,3.9965,3.9848,3.9721,3.909,3.8814,3.87,0.0,2.2025,2.2101,2.2252,2.244,2.259,2.259,2.274,2.2889,2.2927,2.2927,2.3113,2.3556,2.3989,2.4423,2.4797,2.5176,2.5546,2.5963,2.7005,2.7843,2.8449,2.9581,3.0479,3.111,3.111,3.1572,3.2524,3.3494,3.4449,3.5432,3.6352,3.7059,3.751,3.7391,3.7405,3.748,3.7285,3.6907,3.6399,3.6383,3.6321,3.6352,3.6816,3.5737,3.4046,3.4562,3.387,3.2839,3.3787,3.4126,3.4226,3.4497,3.4763,3.5071,3.5402,3.5749,3.6186,3.6904,3.7359,3.7791,3.8439,3.8726,0.0,3.9735,4.0023,4.0258,0.0,4.0752,4.0803,4.0827,4.0915,4.0997,4.1028,4.1117,4.1191,4.1191,4.1191,4.1191,4.1191,0.0,0.0,4.1191,4.1191,4.1191,4.1191,4.1083,4.1003,4.0944,4.0933,4.0906,4.0867,4.0846,4.0837,4.0837,4.082,4.0775,4.0694,4.0694,4.0628,4.0499,4.0511,4.0503,4.0502,4.0466,4.0316,4.0052,4.0011,3.9979,3.9946,3.9682,3.9452,3.9205,3.8748,3.8538,3.8462,2.2214,2.2252,2.2289,2.2365,2.2553,2.2703,2.2703,2.3058,2.3362,2.3362,2.358,2.3974,2.457,2.4911,2.5276,2.5892,2.6013,2.6191,2.6584,2.7545,2.8391,2.9012,3.0215,3.1124,3.1721,3.1886,3.2236,3.2704,3.3768,3.4681,3.5432,3.629,3.6998,3.751,3.751,3.751,3.751,3.751,3.7345,3.7089,3.6907,3.6754,3.66,3.6654,3.5696,3.428,3.446,3.3846,3.3038,3.3539,3.3873,3.4151,3.4423,3.4691,3.497,3.5287,3.5638,3.602,3.6597,3.7113,3.765,3.8198,3.8502,0.0,0.0,3.9859,4.0101,4.0469,4.0666,4.0752,4.079,4.0902,4.099,4.099,4.1114,4.1191,4.1191,4.1191,4.1191,4.1191,0.0,0.0,4.1191,4.117,4.1122,4.1064,4.0998,4.0932,4.0894,4.0909,4.0876,4.0791,4.078,4.0749,4.0749,4.0692,4.0623,4.0595,4.0595,4.0564,4.0503,4.0508,4.05,4.0495,4.0466,4.027,3.9983,3.9939,3.9743,3.9502,3.9363,3.9219,3.9059,3.8646,3.8462,3.8382,2.2537,2.258,2.2713,2.2886,2.3159,2.3404,2.3504,2.3868,2.4018,2.3875,2.4409,2.5083,2.577,2.617,2.6573,2.7193,2.7038,2.6983,2.7198,2.8015,2.887,2.9625,3.0814,3.168,3.2205,3.248,3.2632,3.2704,3.3919,3.4795,3.5432,3.629,3.6998,3.751,3.751,3.751,3.751,3.751,3.751,3.751,3.751,3.7255,3.6829,3.6515,3.5676,3.4654,3.4136,3.3601,3.316,3.316,3.3513,3.4,3.4209,3.4456,3.4739,3.5171,3.5549,3.5907,3.628,3.6878,3.7505,3.7879,3.8181,3.8573,0.0,0.0,0.0,4.0221,4.0477,4.0666,4.072,0.0,0.0,4.101,0.0,0.0,0.0,4.1191,0.0,4.1171,0.0,0.0,0.0,4.1114,4.1037,4.0901,4.0894,4.089,4.0869,4.0844,4.0825,4.0756,4.0699,4.0655,4.0655,4.0537,4.0496,4.0496,4.0496,4.0496,4.0496,4.0496,4.0489,4.05,4.0438,4.0252,3.9963,3.9865,3.9532,3.9101,3.9101,3.9059,3.896,3.8615,3.8446,3.8368,2.2928,2.3191,2.3855,2.458,2.5279,2.5898,2.6424,2.5914,2.5215,2.4517,2.526,2.5992,2.646,2.7776,2.8562,2.8436,2.8805,2.8856,2.837,2.9413,3.0087,3.0177,3.1426,3.2151,3.2218,3.2255,3.2408,3.2704,3.363,3.4547,3.5432,3.629,3.6998,3.751,3.751,3.751,3.751,3.751,3.751,3.751,3.751,3.745,3.7342,3.6661,3.5676,3.4534,3.3258,3.2746,3.2683,0.0,3.2996,3.3408,3.3501,3.3672,3.3975,3.4739,3.523,3.561,3.589,3.6495,3.7147,3.7469,3.7614,3.7893,3.8849,0.0,3.9252,3.9851,0.0,4.0438,4.0438,0.0,0.0,0.0,0.0,0.0,4.1191,4.1191,4.1171,4.1117,4.1114,0.0,0.0,4.1025,4.0974,4.0906,4.0902,4.0849,4.0726,4.0668,4.0635,4.0612,4.0569,4.0519,4.0519,4.0504,4.0496,4.0496,4.0496,4.0496,4.0496,4.0496,4.0492,4.0491,4.0502,4.0261,3.9891,3.9641,3.9358,3.9101,3.9101,3.8869,3.8554,3.8525,3.8417,3.8323,2.4209,2.492,2.5782,2.6093,2.6427,2.6722,2.6951,2.6926,2.6877,2.6909,2.6995,2.7387,2.8317,2.8395,2.8684,2.9517,2.9475,2.9302,2.904,3.0126,3.0658,3.033,3.1519,3.2218,3.2218,3.2372,3.2467,3.2408,3.3395,3.4293,3.5077,3.5849,3.6708,3.751,3.751,3.751,3.751,3.751,3.751,3.7478,3.7022,3.6864,3.6801,3.609,3.5014,3.3795,3.3215,3.3011,3.3011,0.0,3.3356,0.0,0.0,3.3942,3.4423,3.4618,3.5038,3.5509,3.582,3.6305,0.0,0.0,0.0,0.0,3.8342,0.0,3.9075,0.0,0.0,0.0,0.0,0.0,0.0,0.0,4.1022,0.0,0.0,0.0,4.117,0.0,0.0,0.0,0.0,0.0,0.0,0.0,4.0834,4.0794,4.07,4.0647,4.0593,4.0607,4.0531,4.0496,4.0496,4.0496,4.0496,4.0496,4.0496,4.0496,4.0496,4.0496,4.0511,4.0502,4.0449,4.0148,3.9664,3.9543,3.9253,3.8866,3.8785,3.8646,3.8494,3.8417,3.8354,3.829,2.6127,2.6732,2.7372,2.7506,2.773,2.7854,2.7839,2.8069,2.837,2.8736,2.8612,2.8861,2.9845,2.9445,2.9484,3.0469,3.0139,2.9832,2.9639,3.062,3.0996,3.0582,3.1593,3.2218,3.2218,3.2444,3.2503,3.235,3.3213,3.4104,3.4963,3.561,3.6461,3.751,3.751,3.751,3.751,3.7655,3.7602,3.738,3.6842,3.6327,3.5761,3.5284,3.4352,3.3309,3.3309,3.3361,3.3372,3.3187,3.3461,0.0,3.3575,3.3958,3.4472,3.4497,3.4944,3.5481,3.5688,0.0,0.0,0.0,0.0,0.0,0.0,0.0,0.0,0.0,0.0,0.0,0.0,0.0,4.052,4.0754,0.0,4.104,0.0,4.1144,0.0,0.0,0.0,0.0,0.0,0.0,0.0,4.0809,4.0797,4.0784,4.0733,4.0661,4.0626,4.0603,4.0546,4.0523,4.0496,4.0496,4.0496,4.0496,4.0496,4.0496,4.0496,4.0496,4.0484,4.0477,4.0334,4.0031,3.9602,3.9458,3.9137,3.8728,3.8541,3.8462,3.843,3.8338,3.829,3.8257,2.87,2.8448,2.8259,2.8824,2.9521,2.9973,2.9897,2.9731,2.9473,2.9034,2.9705,3.0317,3.0532,3.1468,3.1827,3.122,3.1145,3.0884,3.0317,3.0846,3.1182,3.1182,3.1827,3.2218,3.2218,3.2218,3.2372,3.2668,3.3094,3.4036,3.54,3.5753,3.6461,3.751,3.751,3.751,3.7524,3.8055,3.7878,3.7208,3.7247,3.6107,3.4352,0.0,3.3893,3.3309,3.3309,0.0,0.0,3.2873,3.2942,0.0,0.0,0.0,0.0,0.0,0.0,0.0,0.0,0.0,0.0,3.6606,0.0,0.0,0.0,0.0,3.7755,0.0,0.0,0.0,0.0,3.9955,4.0353,4.0494,4.0688,0.0,0.0,4.109,0.0,0.0,0.0,0.0,0.0,0.0,0.0,4.0797,4.0797,4.0797,4.079,4.0739,4.0661,4.0595,4.061,4.0565,4.0496,4.0496,4.0496,4.0496,4.0496,4.0496,4.0496,4.0496,4.046,4.0379,4.012,3.997,3.9859,3.9337,3.9022,3.8853,3.8538,3.8352,3.8307,3.8307,3.8257,3.8209,2.9415,2.9744,3.0067,3.0298,3.0537,3.0677,3.0671,3.0722,3.0759,3.0709,3.0759,3.0998,3.1593,3.1246,3.1172,3.1827,3.1468,3.1108,3.0921,3.1505,3.1666,3.122,3.2042,3.2538,3.2538,3.2789,3.3002,3.3094,3.3444,3.4254,3.54,3.5753,3.6461,3.751,3.751,3.7714,3.801,3.7697,3.7644,3.7656,3.6746,3.5489,3.4134,0.0,3.3498,3.3309,3.3309,3.3346,0.0,3.3356,3.3435,3.3539,3.3471,3.3626,3.3848,3.3949,3.4391,0.0,0.0,0.0,3.635,3.6751,0.0,0.0,0.0,0.0,0.0,0.0,0.0,0.0,0.0,3.9802,4.0118,4.0385,4.068,4.0904,0.0,4.1067,4.108,4.1006,4.0968,4.0903,0.0,0.0,0.0,4.0803,4.0797,4.0784,4.0739,4.0668,4.0607,4.0591,4.0554,4.0523,4.0496,4.0496,4.0496,4.0496,4.0496,4.0496,4.0496,4.0503,4.0455,4.0379,4.0071,3.9824,3.9611,3.9245,3.8927,3.8628,3.8444,3.8352,3.829,3.8241,3.8225,3.8209,3.0101,3.0621,3.0986,3.0986,3.0986,3.1024,3.1099,3.1235,3.1397,3.1669,3.1485,3.1545,3.2146,3.1482,3.132,3.2132,3.1813,3.1542,3.1542,3.1973,3.2009,3.1579,3.2178,3.2538,3.2538,3.2881,3.3164,3.3304,3.3632,3.4423,3.5593,3.5785,3.6461,3.7494,3.7227,3.7403,3.7873,3.7351,3.7275,3.7403,3.6252,3.5199,0.0,0.0,3.3617,3.3319,0.0,3.3565,3.3607,3.3668,3.3822,3.3975,3.3873,3.4109,3.4407,3.4193,3.4658,3.5276,3.5565,3.5955,0.0,3.6731,3.6908,0.0,3.7007,0.0,3.7468,0.0,0.0,0.0,0.0,3.9486,3.973,4.0148,4.048,4.0759,0.0,4.1062,4.1084,4.1035,4.0987,4.0932,4.0834,4.0851,4.0856,4.0843,4.0802,4.0784,0.0,0.0,4.0614,4.0591,4.0554,4.0531,4.0496,4.0496,4.0496,4.0496,4.0496,4.0496,4.0496,4.0507,4.0458,4.037,3.9932,3.9648,3.9458,3.9115,3.8755,3.8462,3.8415,3.8336,3.8257,3.8225,3.8209,3.8209,3.0823,3.0986,3.0986,3.0986,3.0986,3.1061,3.1272,3.131,3.1471,3.1853,3.189,3.2,3.2182,3.2218,3.2218,3.2218,3.2218,3.2218,3.2218,3.2218,3.2218,3.2218,3.2218,3.2205,3.2205,3.2574,3.2917,3.3304,3.3687,3.4558,3.5881,3.5913,3.6477,3.7401,3.6722,3.6689,3.7172,3.7021,3.6818,3.6529,3.5881,3.5322,3.484,3.488,3.4251,3.345,3.3949,3.4109,3.4101,3.3848,3.4101,3.4448,3.4226,3.4537,3.4975,3.4998,3.5683,3.6364,3.6011,3.6412,3.6891,3.6606,0.0,0.0,0.0,0.0,3.7222,0.0,0.0,0.0,0.0,0.0,3.9218,3.9797,4.0148,4.047,4.0937,4.1064,4.1107,4.1097,4.0981,4.0917,4.0907,4.0859,4.0837,4.0893,4.0848,4.0803,0.0,0.0,4.0661,4.0588,4.061,4.0573,4.0496,4.0496,4.0496,4.0496,4.0496,4.0496,4.0489,4.0471,4.0441,4.0344,3.9731,3.9482,3.9452,3.8925,3.8578,3.8399,3.8399,3.832,3.8209,3.8209,3.8209,3.8209,3.0949,3.0986,3.0986,3.0986,3.0986,3.1024,3.1061,3.1323,3.1559,3.1669,3.1927,3.2146,3.2182,3.2218,3.2218,3.2218,3.2218,3.2218,3.2218,3.2218,3.2218,3.2218,3.2444,3.2561,3.2561,3.3199,3.3444,3.3304,3.4322,3.5088,3.5529,3.618,3.6566,3.669,3.6472,3.6653,3.7014,3.6431,3.6256,3.6367,3.62,3.5815,3.5436,0.0,3.5283,3.4423,3.4569,3.4617,3.4617,3.4594,3.4546,3.4546,3.4706,3.4738,3.4745,3.5001,3.5391,3.5803,3.6011,3.6326,3.6667,3.6829,3.6948,3.7007,0.0,0.0,0.0,0.0,0.0,0.0,0.0,0.0,0.0,3.9848,4.0323,4.0745,4.0974,4.1064,4.1107,4.1097,4.1072,4.1003,4.0902,4.0928,4.0906,4.0837,4.0856,4.0821,4.0739,0.0,0.0,4.0603,4.0595,4.0573,4.0496,4.0496,4.0496,4.0496,4.0496,4.05,4.0499,4.0242,4.0101,3.9992,3.9433,3.9187,3.9183,3.8837,3.8609,3.8478,3.8478,3.8401,3.8257,3.8225,3.8209,3.8209,3.0986,3.0986,3.0986,3.0986,3.1061,3.1123,3.1123,3.141,3.1646,3.172,3.2,3.2218,3.2218,3.2218,3.2218,3.2218,3.2218,3.2218,3.2218,3.2218,3.2218,3.2218,3.2538,3.2704,3.2704,3.3638,3.3948,3.3514,3.4843,3.5529,3.561,3.606,3.6313,3.6361,3.5774,3.5868,3.6497,3.6199,3.6162,3.6301,3.6301,3.6135,0.0,3.6216,3.5963,3.5459,3.5459,3.5253,3.4998,3.5085,3.5102,3.5108,3.5305,3.5419,3.5464,3.5671,3.5916,3.6207,3.6412,3.6591,3.6751,3.695,3.7007,3.7007,3.7007,3.7007,3.7222,0.0,0.0,0.0,0.0,0.0,0.0,3.9891,4.0345,4.0703,4.0921,4.1006,4.1067,4.1094,4.1129,4.1109,4.0994,4.1007,4.0976,4.0898,4.0898,4.0853,0.0,0.0,0.0,4.0598,4.0561,4.0539,4.0496,4.0496,4.0496,4.0496,4.0496,4.0492,4.0493,4.0148,3.9953,3.987,3.9326,3.9101,3.9073,3.8807,3.8624,3.851,3.8478,3.8401,3.8307,3.8257,3.8242,3.8209,3.0986,3.0986,3.0986,3.0986,3.1235,3.1445,3.1482,3.1582,0.0,3.189,0.0,3.2218,3.2218,3.2218,3.2218,3.2218,3.2218,3.2218,3.2218,3.2218,3.2218,3.2218,3.2538,3.2668,3.2632,3.3919,3.4308,3.377,3.527,3.593,3.5808,3.5783,3.5904,3.6061,3.4924,3.4952,3.5889,3.6171,3.6301,3.6301,3.6301,3.6301,3.6301,3.6301,3.6301,3.6301,3.6301,3.5898,3.5362,3.5459,3.5638,3.5854,3.5968,3.622,3.6523,3.6564,3.6768,3.7007,3.7007,3.7007,3.7007,3.7007,3.7007,3.7007,3.7007,3.7007,3.7222,3.7948,3.7826,3.7894,0.0,0.0,0.0,3.9951,4.025,4.0511,0.0,4.0933,4.1028,4.1085,4.1147,0.0,0.0,4.1059,4.1016,4.1,4.0932,4.0863,0.0,0.0,0.0,4.0595,4.0542,0.0,4.0496,0.0,4.0496,4.0496,4.0496,4.0503,4.0466,4.011,3.9912,3.9816,3.9279,3.9045,3.9017,3.881,3.8624,3.851,3.843,3.8368,3.8323,3.829,3.8241,3.8209,3.0986,3.0986,3.0986,3.0986,3.1676,3.2268,3.2439,3.2119,3.1853,3.189,3.2073,3.2218,3.2218,3.2218,3.2218,3.2218,3.2218,0.0,3.2218,0.0,3.2218,3.2218,3.2538,3.2574,3.2277,3.3831,3.4259,3.3541,3.5578,3.6122,3.5263,3.594,3.5704,3.4679,3.4867,3.5218,3.569,3.6118,0.0,3.6301,3.6301,3.6301,3.6301,3.6301,3.6301,3.6301,3.6301,3.6216,3.6092,3.6011,3.6011,3.6092,3.6322,3.6444,3.6564,3.6829,3.695,3.7007,3.7007,3.7007,3.7007,3.7007,3.7007,3.7007,3.7007,3.7007,3.7222,3.7948,3.8051,3.8232,3.8956,0.0,0.0,0.0,0.0,0.0,0.0,0.0,4.0953,4.1081,4.1114,4.1125,0.0,4.1117,4.1047,4.0924,4.0917,4.0863,0.0,0.0,0.0,0.0,4.0583,0.0,0.0,0.0,4.0496,4.0496,4.0496,4.0468,4.0407,3.9901,3.963,3.9544,3.9003,3.8765,3.8765,3.8723,3.8692,3.8643,3.8465,3.8382,3.8368,3.8257,3.8209,3.8209,3.0986,3.1099,3.1272,3.1676,3.2232,0.0,0.0,3.3227,3.3136,3.3136,3.3241,3.3136,3.2761,3.308,3.315,3.2761,3.308,3.3276,3.3276,3.3276,3.3276,3.3276,3.3659,3.3762,3.3604,3.4909,3.527,3.4629,0.0,3.6161,3.5414,3.5318,3.4952,3.4327,3.4741,3.5195,3.5616,0.0,0.0,3.6301,3.6301,3.6301,3.6301,3.6301,3.6343,3.6402,3.6402,3.6444,3.6502,3.6423,3.6426,3.6509,3.669,3.6768,3.6788,3.695,3.7007,3.7007,3.7007,3.7007,3.7007,3.7007,3.7007,3.7007,3.7007,3.7007,3.7222,3.7948,3.8101,3.8314,3.9013,3.9304,0.0,0.0,0.0,0.0,0.0,0.0,4.0924,4.0984,4.1039,4.1074,4.1144,0.0,0.0,0.0,0.0,0.0,0.0,0.0,0.0,0.0,0.0,0.0,0.0,0.0,0.0,4.0496,4.0496,4.0468,4.0398,3.9992,3.9694,3.9489,3.9073,3.8822,3.8707,3.8707,3.8707,3.8673,3.8512,3.843,3.8382,3.829,3.8242,3.8209,3.1222,3.1519,3.1969,3.2506,3.3038,3.3547,3.4163,3.4547,3.4647,3.4346,3.4312,3.4075,3.3492,3.3973,3.4075,3.3492,3.3973,3.4312,3.4312,3.4312,3.4312,3.4312,3.4695,3.4843,3.4776,3.5911,3.6181,0.0,0.0,0.0,0.0,3.4643,3.4344,3.442,0.0,0.0,0.0,0.0,3.6301,3.6301,3.6301,3.6322,3.6343,3.6343,3.6423,3.6544,3.6544,3.6623,3.6705,3.6705,3.6766,3.6811,3.6968,3.7007,3.7007,3.7007,3.7007,3.7007,3.7007,3.7048,3.7126,3.7126,3.7166,3.7223,3.7223,3.7223,3.7412,3.8066,3.8249,3.8489,3.9082,3.9288,0.0,0.0,0.0,0.0,0.0,0.0,4.0883,4.0903,4.0953,4.1003,4.1085,0.0,0.0,0.0,0.0,0.0,0.0,0.0,0.0,0.0,0.0,4.0504,4.0496,0.0,4.0496,0.0,4.0508,4.0452,4.0379,4.011,3.9835,3.9575,3.9232,3.895,3.8707,3.8707,3.8673,3.8658,3.8528,3.843,3.8368,3.8289,3.8259,3.8209,3.2015,3.2684,3.3332,3.3367,0.0,3.4912,3.4978,3.5737,3.58,3.448,3.4312,3.4279,3.4197,3.4245,3.4279,3.4211,3.4279,3.4312,3.4312,3.4312,3.4312,3.4312,3.4695,3.4743,3.4346,3.5769,3.6014,0.0,0.0,3.5729,0.0,0.0,0.0,0.0,0.0,0.0,0.0,3.628,3.6301,3.6301,3.6301,3.6364,3.6482,3.6482,3.6564,3.6681,3.6681,3.6725,3.6788,3.6788,3.6788,3.6811,3.6968,3.7007,3.7007,3.7007,3.7007,3.7007,3.7007,3.7225,3.745,3.745,3.7739,3.8,3.8,3.8,3.81,3.8489,3.8792,3.9059,3.9183,3.921,3.933,0.0,0.0,0.0,0.0,0.0,4.0837,4.0898,4.0917,4.0968,4.1083,4.1093,0.0,0.0,4.1072,0.0,0.0,0.0,0.0,4.0688,0.0,4.0565,4.0496,4.0496,4.0496,4.0496,4.0495,4.0458,4.0398,4.0061,3.9889,3.9829,3.9324,3.895,3.8707,3.8707,3.8624,3.851,3.843,3.8368,3.8307,3.8224,3.8209,3.8209,0.0,0.0,0.0,0.0,0.0,0.0,0.0,3.6258,3.6289,3.5705,3.564,3.5464,3.5026,3.5367,3.5432,3.4993,3.5367,3.564,3.564,3.5689,3.5508,3.5022,3.5242,3.5107,3.456,3.5199,3.5374,0.0,0.0,0.0,0.0,0.0,0.0,0.0,0.0,3.5876,3.6301,3.6402,3.6423,3.6423,3.6502,3.6564,3.6623,3.6623,3.6684,3.6748,3.6748,3.6829,3.6928,3.6928,3.6928,3.6928,3.697,3.7147,3.7262,3.7068,3.7147,3.7262,3.7048,3.7243,3.7505,3.7505,3.7791,3.8101,3.8101,3.8101,3.8201,3.8533,3.8894,3.917,3.9197,3.9296,3.9419,0.0,0.0,0.0,0.0,0.0,0.0,4.0843,4.0848,4.0898,4.1039,4.105,0.0,0.0,0.0,0.0,0.0,0.0,0.0,4.0642,0.0,4.0531,4.0496,4.0496,4.0496,4.0496,4.0507,4.0458,4.0379,4.0224,4.006,3.9881,3.9337,3.9031,3.8921,3.8765,3.8624,3.8476,3.843,3.8352,3.829,3.8207,3.8242,3.8241,3.3699,0.0,3.4813,0.0,3.5593,3.5835,3.6168,3.6199,3.6122,3.5922,3.5891,3.5768,3.5451,3.5889,3.5906,3.5209,3.5599,3.5891,3.5891,3.6013,3.5827,3.5289,3.5347,0.0,3.4781,3.4893,3.4914,3.4795,3.4459,0.0,0.0,0.0,0.0,0.0,3.5571,3.5985,3.6301,3.6444,3.6502,3.6523,3.6643,3.6705,3.6725,3.6725,3.6768,3.6871,3.6972,3.7069,3.7147,3.7147,3.7223,3.7299,3.7185,3.7301,3.7469,3.7356,3.7487,3.7614,3.7375,3.7578,3.7825,3.7825,3.8115,3.8394,3.8394,3.8394,3.8473,3.8733,3.9027,3.9269,3.9283,3.9412,3.9533,3.9595,0.0,0.0,0.0,4.0583,0.0,4.0797,4.0797,4.084,4.0968,4.1,0.0,0.0,0.0,0.0,0.0,0.0,0.0,0.0,0.0,0.0,0.0,4.0519,4.0496,4.0496,4.0471,4.0441,4.0407,4.0326,4.0158,3.9881,3.9514,3.9245,3.9087,3.8896,3.8683,3.851,3.8446,3.8401,3.8322,3.829,3.8289,3.8322,3.4595,3.5432,3.6179,3.6179,3.6352,3.6261,3.5629,3.5521,3.5275,3.4613,3.452,3.4782,3.543,3.5491,3.526,3.4552,3.452,3.452,3.452,3.4536,3.4579,0.0,0.0,3.4781,3.4893,3.5036,3.4764,3.4121,0.0,0.0,3.3335,0.0,3.5052,3.5616,3.6071,3.6301,3.6301,3.6444,3.6502,3.6523,3.6643,3.6745,3.6809,3.6809,3.6888,3.7048,3.7376,3.7487,3.7487,3.7487,3.7774,3.8017,3.7614,3.7505,3.7578,3.7965,3.8085,3.8085,3.8085,3.833,3.8579,3.8579,3.8836,3.9087,3.9087,3.9087,3.9115,3.9183,3.9301,3.9418,3.9482,3.9495,3.9589,3.9848,0.0,0.0,0.0,4.0666,0.0,4.0797,4.0797,4.0825,4.0898,4.0968,0.0,0.0,0.0,0.0,0.0,0.0,0.0,4.0995,4.0796,0.0,4.0694,4.0571,4.0496,4.0496,4.0438,4.0407,4.0407,4.0328,4.0157,3.9903,3.9892,3.9599,3.9101,3.9101,3.8855,3.851,3.851,3.8462,3.8399,3.8399,3.8399,3.8382,3.5462,3.6022,3.6276,3.5799,3.5768,3.5598,3.4936,3.4828,3.4751,3.4536,3.4505,3.4397,3.4091,3.4506,3.4736,0.0,3.4505,3.4505,0.0,3.4577,3.439,3.3838,3.4038,3.3976,3.3552,3.3674,3.3673,3.356,0.0,0.0,0.0,3.5028,3.5436,3.5616,3.6092,3.6343,3.6444,3.6582,3.6664,3.6728,3.6849,3.6928,3.6948,3.6948,3.7108,3.7357,3.7469,3.7667,3.7913,3.7913,3.7982,3.8118,3.8231,3.8245,3.8229,3.8117,3.8265,3.8394,3.8168,3.8346,3.8594,3.8594,3.8851,3.9101,3.9101,3.9142,3.9215,3.9315,3.9418,3.9514,3.9691,3.9743,3.9848,4.007,4.0278,0.0,0.0,0.0,4.0797,4.0797,4.0797,4.0825,4.0898,4.0968,0.0,0.0,0.0,0.0,0.0,0.0,0.0,0.0,4.0834,0.0,4.07,4.0655,4.0581,4.0496,4.0471,4.0424,4.0325,4.0317,4.0253,4.0166,3.9986,3.9796,3.9623,3.9245,3.8966,3.8741,3.8566,3.8462,3.8399,3.8399,3.843,3.8462,3.526,3.5539,3.5629,3.5213,3.5136,3.4905,3.4197,3.4104,3.4054,3.4004,3.4001,3.3914,3.3638,3.4026,0.0,3.3748,3.3719,3.3805,3.4001,3.4085,3.4022,3.3747,3.3958,3.3927,3.3565,0.0,0.0,3.3841,3.4193,3.4617,3.5115,3.5436,3.5683,3.5876,3.6156,3.6364,3.6502,3.6643,3.6745,3.6811,3.7089,3.7108,3.7009,3.7147,3.732,3.7523,3.7667,3.7982,3.8281,3.8281,3.8362,3.8489,3.8563,3.8688,3.8748,3.8535,3.8628,3.8748,3.8535,3.8628,3.8792,3.8792,3.8956,3.9115,3.9129,3.9229,3.9367,3.9521,3.9607,3.9708,3.9905,3.9979,4.008,4.0278,4.0425,4.0539,4.0598,0.0,4.0797,0.0,0.0,0.0,0.0,4.0918,4.0964,0.0,0.0,0.0,0.0,0.0,0.0,4.0987,4.0906,0.0,4.0746,4.0699,4.0629,4.0496,4.0507,4.0432,4.0307,4.0307,4.0299,4.0301,4.0118,3.9996,3.9862,3.9551,3.924,3.8961,3.8778,3.8634,3.8512,3.8512,3.8528,3.8559,3.4301,3.4372,3.4489,0.0,3.4428,0.0,3.3444,3.3365,3.3327,3.3224,3.3251,3.3459,3.396,3.4011,3.3604,3.2602,0.0,0.0,0.0,3.3277,3.3563,3.4234,3.435,3.4456,3.4577,3.4721,3.4833,3.4857,3.4857,3.5138,3.5655,3.5655,3.5876,3.6301,3.6301,3.6381,3.6523,3.6643,3.6766,3.6891,3.7321,3.732,3.7106,3.7431,3.756,3.7632,3.7999,3.8346,3.8624,3.8624,3.8836,3.9059,3.8733,3.8851,3.9101,3.9101,3.9101,3.9101,3.9101,3.9101,3.9101,3.9101,3.9101,3.9129,3.9197,3.938,3.9577,3.9758,3.987,3.9979,4.0186,4.0223,4.0286,4.0489,4.0512,4.0583,4.0778,0.0,4.0797,0.0,0.0,0.0,0.0,4.0867,4.0903,0.0,0.0,0.0,0.0,0.0,4.1095,4.1109,4.1047,4.0944,4.0791,4.0746,4.0636,4.0489,4.0507,4.0432,4.0307,4.0307,4.0299,4.0301,4.0301,4.0166,3.9924,3.9914,3.958,3.9129,3.9115,3.8935,3.8707,3.8707,3.8707,3.8673,0.0,0.0,3.4335,3.3752,3.366,3.3429,3.2736,3.2983,3.3228,3.3214,3.3563,3.3843,3.3986,3.4011,3.391,3.364,3.3614,3.3681,3.3793,3.3818,3.3885,3.4077,3.4284,3.4407,3.4456,3.4673,3.5005,3.5413,3.5413,3.5661,3.6135,3.6135,3.6178,3.6301,3.6301,3.6423,3.6643,3.6681,3.695,3.7339,3.745,3.765,3.7862,3.7931,3.8115,3.8342,3.8439,3.8703,3.8984,3.8984,3.9027,3.9087,3.8998,3.9045,3.9101,3.9101,3.9101,3.9101,3.9101,3.9101,3.9101,3.9101,3.9142,3.921,3.9399,3.9576,3.9766,3.9859,4.001,4.0196,4.0381,4.0433,4.0489,4.0706,4.0726,4.0759,4.079,4.0797,0.0,0.0,4.0797,4.0814,4.0863,4.0898,4.0923,0.0,0.0,0.0,0.0,4.1091,4.1091,4.1109,4.1081,4.0995,4.0791,4.0786,4.0674,4.0499,4.051,4.0432,4.0307,4.0307,4.0299,4.0301,4.0301,4.0263,4.0186,3.9967,3.9705,3.937,3.9178,3.8935,3.8707,3.8707,3.8707,3.8673,3.3424,3.3464,3.3398,3.3013,3.3144,3.3197,3.2823,3.3224,3.3665,3.3903,3.4194,3.4456,3.4697,3.4721,3.4721,3.4721,3.4284,3.4095,3.4358,3.4382,3.448,3.4721,3.4927,3.5068,3.5121,3.5322,3.5611,3.592,3.592,3.6049,3.6301,3.6301,3.6301,3.6301,3.6301,3.6444,3.6702,3.6702,3.7009,3.7523,3.7703,3.7913,3.8118,3.8265,3.8439,3.8594,3.8594,3.8807,3.9101,3.9101,3.9101,3.9101,3.9101,3.9101,3.9101,3.9101,3.9101,3.9101,3.9101,3.9101,3.9115,3.9142,3.9242,3.9393,3.9595,3.9754,3.9905,4.0139,4.026,4.0408,4.0598,4.0639,4.0666,4.0784,4.0797,4.0797,4.0797,4.0797,0.0,4.0797,4.0797,4.0812,4.0858,4.0883,4.0935,4.0991,0.0,0.0,4.1109,4.1109,4.1109,4.1109,4.1109,4.1008,4.0791,4.0713,4.0622,4.0502,4.0502,4.0432,4.0307,4.0307,4.0299,4.0301,4.0301,4.0301,4.0291,4.0128,3.9859,3.9489,3.935,3.9031,3.8707,3.8707,3.8707,3.8692,3.2478,3.2465,3.252,3.252,3.296,3.3313,3.3313,3.3767,3.4268,3.4745,3.488,3.5091,3.5538,3.56,3.56,3.56,3.4785,3.4431,3.4904,3.4951,3.5155,3.5622,3.5795,3.5905,3.6019,3.6144,3.6233,3.6301,3.6301,3.6301,3.6301,3.6301,3.6301,3.6301,3.6322,3.6482,3.6702,3.6766,3.7108,3.7632,3.8016,3.8218,3.8281,3.8566,3.8688,3.8688,3.8688,3.8851,3.9101,3.9101,3.9101,3.9101,3.9101,3.9101,3.9101,3.9101,3.9101,3.9101,3.9101,3.9115,3.9142,3.9264,3.9413,3.9595,3.9815,3.9927,4.009,4.0433,4.0512,4.0591,4.0771,4.0797,4.0797,4.0797,4.0797,4.0797,4.0797,0.0,4.0797,4.0803,4.0802,4.0812,4.0824,4.0878,4.0934,4.1015,4.1066,4.1109,0.0,4.1109,4.1109,4.1109,4.1109,4.1008,4.0791,4.0603,4.0484,4.0474,4.0466,4.0415,4.0298,4.0298,4.0309,4.0301,4.0301,4.0291,4.0244,4.0244,3.9954,3.9502,3.9464,3.917,3.875,3.8704,3.8707,3.8707,3.2385,3.2761,3.3066,3.3066,3.3511,3.3885,3.3885,3.4333,3.4697,3.4785,3.5201,3.5509,3.56,3.56,3.56,3.56,3.5447,3.5402,3.547,3.5577,3.5667,3.5773,3.601,3.6161,3.6182,3.6233,3.628,3.6301,3.6301,3.6301,3.6301,3.6301,3.6301,3.6301,3.6423,3.6544,3.6722,3.7127,3.7559,3.8051,3.8376,3.8688,3.8956,3.8998,3.9013,3.9013,3.9013,3.9059,3.9101,3.9101,3.9101,3.9101,3.9101,3.9101,3.9101,3.9101,3.9101,3.9101,3.9101,3.9142,3.9277,3.9611,3.9735,3.9826,4.009,4.0278,4.0414,4.0489,4.0639,4.0752,4.079,4.0797,4.0797,4.0797,4.0797,4.0797,4.0797,0.0,4.0803,4.0808,4.0805,4.0848,4.0959,4.0974,4.1015,4.1086,4.1095,4.1109,4.1109,4.1109,4.1109,4.1109,4.1109,4.1008,4.0791,4.0595,4.0466,4.0415,4.0362,4.0317,4.0301,4.0301,4.0291,4.0301,4.0301,4.0176,3.9956,3.9956,3.9773,3.9489,3.9245,3.9115,3.9003,3.878,3.8707,3.8673,3.2761,3.3039,3.3287,3.3588,3.407,3.4431,3.4431,3.488,3.5224,3.5224,3.5447,3.56,3.56,3.56,3.56,3.56,3.56,3.5622,3.5689,3.5773,3.5839,3.5888,3.6036,3.6122,3.6204,3.6276,3.6301,3.6301,3.6301,3.6301,3.6301,3.6301,3.6301,3.6301,3.6444,3.667,3.6992,3.7281,3.7773,3.8394,3.8533,3.8792,3.9101,3.9101,3.9101,3.9101,3.9101,3.9101,3.9101,3.9101,3.9129,3.9142,3.9115,3.9129,3.9142,3.9115,3.9129,3.9156,3.9156,3.9256,3.9432,3.9724,3.9826,3.9937,4.0286,4.0441,4.0519,4.0646,4.0733,4.0797,4.0797,4.0797,4.0797,4.0797,4.0797,0.0,0.0,4.0809,4.0812,4.081,4.0833,4.088,4.0994,4.1009,4.1035,4.1097,4.1091,4.1109,4.1109,4.1109,4.1109,4.1109,4.0983,4.0894,4.0791,4.0607,4.0477,4.0407,4.0325,4.0299,4.0301,4.0301,4.0301,4.0301,4.0301,4.0234,4.0108,4.0108,3.987,3.9502,3.9363,3.9142,3.8866,3.8735,3.8707,3.8692,3.3277,3.3495,3.37,3.4095,3.4625,3.4998,3.4998,3.5333,3.56,3.56,3.56,3.56,3.56,3.56,3.56,3.56,3.5622,3.5689,3.5839,3.5883,3.5949,3.6041,3.6062,3.6105,3.6229,3.6259,3.6301,3.6301,3.6301,3.6301,3.6301,3.6301,3.6322,3.6343,3.6568,3.6876,3.7264,3.756,3.803,3.8609,3.867,3.8865,3.9101,3.9101,3.9101,3.9101,3.9101,3.9101,3.9101,3.9101,3.9142,3.9183,3.9142,3.9205,3.9279,3.9227,3.9305,3.9395,3.9305,3.9407,3.9601,3.9895,4.0,4.0139,4.0489,4.0569,4.0605,4.0771,4.0797,4.0797,4.0797,4.0797,4.0797,4.0797,0.0,0.0,0.0,4.0792,4.08,4.0816,4.0889,4.0957,4.1013,4.1015,4.1033,4.1091,4.1109,4.1109,4.1109,4.1109,4.1085,4.1076,4.0894,4.0806,4.0801,4.0593,4.0441,4.037,4.0326,4.0309,4.0301,4.0301,4.0301,4.0301,4.0301,4.0263,4.0215,4.0215,3.9933,3.9483,3.9439,3.917,3.8795,3.8719,3.8707,3.8707,3.386,3.4342,3.4697,3.4721,3.5178,3.5554,3.5554,3.5577,3.56,3.56,3.56,3.56,3.56,3.56,3.56,3.56,3.5711,3.5839,3.5975,3.6101,3.6165,3.6165,3.6255,3.628,3.6301,3.6301,3.6301,3.6301,3.6301,3.6301,3.6301,3.6301,3.6381,3.6485,3.6954,3.7245,3.7431,3.818,3.8548,3.8643,3.8942,3.9087,3.9101,3.9101,3.9101,3.9101,3.9101,3.9101,3.9101,3.9101,3.9142,3.9197,3.9197,3.9364,3.9564,3.9564,3.9794,3.9972,3.9645,3.9576,3.9724,4.0311,4.0457,4.0504,4.0726,4.0778,4.0784,4.079,4.0797,4.0797,4.0797,4.0797,4.0797,4.0797,0.0,0.0,4.0808,4.0796,4.0816,4.0882,4.0941,4.1013,4.1094,4.1087,4.1093,4.1109,4.1109,4.1109,4.1109,4.1109,4.1072,4.1,4.0863,4.0801,4.0801,4.053,4.037,4.0307,4.03,4.031,4.0301,4.0301,4.0301,4.0301,4.0301,4.0166,3.9924,3.9924,3.9751,3.9489,3.9219,3.9115,3.9031,3.8795,3.8707,3.8707,3.4407,3.4649,3.4904,3.5247,3.547,3.56,3.56,3.56,3.56,3.56,3.56,3.56,3.56,3.56,3.56,3.56,3.5728,3.5861,3.5997,3.6122,3.6208,3.6255,3.628,3.6301,3.6301,3.6301,3.6301,3.6301,3.6301,3.6301,3.6301,3.6574,3.6698,3.6776,3.7339,3.772,3.7997,3.8423,3.8718,3.8927,3.9059,3.9101,3.9101,3.9101,3.9101,3.9101,3.9101,3.9101,3.9115,3.9142,3.9229,3.9315,3.9315,3.9521,3.9736,3.977,3.9875,3.9985,4.0072,4.0043,4.0072,4.0406,4.0496,4.0554,4.0746,4.0797,4.0797,4.0797,4.0797,4.0797,4.0797,4.0797,4.0797,4.0797,0.0,4.0794,4.0796,4.0837,4.0893,4.0943,4.103,4.1074,4.1105,4.1095,4.1109,4.1109,4.1109,4.1109,4.1109,4.1109,4.107,4.0994,4.0866,4.0751,4.068,4.0496,4.037,4.0307,4.0291,4.0301,4.0301,4.0301,4.0301,4.0301,4.0301,4.0244,4.0157,4.0157,3.9892,3.9502,3.9401,3.9137,3.8866,3.8921,3.8837,3.875,3.4951,3.5045,3.5178,3.5554,3.56,3.56,3.56,3.56,3.56,3.56,3.56,3.56,3.56,3.56,3.5622,3.5667,3.5795,3.5927,3.6041,3.6297,3.6385,3.6301,3.6409,3.6492,3.6492,3.6618,3.6678,3.6678,3.6678,3.6678,3.6678,3.6958,3.7114,3.7209,3.7738,3.813,3.8405,3.8655,3.8898,3.9101,3.9101,3.9101,3.9101,3.9101,3.9101,3.9101,3.9101,3.9101,3.9115,3.9183,3.9301,3.9399,3.9514,3.9758,4.0041,4.0156,4.0191,4.0226,4.0469,4.0465,4.0433,4.0561,4.0591,4.0639,4.0771,4.0797,4.0797,4.0797,4.0797,4.0809,4.0825,4.0837,4.0848,4.0862,4.0858,4.0835,4.0859,4.0909,4.0964,4.1011,4.1074,4.1108,4.1091,4.1109,4.1109,4.1109,4.1109,4.1109,4.1109,4.1078,4.1028,4.094,4.0811,4.0674,4.0533,4.0436,4.0344,4.0299,4.0301,4.0301,4.0301,4.0301,4.0301,4.0301,4.0301,4.0301,4.0301,4.0301,4.0027,3.9635,3.9635,3.935,3.8979,3.917,3.9115,3.8989,3.5509,3.56,3.56,3.56,3.56,3.56,3.56,3.56,3.56,3.56,3.56,3.56,3.56,3.56,3.5667,3.5795,3.591,3.6058,3.6204,3.6655,3.6721,3.6343,3.6698,3.69,3.69,3.7302,3.7505,3.7505,3.7505,3.7505,3.7505,3.7505,3.7614,3.7826,3.8145,3.8421,3.8609,3.8956,3.9101,3.9101,3.9101,3.9101,3.9101,3.9101,3.9101,3.9101,3.9101,3.9101,3.9115,3.9183,3.9301,3.9451,3.9712,4.0139,4.0546,4.0739,4.0797,4.0797,4.0797,4.0797,4.0797,4.0797,4.0797,4.0797,4.0797,4.0797,4.0797,4.0797,4.0797,4.0814,4.0888,4.0907,4.092,4.0981,4.0947,4.092,4.0998,4.0995,4.1014,4.1092,4.1108,4.1109,4.1109,4.1109,4.1109,4.1109,4.1109,4.1109,4.1109,4.1044,4.094,4.0791,4.0666,4.0545,4.0407,4.0325,4.0299,4.0301,4.0301,4.0301,4.0301,4.0301,4.0301,4.0301,4.0301,4.0301,4.0301,4.0301,4.0128,3.9903,3.9903,3.9739,3.9514,3.9495,3.9495,3.9514,3.5577,3.56,3.56,3.56,3.56,3.56,3.56,3.5667,3.5751,3.5751,3.5822,3.5888,3.5888,3.5888,3.5888,3.5932,3.6058,3.6297,3.6676,3.6821,3.6978,3.7114,3.7265,3.7321,3.7321,3.745,3.7505,3.7505,3.7505,3.7505,3.7505,3.7791,3.7981,3.8097,3.852,3.8785,3.8888,3.9045,3.9101,3.9101,3.9101,3.9101,3.9101,3.9101,3.9101,3.9101,3.9101,3.9101,3.9129,3.9288,3.9433,3.9625,4.0129,4.0381,4.0546,4.0739,4.0797,4.0797,4.0797,4.0797,4.0797,4.0797,4.0797,4.0797,4.0797,4.0797,4.0797,4.0797,4.0843,4.0873,4.0903,4.0941,4.0986,4.1007,4.0977,4.0978,4.1002,4.1004,4.1014,4.109,4.1099,4.1109,4.1109,4.1109,4.1109,4.1109,4.1109,4.1109,4.1109,4.1044,4.094,4.0791,4.0666,4.0559,4.0466,4.037,4.0299,4.0301,4.0301,4.0301,4.0301,4.0301,4.0301,4.0301,4.0301,4.0301,4.0301,4.0301,4.0128,3.9903,3.9903,3.9739,3.9508,3.9717,3.967,3.9544,3.56,3.56,3.56,3.56,3.56,3.5622,3.5667,3.5751,3.5817,3.5883,3.5954,3.5997,3.5997,3.5997,3.6019,3.6062,3.6322,3.6676,3.7113,3.7302,3.7487,3.7739,3.7896,3.7896,3.7738,3.7896,3.7965,3.7965,3.7965,3.7965,3.7965,3.8251,3.8412,3.8489,3.88,3.8979,3.905,3.9073,3.9101,3.9101,3.9101,3.9101,3.9101,3.9101,3.9101,3.9101,3.9101,3.9101,3.9142,3.9389,3.9683,4.0024,4.0378,4.0561,4.0646,4.0752,4.0797,4.0797,4.0797,4.0797,4.0797,4.0797,4.0797,4.0797,4.0797,4.0797,4.0809,4.0837,4.0863,4.0911,4.096,4.1006,4.1054,4.1074,4.106,4.1033,4.103,4.1034,4.1054,4.11,4.1094,4.1109,4.1109,4.1109,4.1109,4.1109,4.1109,4.1083,4.1066,4.0971,4.087,4.0751,4.063,4.0546,4.0502,4.037,4.0289,4.03,4.0291,4.0301,4.0301,4.0301,4.0301,4.0301,4.0301,4.0301,4.0301,4.0301,4.0196,4.0067,4.0067,3.9965,3.9837,3.9996,3.9965,3.9859,3.56,3.56,3.56,3.56,3.56,3.5644,3.5773,3.5817,3.5861,3.5997,3.6019,3.6019,3.6019,3.6019,3.6084,3.6251,3.6696,3.7114,3.7523,3.7896,3.8118,3.8152,3.8499,3.853,3.8152,3.8515,3.8707,3.8707,3.8707,3.8707,3.8707,3.878,3.8837,3.8892,3.8964,3.9036,3.9101,3.9101,3.9101,3.9101,3.9101,3.9101,3.9101,3.9101,3.9101,3.9101,3.9101,3.9129,3.9187,3.9559,4.0043,4.0496,4.0512,4.0653,4.0797,4.0797,4.0797,4.0797,4.0797,4.0797,4.0797,4.0797,4.0797,4.0797,4.0797,4.0803,4.0825,4.0888,4.0902,4.0964,4.1078,4.1091,4.1121,4.1191,4.1152,4.1112,4.1092,4.1106,4.1099,4.1099,4.1094,4.1109,4.1109,4.1109,4.1109,4.1109,4.1109,4.1072,4.0994,4.0878,4.0761,4.07,4.058,4.051,4.051,4.0379,4.0307,4.0307,4.0291,4.0301,4.0301,4.0301,4.0301,4.0301,4.0301,4.0301,4.0301,4.0301,4.0301,4.0301,4.0301,4.0301,4.0301,4.0301,4.0301,4.0301,3.56,3.56,3.56,3.56,3.56,3.5644,3.5773,3.5905,3.5997,3.6144,3.6191,3.6237,3.6237,3.6237,3.6367,3.6719,3.7132,3.7542,3.793,3.8051,3.8236,3.8564,3.8643,3.8676,3.858,3.8661,3.8707,3.8707,3.8707,3.8707,3.8707,3.878,3.8837,3.8892,3.8964,3.9036,3.9101,3.9101,3.9101,3.9101,3.9101,3.9101,3.9101,3.9101,3.9101,3.9101,3.9101,3.9221,3.95,4.0043,4.0345,4.0539,4.0699,4.0752,4.0797,4.0797,4.0797,4.0797,4.0797,4.0797,4.0797,4.0797,4.0797,4.0797,4.0797,4.0829,4.0878,4.0903,4.0977,4.107,4.1087,4.1144,4.1171,4.1191,4.1191,4.1152,4.1112,4.1108,4.1104,4.1099,4.1094,4.1109,4.1109,4.1109,4.1109,4.1109,4.1109,4.1072,4.0994,4.0878,4.0761,4.07,4.0571,4.05,4.05,4.0422,4.0362,4.0307,4.0291,4.0301,4.0301,4.0301,4.0301,4.0301,4.0301,4.0301,4.0301,4.0301,4.0301,4.0301,4.0301,4.0301,4.0301,4.0301,4.0301,4.0301,3.56,3.56,3.56,3.56,3.5644,3.5734,3.5866,3.6014,3.6127,3.6233,3.6276,3.6301,3.6301,3.6301,3.6536,3.7114,3.756,3.7948,3.8368,3.8385,3.8483,3.8692,3.8707,3.8707,3.8707,3.8707,3.8707,3.8707,3.8707,3.8723,3.875,3.8822,3.8877,3.8935,3.9021,3.9059,3.9101,3.9101,3.9101,3.9101,3.9101,3.9101,3.9101,3.9101,3.9101,3.9101,3.9101,3.9339,3.977,4.0248,4.0512,4.066,4.0771,4.0797,4.0797,4.0797,4.0797,4.0797,4.0797,4.0797,4.0797,4.0797,4.0797,4.0797,4.0797,4.0851,4.0902,4.0945,4.1022,4.1114,4.1144,4.1171,4.1191,4.1191,4.1172,4.1132,4.1091,4.1106,4.1101,4.1095,4.1091,4.1109,4.1109,4.1109,4.1109,4.1109,4.1072,4.1014,4.0902,4.0811,4.0717,4.0602,4.0542,4.0508,4.0503,4.043,4.037,4.0307,4.0291,4.0301,4.0301,4.0301,4.0301,4.0301,4.0301,4.0301,4.0301,4.0301,4.0301,4.0301,4.0301,4.0301,4.0301,4.0301,4.0301,4.0301,3.56,3.56,3.56,3.56,3.5711,3.5839,3.5975,3.6122,3.6229,3.628,3.6301,3.6343,3.6388,3.6533,3.688,3.7542,3.7965,3.8334,3.8692,3.8707,3.8707,3.8707,3.8707,3.8707,3.8707,3.8707,3.8707,3.8707,3.8707,3.8735,3.8807,3.8881,3.8939,3.8993,3.9059,3.9101,3.9101,3.9101,3.9101,3.9101,3.9156,3.9142,3.9115,3.9137,3.9142,3.9115,3.9137,3.9505,4.0024,4.037,4.0612,4.0797,4.0797,4.0797,4.0797,4.0797,4.0797,4.0797,4.0797,4.0797,4.0797,4.0797,4.0809,4.0827,4.0827,4.0877,4.0937,4.0997,4.1072,4.1122,4.1191,4.1191,4.1191,4.1172,4.1132,4.1091,4.1107,4.1102,4.1097,4.109,4.1109,4.1109,4.1109,4.1109,4.1106,4.108,4.1022,4.0933,4.0791,4.0734,4.0636,4.0504,4.0496,4.05,4.0499,4.0441,4.037,4.0316,4.031,4.0301,4.0301,4.0301,4.0301,4.0301,4.0301,4.0301,4.0301,4.0301,4.0301,4.0301,4.0301,4.0301,4.0301,4.0301,4.0301,4.0301,3.56,3.56,3.56,3.56,3.5711,3.5839,3.5975,3.6122,3.6229,3.628,3.6301,3.643,3.6781,3.745,3.7896,3.8017,3.8385,3.8643,3.8692,3.8707,3.8707,3.8707,3.8707,3.8707,3.8707,3.8707,3.8707,3.8707,3.8707,3.8735,3.8807,3.8881,3.8939,3.8993,3.9059,3.9101,3.9101,3.9101,3.9101,3.9129,3.935,3.9311,3.9129,3.9363,3.9311,3.9142,3.9363,3.9786,4.029,4.0633,4.0778,4.0797,4.0797,4.0797,4.0797,4.0797,4.0797,4.0797,4.0797,4.0797,4.0797,4.0797,4.0834,4.0888,4.0888,4.0941,4.1016,4.1074,4.1143,4.1191,4.1191,4.1191,4.1172,4.1112,4.1112,4.111,4.1101,4.1099,4.1097,4.109,4.1109,4.1109,4.1109,4.1109,4.1076,4.1028,4.1016,4.091,4.0717,4.0706,4.0636,4.0504,4.0496,4.0496,4.0508,4.0438,4.0407,4.0398,4.0328,4.0301,4.0301,4.0301,4.0301,4.0301,4.0301,4.0301,4.0301,4.0301,4.0301,4.0301,4.0301,4.0301,4.0301,4.0301,4.0301,4.0301,3.5711,3.5778,3.58,3.5711,3.5883,3.6036,3.6101,3.6191,3.6276,3.6301,3.6492,3.6698,3.688,3.7614,3.8101,3.8101,3.8467,3.8707,3.8707,3.8707,3.8707,3.8707,3.8707,3.8707,3.8707,3.8707,3.8707,3.8707,3.8707,3.875,3.8866,3.8896,3.895,3.9064,3.9087,3.9101,3.9101,3.9101,3.9197,3.9337,3.9446,3.9508,3.9507,3.9625,3.959,3.9543,3.9829,4.011,4.0351,4.0687,4.0797,4.0797,4.0797,4.0797,4.0797,4.0797,4.0797,4.0797,4.0797,4.0797,4.0815,4.084,4.0873,4.0915,4.099,4.1025,4.1068,4.1087,4.1147,4.1191,4.1191,4.1172,4.1132,4.1092,4.1108,4.1104,4.1099,4.1095,4.1093,4.1109,4.1109,4.1109,4.1109,4.1068,4.1022,4.0994,4.0889,4.0789,4.07,4.0622,4.0571,4.0496,4.0496,4.05,4.0495,4.0474,4.0424,4.0334,4.0308,4.0291,4.0301,4.0301,4.0301,4.0301,4.0301,4.0301,4.0301,4.0301,4.0301,4.0301,4.0301,4.0301,4.0301,4.0301,4.0301,4.0301]}]]